GFSGL_sfc_thetae_000.txt.gz
Theta_e
286 287 286 285 285 284 282 281 280 280 279 279 279 278 277 277 277 276 276 276 276 275 275 275 275 275 274 274 274 274 273 273 269 273 275 275 275 275 276 276 276 276 276
287 287 285 285 284 283 282 281 280 280 279 279 278 277 277 276 276 276 275 275 273 273 274 273 272 274 272 272 272 271 271 272 270 268 272 272 272 273 274 273 275 276 276
286 285 284 283 283 283 282 280 279 279 278 277 277 277 276 276 275 275 275 274 273 274 273 272 272 271 271 271 270 270 270 271 271 269 269 271 272 273 273 274 274 275 277
285 284 284 283 283 283 282 280 279 278 277 277 277 276 275 275 274 274 274 273 273 273 273 272 272 271 271 271 270 270 270 268 269 269 269 269 271 273 274 273 273 276 276
286 284 284 284 283 282 279 279 278 278 277 276 275 274 274 274 274 274 274 272 271 271 272 272 272 272 273 273 270 269 269 268 268 268 269 270 271 273 273 274 273 273 274
285 284 284 282 281 280 278 278 277 276 275 275 274 273 272 274 278 278 275 272 272 271 271 271 272 272 273 275 276 277 276 272 271 271 272 272 272 272 274 274 273 272 270
284 284 282 281 279 278 277 276 275 275 274 273 272 272 271 272 279 280 277 273 272 272 272 272 272 272 272 272 274 276 277 278 278 275 273 273 273 274 274 273 273 272 271
284 283 280 279 278 276 275 275 275 274 273 273 271 272 271 272 280 281 278 274 273 272 272 272 271 272 273 273 273 272 273 274 275 276 275 275 276 276 276 276 275 274 275
281 281 280 279 277 275 275 275 274 273 273 272 272 271 270 271 281 281 279 273 273 272 273 273 272 272 274 276 274 272 273 274 278 278 278 279 279 279 278 274 270 269 268
279 279 278 278 277 275 275 274 274 273 273 272 270 271 271 270 280 280 278 272 270 271 272 273 275 273 276 277 273 273 272 273 272 272 274 271 273 271 274 272 270 267 268
276 274 273 274 274 273 273 273 272 272 271 271 269 269 270 269 275 280 280 272 270 269 270 270 273 275 276 277 278 273 271 273 273 267 267 267 268 269 270 271 272 270 268
273 272 272 272 273 273 270 270 270 270 269 268 267 267 269 269 271 278 279 276 275 268 269 272 272 274 276 276 275 274 275 274 264 264 264 265 266 267 269 271 272 272 272
273 273 272 270 271 271 270 269 268 269 269 267 267 267 267 268 269 277 279 279 277 271 271 273 274 273 273 271 271 272 270 265 263 262 263 265 267 269 270 269 271 271 271
273 272 271 270 269 269 269 269 268 268 268 268 268 267 267 267 269 273 274 275 276 274 272 266 268 268 268 268 266 267 266 265 265 264 264 266 267 267 266 268 268 268 268
273 271 270 270 268 268 269 269 269 270 271 269 269 269 268 267 269 273 271 268 268 269 260 258 259 262 262 263 263 263 264 264 264 264 264 264 265 266 266 268 269 268 266
272 270 269 269 268 268 268 267 274 273 275 276 275 272 271 273 274 275 275 275 275 272 256 254 257 260 260 261 261 261 262 263 263 264 263 263 264 264 264 266 268 267 265
274 272 269 269 267 267 266 266 266 272 275 277 276 275 274 274 276 277 277 277 275 267 254 254 255 257 258 259 259 260 260 261 263 262 263 262 263 263 264 265 267 266 265
273 273 270 268 267 267 267 267 268 268 269 271 276 274 276 277 278 278 276 273 264 259 253 251 252 253 255 257 257 258 258 259 260 261 261 261 262 263 263 265 265 264 264
272 271 269 267 267 267 267 268 268 269 270 270 271 274 276 278 277 276 272 261 258 256 252 252 251 253 254 254 254 254 254 256 258 258 259 260 262 262 264 265 265 265 265
273 272 268 267 266 266 267 268 269 269 269 269 269 270 272 272 267 261 258 257 257 254 255 252 252 250 250 250 249 250 253 255 256 258 259 261 262 263 264 264 264 264 264
272 270 267 267 266 266 267 267 268 268 268 268 267 267 270 265 261 258 256 256 255 254 254 252 250 249 248 248 247 248 251 254 256 258 259 261 262 264 264 265 264 264 264
269 266 266 265 266 266 266 267 266 266 266 263 264 269 270 262 259 257 257 255 254 253 252 250 249 248 249 247 247 249 252 253 255 258 259 260 263 264 264 264 264 264 263
266 265 265 265 266 266 265 265 265 264 263 263 265 266 260 259 258 257 256 253 253 253 251 249 249 250 249 248 248 251 251 253 255 257 258 260 264 264 263 262 263 263 263
264 264 263 264 264 264 264 263 263 263 263 263 262 259 258 257 256 255 254 253 252 250 248 248 249 248 249 248 248 250 252 253 255 258 260 264 264 264 263 262 262 263 263
262 262 262 262 262 261 261 261 261 261 260 260 258 257 256 255 254 253 252 252 251 250 250 249 248 248 248 248 249 249 252 255 256 261 265 264 264 263 262 262 262 262 263
260 260 260 260 260 260 259 258 258 258 258 257 256 255 255 255 254 253 252 251 251 250 249 248 247 247 248 249 250 253 257 262 263 268 265 265 264 262 262 261 261 262 262

GFSGL_sfc_thetae_003.txt.gz
Theta_e
286 287 287 286 287 285 283 283 283 282 280 280 280 279 279 279 278 278 277 277 277 277 277 277 276 276 274 274 274 274 274 274 270 273 275 275 275 275 276 276 277 276 277
288 288 287 286 285 284 283 282 283 281 280 280 279 279 279 279 278 278 276 277 276 275 275 275 273 274 272 272 272 272 272 272 271 269 272 273 273 274 274 274 275 277 277
287 286 285 285 284 284 284 282 281 281 280 280 279 279 278 278 277 277 277 276 276 276 275 274 272 272 270 270 270 270 271 271 271 270 269 272 272 274 273 275 276 277 278
285 285 285 285 285 285 285 282 281 281 279 279 279 279 278 278 277 277 276 275 275 275 275 274 272 271 271 270 270 270 270 269 269 269 269 270 272 274 275 274 274 276 276
286 286 286 286 286 285 284 281 281 280 280 279 278 278 277 277 277 276 276 274 273 272 272 272 272 272 274 273 270 269 269 267 267 267 269 271 272 273 272 274 273 274 275
287 286 287 286 284 284 284 281 280 279 278 278 277 276 276 277 281 281 276 273 273 272 271 271 272 273 274 276 276 275 272 266 266 267 271 272 272 273 274 273 273 272 270
286 287 286 282 282 282 281 280 279 278 277 277 276 276 275 276 281 282 279 274 273 272 271 271 272 272 272 273 276 278 278 279 279 275 272 273 273 274 274 273 273 273 273
285 286 281 282 283 280 279 278 278 278 277 276 276 275 275 275 282 282 280 274 273 272 272 272 272 272 272 272 272 272 273 273 274 274 274 274 275 276 276 276 275 272 272
281 282 280 280 280 277 278 277 277 277 276 276 275 274 274 274 282 283 280 273 273 272 273 273 272 272 274 276 273 270 271 273 277 279 280 280 280 280 279 273 267 266 266
280 279 277 276 275 277 277 276 276 276 275 275 274 274 274 273 282 283 279 273 271 271 272 273 274 273 275 277 273 268 267 272 274 269 273 274 273 272 274 272 268 265 265
278 274 272 273 274 276 276 275 274 274 274 273 272 272 272 273 279 283 282 273 271 271 271 271 273 277 277 278 277 273 273 273 269 265 266 267 268 269 269 270 270 269 267
279 274 274 271 272 274 275 273 273 273 271 271 270 270 271 272 278 283 283 277 276 270 270 271 272 277 277 277 277 276 276 274 260 259 260 263 265 267 269 270 271 271 271
282 280 276 275 273 274 272 271 271 271 270 269 269 269 269 270 274 282 283 280 278 271 272 273 275 276 277 275 273 272 270 264 260 258 261 264 267 268 270 269 270 270 270
278 279 277 273 272 272 272 271 271 270 270 270 269 269 269 269 271 276 278 279 277 274 275 275 274 271 271 270 268 268 266 266 265 263 263 265 267 266 266 267 266 267 266
274 277 276 273 272 271 271 271 271 272 273 271 271 271 269 268 270 275 277 277 275 273 267 266 264 265 264 265 264 264 264 265 264 264 263 263 264 264 265 266 266 265 264
269 272 275 273 271 271 270 269 275 276 276 278 277 274 273 275 276 277 279 280 277 275 265 263 263 263 263 263 262 262 262 263 263 263 262 262 262 263 263 264 264 264 263
266 269 274 272 271 269 269 269 268 272 277 277 279 278 276 275 277 278 280 279 278 273 264 263 263 262 262 262 261 261 260 261 262 262 261 261 261 261 261 262 263 263 264
265 267 270 274 271 270 269 269 269 269 270 271 277 278 278 277 278 279 279 278 274 266 263 262 260 259 259 259 259 259 259 259 259 260 259 258 258 259 260 261 262 262 263
265 267 269 273 271 270 269 269 268 269 270 270 273 277 276 278 279 279 279 271 264 261 260 259 259 258 258 257 256 255 253 252 255 255 253 255 258 258 260 261 262 263 263
264 266 268 271 269 268 268 267 268 268 269 271 272 272 273 275 274 275 268 265 262 260 259 258 256 256 255 254 251 249 247 250 253 253 253 256 258 259 260 261 262 263 262
264 266 268 271 268 267 267 267 268 269 270 270 271 273 276 274 272 263 263 263 261 259 258 257 255 254 252 249 248 247 248 251 253 251 253 256 258 258 260 261 263 263 262
264 267 269 268 267 267 267 268 268 269 270 269 270 273 278 266 265 263 261 260 259 258 257 256 254 252 251 251 250 249 249 251 251 250 253 256 257 258 260 263 263 262 262
267 267 266 266 266 267 267 268 268 269 268 268 269 270 264 263 261 260 259 257 256 255 254 252 252 251 251 250 250 251 250 251 251 250 253 255 256 259 262 262 262 261 260
264 264 265 265 265 266 265 265 266 265 266 267 265 263 261 260 259 258 257 256 255 253 253 252 252 251 250 248 249 249 249 251 250 251 253 255 257 260 263 263 261 260 260
263 263 263 263 263 263 263 263 263 264 264 261 260 259 259 258 257 256 255 255 254 252 252 252 252 251 250 250 250 249 250 253 252 254 255 259 262 260 262 261 260 260 260
260 261 261 261 261 261 262 262 261 261 259 259 258 258 257 257 256 255 254 254 253 253 253 252 252 251 251 251 251 252 254 258 259 263 266 266 259 262 262 260 259 259 259

GFSGL_sfc_thetae_006.txt.gz
Theta_e
284 286 285 284 285 284 283 284 284 282 281 281 281 281 280 280 280 280 279 278 278 277 278 278 277 278 277 276 276 275 275 275 272 273 275 275 275 274 275 276 276 276 277
285 285 284 284 283 283 283 283 283 282 281 281 281 280 280 280 280 280 279 278 278 277 277 277 276 276 274 274 274 273 273 274 272 270 272 272 273 273 274 274 275 277 277
288 285 284 284 283 284 284 283 283 282 281 281 281 280 280 280 279 280 279 278 278 278 277 276 275 274 272 272 272 271 271 273 271 270 270 272 272 273 273 275 275 276 278
286 285 284 283 284 285 285 284 282 282 281 281 281 280 280 280 280 279 279 278 278 277 277 276 274 274 273 271 271 271 271 270 270 270 270 270 271 274 274 274 274 276 275
286 286 286 285 284 284 284 284 281 282 282 281 280 280 280 280 279 279 279 278 277 276 275 275 274 274 276 274 271 270 270 268 268 268 269 270 272 273 273 274 273 274 275
285 285 286 285 283 282 284 283 280 280 280 280 280 279 278 279 283 284 280 278 277 275 274 274 273 274 277 278 277 276 272 266 262 264 271 271 273 273 274 273 273 272 271
284 284 284 283 283 284 281 280 280 279 280 279 279 279 278 279 284 285 284 278 277 275 274 273 272 273 274 275 278 277 277 277 274 272 272 273 273 273 274 273 274 274 273
283 283 283 282 281 281 278 279 278 278 278 278 279 278 279 278 284 286 284 277 276 275 274 274 273 272 273 274 275 275 275 275 275 275 274 274 274 275 275 276 275 271 271
283 283 282 281 280 279 277 277 278 278 278 279 279 278 278 278 283 286 283 276 276 274 274 274 274 273 275 277 273 271 272 273 276 278 279 280 280 279 278 271 264 262 264
280 281 281 279 277 277 276 274 275 278 278 278 277 278 278 277 282 286 283 275 274 273 273 274 276 274 277 278 272 270 268 271 273 271 273 274 274 272 274 272 266 259 264
277 277 280 281 278 277 277 273 274 275 274 273 274 275 276 276 278 285 285 275 274 273 272 272 273 278 278 280 277 272 271 273 272 268 268 268 269 269 269 270 271 269 265
275 275 277 278 279 277 275 274 273 274 274 271 271 270 272 274 278 284 285 278 278 273 272 273 273 278 279 280 279 277 278 271 263 261 260 263 266 267 268 270 270 271 271
272 272 273 274 277 277 275 274 272 273 272 269 270 269 270 272 274 282 285 281 279 274 274 274 276 279 279 279 280 279 273 266 263 258 261 264 266 268 269 269 269 269 269
268 268 269 270 273 277 275 275 273 272 272 272 270 270 270 270 272 276 281 281 279 274 275 275 276 278 279 273 275 274 269 267 265 264 264 266 267 266 266 267 265 266 264
265 266 266 268 269 273 275 274 273 274 275 273 273 273 271 269 271 276 281 279 276 273 273 273 274 271 269 267 267 266 266 266 265 264 264 264 264 264 264 266 265 264 262
262 263 264 266 267 270 273 273 277 278 278 279 279 275 274 276 276 278 282 282 279 278 272 271 269 268 267 266 265 264 265 265 265 265 264 263 263 262 262 263 263 262 261
260 261 262 264 265 267 271 270 270 273 279 280 280 280 279 276 278 279 281 283 281 278 270 268 267 266 266 266 265 264 264 264 264 263 263 262 262 261 261 261 261 262 261
259 260 261 262 264 266 269 270 270 270 269 273 279 279 280 279 279 279 281 282 278 275 268 267 266 265 265 264 263 263 263 262 262 261 261 259 257 257 257 258 259 259 260
259 260 261 262 264 266 267 270 270 270 270 271 273 276 279 280 278 280 281 277 275 266 267 266 265 264 263 263 262 261 260 259 258 257 256 254 255 255 256 257 259 260 261
259 260 261 262 263 264 266 269 268 268 269 270 270 272 275 276 274 275 277 277 269 267 266 264 263 262 261 260 259 257 256 255 254 254 252 253 254 255 257 257 259 259 259
260 260 261 261 263 265 267 267 268 267 268 269 270 273 276 273 273 274 276 268 267 264 264 262 260 260 258 257 256 254 254 255 253 252 252 251 253 254 256 258 258 259 261
261 261 261 261 263 266 267 267 267 267 268 269 270 273 278 273 271 266 266 265 264 263 262 260 259 258 256 255 255 254 253 252 251 251 250 251 253 255 256 257 259 261 262
263 264 265 266 266 267 267 267 267 267 268 269 270 271 271 266 265 263 260 259 259 258 258 258 257 255 254 255 254 255 254 253 252 249 249 251 252 253 255 257 259 261 261
262 263 263 264 264 264 264 265 266 266 267 268 264 263 262 262 259 259 258 258 257 256 256 256 255 255 254 252 251 251 250 249 249 249 249 250 253 254 256 258 261 261 260
261 261 261 262 263 263 263 263 264 263 262 261 260 260 260 259 258 257 257 257 256 255 254 254 255 254 253 252 252 250 250 255 254 252 250 253 253 254 258 259 261 260 259
259 260 260 261 261 262 262 261 260 260 259 259 259 259 259 258 257 257 256 256 255 255 255 254 254 253 253 253 252 253 253 257 255 254 254 256 259 263 258 259 260 259 257

GFSGL_sfc_thetae_009.txt.gz
Theta_e
289 289 287 287 287 287 285 285 286 285 285 284 284 284 283 283 283 283 283 282 282 282 282 282 281 282 282 281 282 282 281 280 280 277 279 279 278 278 278 279 279 280 281
289 288 288 287 286 285 286 285 285 284 284 284 284 283 283 283 283 282 282 282 282 281 281 280 280 280 280 280 280 280 279 279 278 277 276 277 277 277 277 277 278 279 280
287 287 287 287 286 285 285 285 284 285 284 284 283 283 282 282 282 282 283 282 282 282 281 280 280 279 279 279 278 278 277 277 277 276 275 275 276 277 277 278 278 279 279
286 286 286 286 286 286 286 286 284 284 284 284 283 283 283 282 282 282 282 282 281 281 281 281 280 279 278 278 277 276 276 276 275 274 273 273 274 276 276 276 277 278 278
285 285 285 285 285 285 285 285 285 283 284 283 283 283 283 282 282 281 282 282 281 281 280 280 279 279 281 279 277 275 275 274 274 273 272 273 274 274 275 277 275 277 278
284 284 285 284 283 283 284 284 284 283 282 283 282 282 282 281 285 286 283 281 281 280 278 279 279 278 280 281 280 279 276 273 271 272 273 272 274 275 276 275 275 275 275
282 282 283 283 282 281 282 282 282 282 282 281 282 282 281 282 286 287 286 281 280 280 279 278 276 277 278 279 281 280 279 279 276 274 274 275 275 276 276 275 275 275 275
279 279 280 279 279 280 280 281 281 281 281 280 281 281 281 282 285 287 286 282 281 280 279 278 277 276 277 277 278 277 277 277 276 276 277 277 277 277 277 277 276 274 273
277 277 277 277 276 279 279 279 280 279 279 280 281 281 280 281 284 286 286 283 280 279 278 278 277 276 278 280 277 276 275 275 279 280 280 279 279 280 280 275 272 270 269
276 276 276 275 275 277 277 278 279 278 279 279 279 279 280 280 283 284 286 283 279 278 277 276 278 277 280 281 276 276 274 275 276 277 278 279 280 277 277 275 272 268 268
274 274 273 273 274 274 275 277 277 277 278 277 277 277 277 279 279 284 286 284 279 277 276 275 276 280 280 282 279 275 275 276 276 274 275 274 273 273 272 273 273 271 268
271 271 270 270 271 272 271 273 276 276 275 276 276 276 276 277 278 281 284 287 281 277 275 276 275 280 281 282 279 276 278 276 274 272 271 270 270 270 271 272 272 272 272
268 268 268 268 268 269 269 270 273 276 274 275 275 274 275 275 276 281 282 286 283 277 277 277 277 280 281 282 281 278 277 272 271 268 268 269 270 270 271 270 270 270 270
265 265 266 265 266 266 268 269 271 274 274 274 274 273 274 273 274 275 279 282 282 279 278 277 277 279 280 280 279 279 274 272 270 270 269 269 269 268 268 269 267 268 267
263 264 263 263 263 264 266 267 270 274 275 274 275 275 274 273 273 276 277 279 279 278 275 275 275 276 276 276 275 271 270 269 268 268 267 266 267 267 267 267 267 266 264
260 260 261 261 262 262 263 264 270 273 276 280 280 279 276 278 279 279 280 281 282 279 273 273 273 275 271 272 270 268 268 267 268 267 266 266 265 266 265 266 265 264 263
258 259 259 260 260 260 261 262 263 268 275 279 280 281 281 280 279 280 280 282 283 279 273 273 273 273 271 271 269 268 266 267 267 267 266 265 264 264 263 263 264 264 263
258 259 259 259 259 259 260 262 263 264 266 270 275 277 280 281 281 280 280 282 279 278 274 273 272 271 269 268 268 267 266 266 266 265 265 264 263 262 261 262 262 261 261
258 258 259 259 259 260 261 261 263 264 265 269 271 273 276 281 282 280 281 278 278 275 272 271 270 269 269 268 267 267 266 264 264 263 262 261 260 260 259 260 261 261 261
259 259 260 260 260 260 260 261 262 263 265 268 269 270 273 276 276 276 277 277 278 276 271 270 269 269 268 267 265 264 262 262 261 260 259 259 259 259 260 259 259 260 260
260 260 260 260 260 260 260 261 263 264 267 268 268 271 274 274 275 275 275 276 272 269 270 267 266 265 264 263 262 261 260 260 259 258 258 258 257 257 258 259 260 259 259
261 261 261 262 262 261 261 263 264 266 268 267 268 270 275 275 275 274 271 268 267 267 266 264 262 261 261 261 260 260 259 258 258 258 258 257 257 257 257 258 258 259 260
260 261 262 263 265 265 263 265 267 267 267 268 269 270 271 267 264 263 262 262 262 261 262 261 260 259 259 259 260 260 259 258 258 257 257 256 256 256 255 256 257 258 259
260 260 261 262 264 264 265 265 266 267 266 263 263 262 262 261 260 259 259 259 259 260 260 260 259 258 257 257 257 257 258 257 256 256 256 255 255 255 255 255 257 258 261
259 259 260 260 261 262 261 261 261 261 261 261 260 260 260 260 259 259 259 259 259 258 258 258 258 257 256 255 255 255 254 257 254 254 253 253 254 255 255 256 258 260 261
257 258 258 259 259 259 259 259 259 259 259 259 259 259 259 258 258 258 258 258 257 257 256 256 256 256 256 256 255 255 255 257 256 256 253 254 255 256 256 259 259 260 261

GFSGL_sfc_thetae_012.txt.gz
Theta_e
289 290 291 292 292 291 291 292 291 292 291 291 291 291 291 291 291 290 290 290 288 289 288 288 288 289 288 288 288 288 287 289 289 283 286 287 286 284 281 282 283 283 284
288 288 288 289 289 289 290 290 291 290 291 290 290 289 289 289 289 289 288 288 287 287 287 286 286 285 287 287 287 286 286 286 287 281 281 282 281 282 282 281 281 281 283
287 287 287 287 287 286 287 289 290 289 288 289 289 288 288 288 287 287 288 287 286 287 287 285 285 284 284 285 285 285 285 282 284 284 279 281 280 281 279 280 281 282 282
285 286 286 286 285 285 285 286 287 288 288 287 288 288 287 287 286 287 286 286 286 286 287 285 284 283 284 284 283 284 284 283 282 281 281 278 278 279 280 280 279 281 281
283 284 284 285 285 284 284 285 285 285 286 287 286 286 287 286 285 286 285 285 285 285 285 284 284 284 285 285 283 283 283 282 281 280 278 278 277 276 277 280 279 280 282
282 282 283 284 283 282 282 283 283 284 284 285 284 284 285 284 287 288 286 284 284 283 284 284 283 283 284 286 287 286 283 281 280 280 278 277 277 278 279 278 278 277 279
281 281 282 282 281 280 280 282 282 281 283 282 283 284 284 285 287 288 287 285 284 284 283 283 282 282 282 282 285 285 284 284 284 281 279 278 278 279 280 278 278 278 278
281 280 281 280 279 278 278 280 281 281 281 281 282 283 283 284 286 287 287 285 284 284 283 283 282 281 281 281 281 281 281 281 281 280 281 280 281 281 280 280 279 279 279
279 279 279 279 277 276 275 277 279 279 280 280 281 282 283 283 285 286 286 285 284 284 283 283 283 282 282 284 281 280 279 279 282 281 281 282 282 282 281 280 277 275 274
278 278 278 278 275 274 275 275 277 277 278 280 280 281 282 282 284 285 285 285 284 284 284 282 283 282 283 284 281 280 278 278 277 277 278 281 281 280 281 280 278 274 274
277 277 276 276 274 274 274 274 274 274 275 275 277 280 281 281 282 284 285 284 283 284 283 282 281 283 284 283 284 281 280 279 278 277 278 278 278 280 280 280 278 275 273
275 273 273 273 273 272 271 271 271 271 271 273 275 277 279 281 281 282 284 284 285 284 283 282 281 282 283 283 283 282 282 280 278 278 278 276 276 276 276 275 275 275 275
269 268 268 269 269 269 268 268 269 269 270 271 273 276 277 280 281 281 283 283 284 283 285 283 282 281 282 282 284 282 280 277 277 275 275 275 275 275 274 273 274 274 273
264 264 265 265 265 266 267 267 267 267 268 270 271 274 277 278 279 280 280 279 282 283 284 282 281 280 281 281 281 282 279 276 276 274 274 274 273 272 272 272 271 270 269
262 262 262 263 263 263 264 265 265 267 268 267 269 272 274 275 278 280 279 278 280 282 280 279 277 277 278 278 280 277 277 274 274 274 273 271 271 270 270 270 270 269 268
260 261 261 261 261 262 262 262 266 268 270 271 273 273 273 277 280 280 281 281 281 283 277 276 275 276 276 277 278 276 275 273 273 272 271 270 269 269 268 269 269 268 267
259 260 261 261 261 260 261 260 260 263 267 269 271 272 274 276 279 281 282 282 281 282 277 276 276 276 277 277 276 272 272 273 272 271 269 268 268 268 268 267 267 267 266
259 259 260 260 260 260 260 260 261 260 260 263 267 271 273 277 280 281 283 282 278 279 278 276 276 277 277 276 274 272 271 270 270 269 268 268 267 267 266 266 266 265 265
260 260 261 261 261 261 261 261 261 261 261 262 264 267 270 275 277 279 281 280 277 278 278 276 276 277 275 275 272 271 270 269 269 267 267 266 266 265 265 265 265 264 264
261 262 262 262 261 261 261 261 261 261 262 263 264 266 270 273 273 274 279 279 278 278 278 276 276 273 273 272 271 270 268 267 266 266 264 264 264 265 264 263 264 264 263
261 262 262 262 262 262 262 262 262 262 262 263 265 269 273 272 273 274 278 278 278 279 275 273 272 271 271 270 268 267 266 265 264 263 263 262 262 262 264 264 264 263 263
262 261 262 262 263 264 265 266 264 263 264 265 267 271 273 272 273 275 276 273 273 273 272 271 269 268 267 266 266 265 264 263 263 263 262 262 261 262 262 262 262 263 263
261 261 261 262 263 264 266 267 266 266 267 269 269 269 269 268 267 267 266 266 267 266 266 265 264 264 265 265 266 265 264 263 263 263 262 261 261 261 261 262 261 261 262
260 260 261 261 262 262 263 263 263 263 264 264 263 263 263 263 262 262 262 263 263 264 264 263 263 262 262 263 263 264 263 262 262 262 262 261 261 260 261 261 261 261 262
258 258 259 260 260 260 261 261 262 262 262 262 262 261 261 261 261 261 261 262 262 262 262 262 262 262 261 261 261 260 262 261 260 260 260 261 261 260 260 260 261 262 262
257 258 258 259 259 259 259 259 260 260 260 260 260 260 260 260 260 260 260 260 260 260 260 260 260 260 260 260 259 259 260 259 258 258 258 259 259 259 260 260 260 261 262

GFSGL_sfc_thetae_015.txt.gz
Theta_e
288 289 289 289 288 288 288 289 291 291 291 291 291 291 292 292 293 292 291 291 290 290 290 290 290 290 290 290 289 289 289 290 291 284 287 289 287 285 283 283 284 282 283
286 287 287 288 287 286 286 286 288 288 290 290 290 290 290 290 291 291 289 289 289 289 289 288 288 287 288 288 288 287 287 287 288 282 284 285 285 285 282 280 281 282 283
285 286 286 286 286 285 285 285 286 286 287 288 288 288 288 289 289 289 289 288 288 289 288 288 287 287 286 287 287 286 286 283 286 283 281 283 283 283 282 281 281 281 281
285 284 284 285 285 284 284 284 285 285 285 285 286 287 287 287 287 287 287 287 287 288 288 288 287 286 286 286 285 285 285 284 284 284 280 280 279 280 280 278 278 280 280
284 284 283 284 284 284 283 282 283 284 284 285 284 285 285 286 285 286 286 285 285 286 287 286 287 286 287 287 286 286 285 284 283 282 280 278 278 277 277 279 279 280 281
283 283 283 282 282 282 281 281 281 282 283 283 283 283 283 284 287 288 287 285 285 284 284 286 285 285 286 288 289 290 287 285 283 282 281 279 278 278 278 278 279 279 277
282 282 282 281 281 281 280 279 279 279 281 280 281 282 282 283 286 287 288 285 285 284 284 284 284 284 284 284 288 289 289 290 289 284 282 281 279 279 279 279 279 279 280
281 280 281 281 279 280 279 278 277 278 278 279 279 280 281 282 285 286 287 286 285 285 285 284 283 284 284 283 283 284 285 285 286 285 284 283 282 281 281 281 280 281 279
279 279 279 279 278 278 276 276 276 276 276 276 278 278 278 280 283 284 284 284 284 284 285 285 284 284 286 287 282 282 283 283 286 288 286 286 285 285 283 281 278 277 276
277 278 278 277 276 276 276 275 276 275 275 275 275 276 276 276 280 283 283 283 283 283 284 284 285 285 286 287 283 282 281 282 281 282 281 283 284 284 285 281 280 276 275
275 275 274 274 274 274 273 274 273 272 272 271 272 273 273 275 277 281 283 282 282 282 283 283 284 287 287 287 287 282 282 283 282 281 278 279 280 280 280 280 280 279 275
270 269 268 268 269 269 268 269 269 269 268 268 269 270 272 274 277 280 282 283 284 282 282 283 284 287 286 287 286 285 285 285 281 279 277 277 277 277 278 279 279 278 278
265 264 264 264 264 265 265 265 265 266 266 266 267 267 269 272 275 279 281 283 283 282 283 284 286 286 286 285 286 286 284 282 278 277 276 277 278 278 279 277 276 276 275
262 262 262 262 262 263 264 264 263 263 263 264 264 265 267 269 271 274 277 280 281 281 282 282 284 285 285 283 281 284 282 281 278 277 277 278 278 276 274 274 272 272 271
261 261 261 262 262 262 263 263 263 263 264 262 263 264 264 265 268 273 275 277 279 279 279 280 281 282 279 279 279 280 281 280 278 278 278 276 274 273 272 272 271 270 269
260 260 260 260 261 261 261 262 266 267 269 269 270 269 268 271 273 274 275 276 278 280 279 277 279 279 277 277 278 278 279 279 277 277 276 273 272 271 270 271 270 269 268
258 259 259 260 260 260 260 260 259 263 267 268 269 270 270 271 272 273 275 276 278 279 278 277 277 278 276 277 278 278 278 276 276 275 273 272 271 271 269 269 269 268 268
259 259 260 260 260 261 261 261 261 260 260 261 265 267 268 270 271 273 275 276 274 276 278 277 277 277 277 277 278 278 276 274 273 272 271 271 270 269 268 268 267 267 267
259 259 260 261 262 262 262 262 262 262 262 262 263 265 266 269 271 273 276 275 275 276 277 277 278 278 277 278 276 275 274 272 272 271 270 270 269 268 267 267 267 267 266
260 260 261 261 262 262 263 263 263 263 263 262 262 263 265 266 266 271 272 273 273 275 277 278 277 278 278 276 273 273 271 271 270 269 268 268 267 267 266 266 265 264 264
260 261 261 261 261 262 263 263 265 266 265 263 263 265 270 269 271 271 272 274 276 278 278 278 277 275 274 274 272 271 270 269 268 267 266 266 266 265 266 266 265 265 264
260 260 260 260 262 262 263 264 264 264 265 265 266 268 272 269 270 270 270 271 274 274 274 273 273 274 273 271 270 269 268 266 265 265 264 264 265 265 265 264 264 263 263
259 259 259 260 261 262 262 263 263 263 263 263 264 263 263 263 264 264 265 265 266 266 268 269 268 267 268 268 269 267 266 265 265 265 264 263 263 263 263 263 263 263 263
259 258 258 259 260 260 261 261 261 261 262 261 262 262 262 262 262 262 263 263 264 264 264 264 265 265 265 266 266 266 266 265 265 265 264 263 263 263 263 262 262 262 263
258 258 258 258 258 259 259 260 260 260 260 260 260 260 261 261 260 261 261 262 262 262 262 262 262 262 262 263 263 263 265 265 264 264 264 263 262 262 262 262 262 262 262
258 258 257 258 258 258 258 258 259 259 259 259 260 260 260 260 260 260 260 260 260 260 260 261 261 260 260 261 261 262 263 263 261 262 262 262 261 260 261 261 261 261 261

GFSGL_sfc_thetae_018.txt.gz
Theta_e
284 285 285 284 285 284 283 283 284 284 285 286 287 286 286 287 287 287 286 287 286 286 285 285 286 286 286 285 285 285 285 285 282 280 282 284 286 285 284 282 282 282 282
283 283 284 284 283 282 282 282 282 283 284 284 285 286 285 285 286 285 285 286 285 284 285 284 285 286 285 284 285 286 286 284 281 278 280 281 283 284 282 280 280 281 280
284 282 282 281 281 281 280 280 281 281 282 282 284 284 284 285 285 285 285 285 285 285 285 285 286 283 285 286 284 286 286 285 283 278 278 280 280 282 278 278 278 278 280
283 282 280 280 280 280 280 280 279 279 280 281 281 283 283 283 284 284 284 285 285 286 285 285 285 284 285 284 285 285 285 285 285 278 277 279 278 281 281 279 277 278 278
281 280 280 281 280 279 279 278 279 278 279 280 280 280 281 282 283 283 284 284 284 284 285 285 285 286 287 287 285 286 285 285 285 282 277 276 278 278 279 279 278 278 278
279 278 280 280 280 279 279 279 278 278 277 278 279 279 278 281 284 286 285 284 285 284 284 284 285 285 286 289 290 290 288 285 285 284 282 280 279 280 280 279 278 277 275
276 277 277 278 278 279 278 278 278 277 277 276 276 277 277 278 283 284 285 283 283 284 284 284 284 284 284 284 287 290 290 291 290 286 284 282 280 280 279 279 279 279 279
276 275 276 277 277 277 277 277 277 277 276 275 275 276 276 277 281 283 284 282 282 282 283 284 284 284 284 284 283 284 285 286 288 288 286 286 284 281 281 281 281 281 278
276 276 276 275 274 274 273 274 274 275 275 274 275 274 273 274 279 280 280 278 279 280 282 283 283 283 286 288 284 282 283 283 287 290 290 290 290 287 284 282 279 276 270
274 274 273 272 270 269 270 270 271 271 272 273 273 273 273 272 276 277 278 275 275 277 279 281 283 284 286 288 285 284 281 282 283 284 285 288 288 286 286 283 281 277 277
270 270 268 268 266 266 266 266 266 266 267 267 268 269 269 270 271 275 276 274 274 275 277 279 281 285 287 288 288 284 283 284 284 283 282 284 283 282 283 283 283 282 279
267 265 264 263 263 264 262 262 263 263 263 263 263 264 267 268 271 273 275 276 277 275 276 278 280 284 285 287 287 288 288 286 283 282 280 281 280 280 281 281 281 282 282
263 261 261 262 262 262 261 261 261 261 261 261 262 262 263 266 267 270 272 274 275 274 277 280 283 284 285 285 286 287 286 285 282 280 279 280 280 280 281 279 280 278 277
260 260 261 261 260 261 262 262 261 261 260 261 260 260 261 262 263 265 266 266 270 272 275 277 281 282 283 283 283 285 285 284 282 280 279 280 280 279 278 278 276 275 273
260 260 260 260 259 259 260 260 261 262 263 263 263 264 264 264 265 269 269 268 268 270 272 273 275 275 276 279 281 282 282 283 281 281 279 277 277 277 277 277 275 274 272
259 259 259 259 259 259 259 260 265 267 269 270 271 270 268 271 272 272 273 273 273 274 271 270 271 273 275 277 279 279 280 280 281 280 278 277 276 276 274 274 274 272 271
258 259 259 259 258 258 259 259 258 262 268 269 270 270 271 271 271 272 272 273 273 274 269 270 270 272 274 276 278 278 277 279 281 278 278 277 276 274 272 271 271 271 270
259 259 258 258 258 259 260 260 260 260 260 261 266 268 270 271 272 272 273 272 268 269 269 270 270 271 274 276 276 276 278 279 278 277 277 275 273 272 270 270 270 270 270
258 258 259 259 260 260 261 261 261 261 261 262 264 267 267 270 271 272 273 269 268 268 269 271 272 273 276 276 277 277 278 275 276 275 273 273 273 271 270 270 270 270 269
257 258 260 259 259 259 260 260 261 262 262 264 264 265 265 265 264 265 268 270 271 271 271 272 276 276 277 276 276 276 275 274 274 273 272 272 272 271 269 268 268 267 267
258 258 258 258 258 259 260 261 261 262 262 262 263 264 270 264 263 264 265 266 266 267 273 273 276 276 276 275 274 274 273 273 272 271 270 270 270 268 268 268 267 267 266
257 256 257 257 258 259 259 260 261 261 261 261 261 262 267 262 262 262 263 263 264 265 266 270 270 269 271 271 272 272 271 269 269 269 268 268 268 267 267 266 266 265 265
256 257 256 256 257 258 258 259 259 260 259 260 260 260 260 260 260 260 261 262 263 263 264 265 266 266 268 269 270 270 268 267 267 267 267 266 266 266 266 265 264 264 264
255 256 256 256 256 257 257 258 259 259 259 259 259 259 260 260 260 260 260 261 261 262 262 263 263 264 265 266 266 267 267 267 267 267 267 266 265 265 265 264 264 264 263
253 253 254 255 255 256 256 257 258 258 259 259 259 259 259 260 260 260 260 260 260 260 260 260 261 262 263 263 264 265 267 266 266 266 266 265 264 264 264 263 263 263 263
252 251 252 254 255 255 256 256 256 257 257 258 258 259 259 259 259 259 260 260 259 260 260 260 260 261 262 263 263 264 265 266 265 265 265 264 263 263 263 262 262 262 262

GFSGL_sfc_thetae_021.txt.gz
Theta_e
283 284 284 284 283 282 280 281 281 281 282 282 283 282 282 283 284 284 284 284 284 285 285 284 285 285 287 288 284 285 286 283 287 284 281 282 285 286 284 284 283 283 285
284 283 283 283 283 281 281 280 280 279 280 281 282 281 282 282 282 282 283 283 284 284 285 284 285 286 284 286 287 286 286 284 286 286 280 281 283 286 284 283 282 282 282
283 282 282 280 280 281 281 281 281 281 280 280 280 280 280 281 281 281 281 282 283 284 285 285 285 285 284 285 284 286 287 286 284 284 281 280 281 284 280 281 281 280 281
280 279 279 278 279 280 279 279 279 280 279 279 279 279 280 280 281 281 281 282 282 283 283 284 285 285 285 285 285 285 286 286 284 283 279 279 279 280 283 280 278 279 279
279 279 279 279 279 279 278 278 278 278 279 278 278 279 279 279 280 279 280 281 281 282 283 283 284 285 286 287 285 285 285 285 285 284 283 277 277 279 280 280 280 280 279
278 278 278 278 279 278 279 279 279 278 278 278 277 277 276 278 281 282 282 280 281 281 281 283 283 283 285 288 289 290 288 285 284 285 284 282 281 282 282 280 280 277 275
275 275 276 276 277 277 277 277 276 276 276 275 276 276 276 276 280 281 281 279 279 279 280 281 282 283 283 284 286 289 289 290 291 286 285 285 283 283 282 281 280 280 280
274 273 273 275 273 274 273 273 273 273 272 273 273 274 274 275 279 279 280 277 277 277 278 279 280 281 282 283 283 283 284 285 287 287 287 286 287 284 283 284 282 282 280
273 273 273 271 269 269 268 268 269 269 268 268 270 270 270 271 275 276 276 275 275 275 276 276 277 278 282 284 282 281 282 283 287 289 290 291 291 291 285 283 281 279 277
271 271 270 269 266 266 266 265 265 265 266 266 266 266 266 266 270 272 273 271 270 272 273 275 277 277 280 282 281 281 280 281 282 283 285 288 289 289 289 283 283 279 280
269 268 266 266 264 263 263 264 263 262 263 262 263 263 264 265 266 270 272 271 270 270 271 272 274 278 280 281 283 282 282 283 284 283 283 284 285 285 286 285 283 282 281
265 264 263 262 262 263 261 261 261 261 260 260 260 261 263 265 267 269 271 272 272 268 268 270 272 276 278 281 281 284 286 286 284 282 282 282 282 283 285 285 283 283 284
259 258 259 260 261 261 260 259 260 260 260 260 261 260 261 264 264 268 270 271 271 268 269 270 273 274 276 279 281 283 283 283 283 282 281 281 282 283 284 284 283 283 283
255 259 261 260 259 260 260 260 259 259 259 259 260 260 261 263 265 266 265 265 268 268 269 268 269 272 274 276 276 281 282 282 282 283 282 281 282 282 281 281 279 278 278
258 260 260 260 259 259 260 259 260 262 263 263 264 265 265 265 267 271 272 271 270 270 268 266 266 268 270 271 272 278 279 280 280 283 282 281 280 279 279 280 279 276 276
258 260 259 259 259 259 259 259 264 267 268 270 271 270 268 272 273 274 274 275 275 276 270 268 267 267 268 269 271 274 275 276 279 281 282 281 279 277 278 278 278 275 275
257 258 259 259 258 258 258 258 258 262 267 268 269 270 271 272 274 274 275 275 276 275 269 267 266 267 268 269 270 272 275 278 279 281 280 280 278 277 277 276 275 274 274
254 258 258 258 258 258 258 259 259 259 259 261 266 268 270 271 272 274 274 274 269 270 268 267 266 267 268 268 270 272 275 278 278 280 280 279 277 277 276 274 274 273 273
256 258 257 257 258 259 259 259 259 260 260 260 262 265 265 269 271 270 270 266 266 266 268 268 267 267 269 270 270 272 275 275 277 278 277 278 277 275 274 274 273 273 272
256 257 259 257 257 257 258 258 259 259 260 260 260 260 262 265 260 261 262 262 263 263 264 264 267 271 271 272 272 275 276 276 276 277 277 275 275 275 273 272 272 271 271
256 257 256 255 255 256 257 257 258 258 259 259 259 261 268 261 260 260 260 261 261 262 263 264 267 272 275 274 275 276 276 275 275 274 274 273 273 272 272 272 271 271 270
254 254 255 254 255 256 256 257 257 258 258 258 259 260 266 260 260 259 260 260 261 262 262 263 265 266 267 269 272 273 273 272 271 271 271 271 271 270 269 269 269 268 268
254 254 254 253 254 255 255 255 256 257 258 259 259 259 259 259 259 259 259 260 260 260 261 261 262 263 265 267 268 268 268 268 269 270 269 268 268 268 268 267 267 267 266
252 251 252 251 252 254 253 254 255 256 257 258 258 258 258 259 259 259 259 260 260 260 261 261 262 262 263 264 265 266 267 267 268 268 268 267 267 267 266 266 266 266 265
250 250 249 249 249 251 252 253 254 255 256 256 256 257 257 258 258 259 259 260 260 260 260 261 261 263 263 264 264 265 266 267 267 267 267 267 266 266 265 265 264 265 265
251 250 248 247 247 248 248 251 252 253 253 254 255 255 255 256 257 258 258 259 259 260 260 260 261 261 263 265 266 266 267 267 266 266 266 265 264 264 264 264 264 264 263

GFSGL_sfc_thetae_024.txt.gz
Theta_e
281 281 281 281 282 281 280 280 280 279 279 280 280 280 280 280 280 280 280 280 281 282 282 283 283 284 284 285 283 286 288 287 285 288 282 282 282 285 285 287 286 286 288
281 281 280 281 280 279 280 280 279 280 281 279 279 279 279 279 280 279 279 279 279 280 281 282 282 285 282 283 283 283 283 285 286 285 287 280 282 284 286 284 284 285 284
281 280 279 279 278 278 279 279 279 279 279 279 279 278 278 278 278 279 279 279 280 280 281 281 281 282 282 284 284 284 284 285 284 284 285 280 281 282 281 282 283 283 282
279 279 278 278 278 277 278 277 277 278 277 278 278 278 278 278 278 278 278 278 279 280 281 281 282 281 282 282 284 285 285 284 284 283 284 284 280 281 283 282 280 281 281
279 278 278 278 278 277 277 277 277 278 277 277 277 277 277 277 278 277 278 278 278 278 279 280 281 282 284 285 283 284 285 285 284 283 283 283 280 278 281 282 282 281 281
277 276 277 276 276 276 276 276 276 275 274 274 274 274 274 276 279 280 280 278 278 277 277 278 279 280 282 285 286 287 287 284 284 284 284 283 283 281 283 283 281 280 279
274 273 273 274 273 274 273 272 272 271 271 271 271 271 271 272 276 277 278 276 276 276 276 277 277 278 280 280 283 285 285 287 290 286 284 284 284 285 283 282 281 282 282
272 270 271 272 270 270 270 269 269 269 268 268 268 268 268 269 273 274 274 272 272 272 273 275 276 276 277 277 278 278 280 282 283 285 286 287 287 287 284 284 284 283 284
272 272 270 269 266 267 265 266 266 266 265 265 266 265 265 265 270 271 272 270 270 270 271 272 272 273 276 278 276 275 276 278 284 287 288 289 291 291 290 285 282 281 280
270 270 269 267 263 264 264 264 264 263 264 265 264 264 264 263 267 270 271 268 267 268 270 271 273 273 276 277 275 274 273 275 278 280 282 284 288 288 290 288 284 281 281
268 267 265 265 263 263 262 263 262 261 262 261 261 262 262 263 264 269 271 269 268 267 267 269 270 273 274 275 276 274 275 278 279 280 281 281 282 284 285 288 287 284 281
264 263 262 260 261 262 259 260 260 259 259 259 260 261 262 264 266 268 271 272 272 269 268 269 269 272 274 275 274 275 277 278 277 279 280 280 281 281 283 285 286 285 286
258 256 256 258 260 261 259 259 258 259 258 259 259 259 261 263 264 269 271 272 272 269 269 270 274 275 275 274 274 274 273 273 274 275 278 280 281 283 283 283 284 286 285
251 256 259 258 259 259 260 260 259 258 258 259 259 260 262 264 266 268 268 268 271 271 271 269 271 273 274 274 272 272 272 272 272 273 277 281 283 282 282 283 282 283 282
255 258 258 258 257 259 260 259 260 262 263 263 264 266 265 265 267 272 273 271 272 273 274 273 269 265 265 265 266 269 271 271 271 273 277 279 281 281 281 281 281 281 279
256 258 258 259 259 259 259 259 264 267 268 270 271 270 268 271 273 274 274 275 276 276 273 271 270 270 269 268 267 267 268 269 271 273 278 278 278 280 280 281 280 280 276
252 257 257 258 258 257 258 257 257 261 266 267 268 270 270 271 272 272 273 274 273 272 267 266 267 268 268 268 268 267 268 270 272 273 275 275 277 280 278 278 277 278 276
250 255 255 256 256 257 257 258 258 257 257 259 264 267 268 269 270 272 271 269 261 263 263 264 264 265 267 268 268 267 268 270 271 273 276 278 279 278 277 277 276 276 275
252 254 253 256 257 257 257 257 257 258 258 258 260 262 263 267 269 267 267 260 260 260 261 262 263 263 265 266 268 268 268 268 270 272 276 277 279 278 277 277 277 275 275
250 254 256 253 255 255 256 256 256 257 257 257 258 259 260 263 259 259 259 259 259 259 260 260 261 263 266 268 270 270 270 269 270 272 275 276 277 277 277 276 275 274 274
249 251 254 253 252 253 254 255 256 256 256 257 258 260 268 260 258 259 259 259 259 259 259 260 260 262 263 265 267 271 272 273 274 275 276 276 276 275 276 276 274 274 274
248 248 249 252 254 253 253 254 254 255 255 256 257 259 264 258 258 258 259 259 260 260 261 260 260 262 263 264 264 266 268 269 270 271 272 272 273 273 273 272 272 272 271
249 249 252 253 253 252 252 251 251 253 254 254 256 256 257 257 257 258 258 259 260 260 261 261 261 262 263 264 265 266 265 265 267 269 269 269 269 269 270 269 269 268 268
249 251 254 254 250 250 250 250 251 252 252 253 252 254 255 255 255 256 257 259 259 260 261 261 261 262 263 264 265 265 266 267 267 267 267 267 266 267 267 267 268 267 267
252 254 254 252 248 248 247 247 249 248 248 250 252 252 253 254 254 255 256 257 258 259 259 260 261 261 263 265 265 265 266 266 266 267 267 267 266 266 266 266 266 266 266
254 254 253 250 248 246 244 245 247 248 248 250 251 251 252 253 253 254 255 255 256 257 258 259 259 260 261 265 266 269 269 268 266 266 266 266 265 265 265 265 265 264 264

GFSGL_sfc_thetae_027.txt.gz
Theta_e
280 280 279 279 279 279 278 278 278 278 278 279 279 279 278 278 278 278 278 278 278 278 279 278 280 281 282 282 282 283 284 285 283 286 287 284 282 283 284 286 287 288 289
280 279 280 279 278 278 278 278 278 278 278 278 279 278 278 278 278 277 277 277 277 277 278 279 279 281 279 280 281 281 282 284 283 282 285 285 282 283 283 283 285 287 286
280 279 279 278 277 277 277 277 278 277 277 277 278 277 277 277 277 277 277 277 277 277 278 278 278 279 279 280 280 281 281 283 284 283 283 284 282 281 282 283 283 284 285
279 278 278 277 277 277 277 276 276 276 276 275 275 275 275 276 276 276 276 276 277 277 278 278 278 278 278 279 280 280 281 281 282 282 282 282 283 282 281 281 280 282 282
278 278 277 277 276 276 275 275 274 274 274 273 273 273 273 274 275 275 275 275 276 276 277 278 278 278 281 281 280 280 280 280 281 281 281 281 282 278 280 282 282 283 282
276 275 275 275 275 274 273 272 272 272 271 271 271 270 270 272 274 276 275 274 274 274 274 275 276 277 278 280 281 282 282 280 280 280 280 280 281 282 282 282 281 281 279
273 271 271 272 271 271 270 270 270 269 269 268 268 268 268 268 272 274 274 272 271 271 271 272 273 274 275 276 278 280 280 282 283 281 280 281 281 283 283 282 282 283 282
271 270 270 270 268 268 268 267 267 267 266 266 266 266 266 267 271 272 273 271 270 270 270 270 271 271 272 273 273 273 274 275 276 278 279 280 282 284 285 285 284 284 284
271 271 270 268 265 266 263 264 265 265 264 264 265 264 263 264 269 271 271 269 269 268 269 270 270 270 273 275 273 271 272 273 277 279 280 282 284 286 287 285 283 282 281
271 270 268 267 262 262 263 263 263 262 264 264 264 263 263 262 267 269 270 268 267 268 269 270 272 272 274 275 273 271 269 271 273 273 275 277 279 280 284 285 284 282 281
268 267 265 265 262 261 261 262 261 260 262 260 261 261 261 263 263 269 271 269 268 268 268 269 270 273 274 275 276 272 271 273 273 273 273 274 276 278 280 282 283 284 283
265 263 262 258 259 261 255 258 258 258 258 258 258 259 261 263 266 268 271 272 273 269 268 269 270 273 275 276 276 277 278 277 274 271 270 271 273 275 279 281 283 284 285
261 256 254 257 259 259 255 258 258 256 256 258 259 259 260 263 264 269 271 272 273 271 271 272 276 276 277 276 276 276 274 271 269 268 267 269 271 275 278 281 282 283 283
258 256 258 256 257 257 260 260 258 257 257 259 259 259 262 265 267 268 268 269 272 273 273 272 273 275 276 275 273 273 272 271 270 269 269 270 271 272 273 276 280 281 280
258 259 257 256 256 257 259 259 260 261 262 263 265 266 265 265 267 272 273 271 272 273 274 271 270 270 270 271 268 268 268 268 267 268 268 269 270 270 271 275 280 280 279
258 259 257 257 257 258 258 258 263 267 269 270 271 270 268 271 272 273 274 275 275 274 268 263 263 264 265 266 266 267 269 269 268 269 268 268 269 270 272 275 280 280 279
255 257 256 257 257 256 256 256 255 260 266 266 268 269 270 271 271 272 273 272 269 268 258 260 261 262 263 263 264 264 266 269 270 269 269 269 271 271 272 276 277 279 279
254 255 253 255 254 253 254 255 256 255 255 257 262 265 268 269 271 270 270 265 258 260 258 258 259 260 261 262 263 265 267 268 268 268 269 270 271 272 275 276 277 277 277
253 255 255 252 253 255 255 255 255 256 256 256 257 261 262 266 268 267 266 256 257 257 258 258 259 259 260 261 262 264 266 268 268 268 268 269 271 272 276 277 277 277 277
251 253 254 251 251 251 254 253 255 255 255 255 256 257 259 261 257 257 258 258 258 258 259 259 259 259 260 261 262 263 265 267 269 268 268 270 271 274 274 276 277 276 276
249 248 252 250 248 249 250 251 254 253 254 254 255 258 266 258 256 256 257 258 258 258 259 260 260 260 261 262 263 263 264 265 267 269 272 272 273 274 276 276 275 276 275
249 248 246 246 249 250 250 254 254 252 252 253 255 256 263 256 255 255 256 256 257 259 260 260 260 261 262 262 263 263 263 264 265 266 268 269 270 272 272 273 273 274 273
249 247 247 247 248 250 252 252 251 250 250 251 252 253 253 253 253 254 254 255 256 257 259 260 260 261 262 263 265 265 264 264 265 266 266 266 265 264 264 266 267 268 269
247 248 249 248 249 251 252 253 251 251 250 250 248 249 252 252 252 252 253 254 255 256 257 258 259 260 260 262 265 267 266 267 266 266 266 265 265 266 266 266 266 267 267
245 247 248 249 249 252 252 250 250 246 246 248 249 247 250 250 251 252 252 253 254 254 255 256 258 258 259 260 262 266 268 266 266 266 265 265 264 265 265 265 266 266 266
252 250 250 250 252 252 250 249 249 247 247 248 248 248 248 250 251 251 252 252 253 253 253 255 256 256 257 259 261 267 268 271 266 266 265 264 264 264 264 264 264 264 264

GFSGL_sfc_thetae_030.txt.gz
Theta_e
279 278 279 278 277 278 277 277 277 277 277 278 278 277 277 277 276 276 275 276 276 276 276 277 277 278 278 279 280 281 281 281 280 282 285 285 285 286 286 285 286 286 287
279 278 279 278 278 277 277 277 277 277 277 277 277 277 276 276 276 275 275 275 275 275 276 276 276 279 277 278 278 278 279 280 279 278 281 282 282 283 285 284 285 286 285
279 278 278 278 277 276 276 277 277 276 276 275 275 274 274 274 274 275 275 275 276 276 276 276 276 276 276 277 277 277 278 280 280 279 279 282 282 281 282 282 283 284 285
279 278 277 277 276 276 276 275 275 274 273 273 273 273 273 273 273 274 274 274 274 274 275 275 276 276 276 276 276 277 278 278 279 278 279 280 281 282 279 280 281 281 283
277 277 277 276 275 275 274 273 272 272 272 272 271 271 271 271 273 273 273 273 273 273 273 273 274 275 277 278 277 277 277 276 277 277 278 279 279 279 280 281 280 281 282
277 276 275 274 274 272 272 271 271 271 270 270 269 269 268 270 273 275 275 273 272 271 270 271 272 272 274 276 277 278 279 277 275 276 278 278 279 280 281 281 281 281 279
274 271 271 271 271 270 270 269 269 268 268 267 267 267 267 267 272 274 274 272 271 270 270 270 270 271 271 271 273 275 275 277 279 277 275 276 276 279 280 280 281 281 281
272 270 270 270 268 268 267 266 266 266 266 265 265 265 266 267 271 272 273 271 270 269 269 269 269 270 270 271 271 271 272 273 274 274 274 274 275 276 276 278 279 280 282
271 271 269 268 265 266 263 264 264 264 264 263 265 263 263 263 269 271 271 270 269 269 269 270 270 269 272 274 272 271 272 273 276 277 278 279 280 280 281 278 276 277 277
271 271 269 267 262 262 264 262 262 261 264 264 264 263 262 262 267 270 271 269 267 268 269 270 272 272 275 276 273 271 270 271 272 271 272 274 276 275 278 277 276 273 275
269 267 266 265 262 261 260 261 259 259 261 259 260 261 261 262 263 269 272 271 269 269 269 270 271 274 275 276 277 273 272 274 274 273 273 273 274 274 274 275 276 276 274
265 265 264 262 260 262 254 256 255 256 255 256 257 259 261 263 266 269 272 273 274 270 270 271 271 275 276 278 278 279 279 278 274 271 270 269 270 270 272 273 274 276 278
262 262 259 259 261 261 256 257 256 254 254 257 259 259 261 263 264 270 272 273 274 272 272 274 276 277 277 276 276 277 276 274 272 270 270 270 271 271 272 272 273 274 275
257 260 261 260 260 260 261 260 255 255 256 258 258 259 261 265 267 267 268 271 273 272 274 273 272 272 272 272 270 271 271 270 269 269 269 270 271 271 270 271 269 270 270
258 260 261 260 259 259 259 259 259 260 260 258 261 265 265 264 266 272 273 271 272 273 270 266 262 262 263 264 265 266 266 266 267 268 268 268 268 268 269 270 270 269 268
259 261 261 260 259 259 259 258 263 267 269 271 272 270 267 271 272 273 274 274 273 271 262 257 258 259 260 261 261 262 263 264 265 266 268 268 267 268 268 269 269 269 268
256 260 259 259 258 258 257 256 255 259 265 266 268 269 269 271 271 272 272 272 268 266 254 256 257 258 259 260 260 261 261 263 265 267 267 268 268 268 268 268 270 270 270
256 259 257 257 256 255 255 255 255 254 253 255 261 264 267 268 270 270 270 264 257 257 250 256 257 258 258 259 260 260 261 262 263 265 267 268 267 268 268 269 270 272 275
256 256 256 256 255 255 255 255 254 254 254 254 256 259 260 265 267 266 265 251 254 256 257 257 258 259 259 259 260 260 261 262 264 265 267 268 268 268 268 269 271 273 276
255 257 255 252 252 251 253 253 253 253 253 252 254 255 256 256 251 251 251 250 252 255 257 257 258 259 259 260 260 261 261 263 263 264 265 267 269 269 269 270 272 273 274
252 250 252 249 249 249 249 250 252 251 251 252 254 256 264 257 252 251 252 253 253 255 256 257 258 259 259 260 261 261 262 263 264 264 265 265 267 267 270 273 274 275 275
248 250 248 249 249 249 249 251 251 251 251 253 255 255 262 254 253 252 253 252 253 254 255 256 257 258 259 260 260 261 262 263 264 264 264 265 266 266 267 269 270 272 272
250 249 247 246 247 249 248 248 249 250 252 253 252 252 251 250 249 250 251 252 253 254 254 254 255 256 258 259 260 261 262 264 265 265 264 264 265 265 266 265 266 267 267
249 249 249 248 246 248 249 249 250 253 253 252 248 248 250 250 248 249 250 251 252 253 253 253 254 254 255 256 258 260 261 265 267 265 264 264 264 265 265 265 266 267 268
245 246 247 249 249 251 250 251 253 252 252 250 250 248 247 248 249 249 250 249 251 251 252 253 254 254 254 254 255 257 259 265 265 265 264 264 263 264 264 264 265 266 266
254 252 253 252 251 251 252 253 253 253 251 250 249 248 247 248 249 249 250 249 250 251 251 252 253 252 253 255 255 259 262 268 267 264 263 264 263 263 264 263 263 264 264

GFSGL_sfc_thetae_033.txt.gz
Theta_e
280 280 280 280 280 280 279 279 279 279 279 278 278 278 278 277 277 277 277 277 277 277 278 278 278 279 279 280 280 280 280 280 279 281 284 285 285 286 288 290 290 290 291
280 280 280 280 280 279 278 279 279 278 278 277 276 276 276 276 276 275 275 276 276 276 276 277 277 278 277 278 279 278 279 280 279 277 280 282 283 285 286 286 287 288 289
280 280 279 279 279 278 278 278 277 276 276 275 275 274 274 274 274 274 275 275 275 275 275 275 275 275 275 277 277 277 278 278 279 278 277 281 282 284 284 285 286 287 287
280 279 279 279 278 277 277 276 275 274 274 273 273 273 273 273 273 274 274 274 274 275 274 274 274 273 273 274 275 275 277 277 278 277 277 278 279 282 283 282 282 285 285
279 279 279 279 277 276 275 274 273 273 272 272 272 271 271 271 273 274 274 274 273 273 273 273 273 274 275 275 275 275 275 275 275 276 276 277 277 277 279 282 282 284 285
279 279 278 277 275 274 273 272 272 271 270 270 270 269 269 270 273 275 275 273 273 272 271 272 272 272 273 274 275 276 275 273 272 273 274 274 275 277 279 279 279 278 278
276 275 274 274 273 272 271 270 270 269 269 268 268 268 267 268 272 275 275 273 272 271 270 270 270 271 271 271 272 274 274 275 276 274 273 273 273 274 275 275 275 276 276
275 273 272 272 270 269 269 268 268 267 267 266 266 266 267 267 272 273 274 272 271 270 270 270 270 270 271 272 272 272 273 274 274 275 275 275 275 276 276 276 276 276 277
274 273 272 271 268 268 266 266 266 266 265 264 266 265 264 264 269 272 272 271 270 269 270 271 271 271 272 275 274 273 273 274 276 278 278 279 279 279 279 277 274 273 272
274 273 271 269 265 265 266 265 265 264 265 265 264 264 263 263 267 271 272 271 269 270 271 271 273 274 276 277 274 273 271 272 274 274 274 276 277 277 278 277 275 272 272
271 270 268 267 265 264 263 264 262 261 263 260 261 262 262 263 264 270 272 272 271 271 272 272 272 275 276 277 278 275 274 276 276 275 275 275 276 276 276 276 276 275 272
268 267 265 263 265 263 259 260 259 259 259 258 258 260 263 264 267 270 273 274 275 272 271 273 273 276 278 277 276 276 277 276 275 274 273 273 273 273 274 275 275 276 276
265 263 261 261 262 261 258 259 261 259 258 259 261 261 262 265 266 270 272 273 275 273 274 275 275 274 274 271 272 273 272 270 270 269 269 270 272 274 274 274 275 275 275
261 261 261 260 261 260 263 262 260 259 259 259 259 260 262 263 266 268 269 271 274 274 272 268 269 268 268 268 266 267 267 268 267 266 267 269 271 271 270 272 271 271 271
261 262 261 260 260 261 262 262 262 262 261 257 259 261 261 265 266 272 274 273 273 272 265 262 261 261 261 262 263 263 264 265 265 265 266 266 267 269 269 271 270 270 268
261 261 261 261 261 261 261 261 265 268 269 271 272 272 269 271 272 273 274 274 273 271 261 257 258 259 259 260 260 261 262 263 264 264 265 265 266 267 268 270 270 269 268
259 261 261 261 261 260 259 258 258 260 265 267 269 271 271 270 272 272 273 272 268 265 257 257 257 258 259 260 260 261 261 262 263 264 264 265 266 267 268 268 269 269 269
256 259 259 259 259 258 258 258 257 255 255 256 261 264 267 269 269 271 270 265 257 257 255 256 257 258 259 259 260 260 261 262 262 263 264 265 266 267 268 268 268 268 269
255 256 257 256 256 257 257 257 256 255 255 254 255 259 261 264 267 267 265 256 254 255 256 256 258 258 259 260 260 260 261 261 262 263 264 265 265 266 267 269 269 269 269
252 257 257 255 255 255 255 255 255 254 254 254 254 255 255 255 255 254 254 253 253 254 255 255 256 257 258 259 260 260 261 261 262 263 264 265 265 266 266 267 268 270 272
251 251 254 251 250 251 253 253 254 253 253 253 254 256 263 262 257 254 253 253 253 253 254 255 255 256 257 258 259 259 259 260 262 263 265 265 265 264 266 267 268 269 271
248 250 248 248 251 252 252 253 253 252 253 253 254 256 263 257 255 253 253 253 253 253 253 254 254 255 256 256 257 258 258 259 261 262 265 264 264 264 265 266 267 268 269
250 248 247 248 251 251 251 251 251 251 251 252 253 254 255 254 252 252 252 252 252 252 254 253 253 254 255 256 257 257 257 258 261 262 264 264 263 264 265 265 266 267 268
247 248 250 249 249 249 250 252 251 251 251 252 252 252 253 253 251 250 251 251 251 252 252 252 253 253 253 254 255 256 257 258 261 263 265 264 263 264 264 264 265 266 267
245 246 248 250 248 249 249 250 252 251 252 253 254 253 253 251 250 250 250 250 250 251 251 252 252 253 252 253 253 254 255 258 262 266 263 263 263 262 263 263 264 265 265
248 250 250 253 252 253 252 253 254 254 254 254 254 253 251 250 250 250 249 249 249 250 250 251 252 251 251 253 254 256 259 263 267 264 262 261 261 261 262 262 261 263 263

GFSGL_sfc_thetae_036.txt.gz
Theta_e
286 286 285 285 285 285 285 284 284 283 282 281 281 281 280 280 280 280 280 280 280 280 281 280 280 281 281 281 281 281 281 281 279 282 284 285 285 285 287 288 289 290 291
286 285 285 285 285 284 284 283 283 282 281 280 279 279 279 279 279 278 278 279 278 278 278 278 278 279 278 279 279 279 279 280 279 278 280 281 282 284 285 285 286 287 289
285 285 285 285 284 284 283 282 281 280 279 279 278 278 277 277 277 278 278 278 278 278 278 277 277 277 276 277 277 276 277 277 278 278 278 280 281 283 282 284 284 286 288
285 285 284 285 284 283 282 281 280 279 278 277 277 276 276 276 276 277 277 277 278 278 277 277 276 276 275 275 275 275 276 276 276 276 276 277 278 280 282 281 281 285 285
284 284 284 285 284 282 281 279 278 277 277 276 276 275 275 275 275 276 277 277 277 276 276 276 276 275 275 275 275 275 274 274 274 274 274 275 275 276 276 278 278 281 282
284 284 285 284 282 280 278 277 276 275 274 274 273 273 272 273 273 275 276 276 275 275 274 274 274 275 274 275 275 276 276 274 273 273 273 272 273 275 276 276 275 275 274
283 283 282 282 279 278 277 275 274 274 273 273 272 272 272 272 272 275 275 275 274 274 273 273 273 273 274 273 274 275 275 276 277 275 273 273 273 274 275 274 274 275 275
283 282 281 279 278 276 274 274 273 273 272 272 272 271 271 271 272 273 274 274 274 273 273 273 272 273 273 273 273 274 274 275 275 276 276 276 276 277 277 276 276 277 278
281 281 279 278 276 274 273 273 273 272 271 271 271 270 269 269 271 273 273 273 273 273 273 273 273 273 275 276 276 274 275 276 278 279 279 280 280 280 280 278 276 275 273
281 280 279 277 275 273 273 272 272 271 270 270 270 269 268 267 269 271 273 273 272 273 274 274 276 275 277 278 276 275 274 275 276 277 277 278 279 279 279 278 277 273 273
280 278 276 275 273 273 271 271 270 269 268 267 267 268 267 267 268 271 273 273 273 273 274 274 275 276 277 278 277 275 274 276 275 275 275 276 277 277 278 278 278 276 274
277 275 273 271 272 270 268 268 267 267 266 266 266 267 269 268 269 271 273 274 275 274 273 274 275 276 275 275 274 274 275 274 272 272 272 272 273 274 275 276 277 277 278
273 272 270 269 269 268 267 267 267 267 267 268 267 268 268 269 270 271 272 274 275 274 275 275 274 273 272 271 271 271 270 269 269 268 268 269 271 272 273 273 274 275 275
271 269 268 267 267 266 268 268 268 268 268 268 267 267 268 269 270 271 272 273 274 275 274 270 270 269 269 269 267 268 267 267 266 266 267 268 270 270 270 271 271 272 272
270 269 269 268 266 268 267 269 268 269 268 267 267 267 268 269 270 272 274 274 275 275 271 268 266 265 265 266 266 266 266 266 266 266 266 266 267 268 269 271 271 271 270
269 269 269 269 268 268 268 268 269 270 271 272 273 273 273 272 274 273 274 275 274 272 267 264 263 264 263 264 264 264 265 265 266 265 265 266 266 267 268 269 271 270 270
271 269 268 267 268 267 266 266 266 267 268 269 270 271 272 273 273 273 273 274 269 268 263 263 262 263 263 263 264 264 263 265 265 265 265 266 266 267 267 268 269 270 270
267 265 268 268 267 267 266 265 264 263 263 264 265 265 267 269 271 271 272 270 264 263 261 261 261 262 262 262 263 263 263 263 264 264 265 265 266 266 266 267 268 268 269
264 265 265 265 264 264 263 263 262 262 262 261 262 263 263 265 267 269 268 263 261 260 261 260 261 261 261 261 262 262 262 262 263 263 264 265 266 266 266 266 267 267 268
261 260 261 263 262 262 262 261 261 261 260 260 260 261 262 260 261 263 262 260 259 259 260 259 260 260 260 260 261 261 261 262 262 263 264 265 266 267 266 265 266 267 267
262 261 259 260 260 260 260 260 260 260 259 260 260 261 263 261 262 262 261 260 259 259 259 259 259 259 259 259 260 260 260 261 261 262 263 264 265 265 266 266 266 267 268
259 259 259 258 259 259 259 259 259 258 258 258 259 260 263 263 262 261 260 259 259 259 258 258 258 258 259 258 259 259 259 259 260 262 263 263 264 266 266 266 266 267 267
258 258 258 257 257 256 256 257 257 257 258 258 258 258 259 259 259 259 258 258 257 257 258 257 257 257 258 258 259 259 258 258 259 260 260 262 265 265 265 265 265 265 266
258 258 257 257 257 257 257 257 257 256 256 257 257 257 258 258 258 258 257 257 256 256 257 256 256 256 256 256 258 258 259 259 260 260 261 263 265 265 265 265 265 265 266
257 257 257 257 256 256 256 256 256 256 257 257 257 257 258 258 257 256 256 255 255 255 255 255 256 256 256 255 255 255 256 257 257 260 264 266 265 264 264 264 264 265 265
257 257 257 257 257 257 257 257 257 257 257 258 258 258 258 257 256 256 255 254 254 254 255 255 255 254 254 255 256 257 258 261 262 266 266 266 264 264 264 264 264 264 264

GFSGL_sfc_thetae_039.txt.gz
Theta_e
287 287 287 287 287 287 286 286 285 285 284 283 283 282 282 281 281 281 281 281 280 281 281 281 280 281 280 280 281 280 280 280 277 278 281 282 282 282 283 284 285 285 286
287 287 287 287 286 286 285 285 285 284 283 282 281 281 280 280 280 279 279 280 279 279 279 279 279 279 278 278 278 278 277 278 276 274 277 278 279 280 280 280 282 284 284
287 287 286 286 286 286 285 284 284 283 282 281 280 279 279 279 278 279 279 279 279 279 279 278 278 277 277 277 276 276 276 276 276 275 274 277 277 278 278 279 280 281 284
287 286 286 286 286 286 285 284 282 282 281 280 279 279 278 278 277 278 278 278 278 279 279 278 277 276 276 275 275 275 275 275 275 274 273 274 275 276 277 275 275 278 278
286 286 286 286 286 285 284 283 281 280 280 279 278 277 277 276 276 276 277 277 277 277 277 277 277 277 277 276 275 275 274 273 273 272 272 272 273 273 273 275 274 275 276
285 285 286 286 284 283 282 280 279 278 277 277 276 275 275 276 276 276 277 276 276 276 275 276 275 276 276 277 277 277 276 273 272 271 272 271 273 273 274 274 274 273 271
284 284 284 284 282 281 280 279 277 277 277 276 275 275 274 275 276 276 277 276 275 275 275 274 274 275 275 274 275 277 276 277 278 275 273 273 273 274 274 273 274 273 273
284 284 283 282 281 280 278 277 277 277 275 275 274 274 274 274 275 275 275 275 275 275 275 274 274 274 274 275 274 275 275 276 276 276 275 275 276 276 276 276 275 275 276
283 283 282 282 280 279 276 276 276 276 275 274 274 273 272 272 274 274 275 274 274 274 275 275 275 274 276 278 276 274 275 276 279 280 280 280 281 281 281 278 275 273 271
282 283 282 281 279 278 277 276 276 275 275 274 273 273 271 270 273 274 274 273 272 274 275 275 277 277 278 278 276 274 271 272 273 274 275 276 277 277 279 278 276 272 272
282 281 280 280 278 278 276 276 274 273 272 271 271 271 270 270 269 273 274 273 273 273 274 274 275 277 278 278 277 273 271 274 273 270 270 271 273 274 275 276 277 276 273
280 278 277 276 276 275 273 273 272 271 270 269 269 269 271 270 271 272 274 275 276 273 273 274 275 277 276 276 274 274 274 272 268 268 267 268 269 270 272 273 274 274 274
276 275 274 273 274 273 271 270 269 269 269 270 270 270 271 272 271 273 274 275 275 274 274 275 277 274 274 272 272 272 270 268 266 265 265 266 269 270 271 271 272 272 273
274 273 272 270 271 270 271 271 270 271 270 270 270 270 271 271 271 272 272 273 274 275 275 272 271 272 271 270 268 269 268 267 266 266 266 267 268 267 267 269 268 269 269
274 272 272 271 270 270 270 271 270 272 272 271 271 271 269 269 272 273 273 273 273 275 272 268 267 266 266 266 266 266 267 267 266 266 265 265 265 266 266 268 268 268 267
273 272 273 272 271 271 271 270 274 274 274 273 274 271 271 273 275 275 276 275 276 273 268 265 264 264 264 264 264 264 265 265 266 265 264 265 264 265 265 266 267 267 266
274 273 273 271 271 270 270 269 269 272 273 274 274 275 275 275 275 276 275 275 273 269 264 263 263 263 263 264 264 264 263 264 264 264 264 264 264 264 264 265 265 266 265
271 267 271 270 270 270 269 269 268 267 266 267 270 270 270 271 272 273 274 274 267 265 262 261 261 262 262 262 262 262 262 262 262 263 262 262 263 264 264 264 265 264 264
268 268 268 268 268 266 266 266 265 265 264 264 264 266 267 269 270 271 272 267 264 262 261 261 261 261 261 261 261 261 261 261 261 260 261 262 263 263 263 264 264 264 265
264 262 263 265 265 264 264 263 263 263 263 262 262 263 264 260 260 262 264 263 261 260 260 260 260 260 259 259 259 259 259 259 260 260 260 261 262 263 263 263 264 264 264
264 263 259 262 263 262 262 262 262 261 261 261 262 263 266 261 260 262 263 263 261 260 259 259 259 259 258 258 258 258 258 259 259 259 260 260 261 261 262 264 264 264 264
262 261 261 260 260 260 260 261 260 260 260 259 260 261 265 263 263 264 263 263 261 260 258 258 258 258 257 257 257 257 257 257 258 258 259 259 259 261 262 264 264 264 264
260 260 260 259 259 258 258 258 258 258 258 259 259 259 259 260 261 261 261 261 260 259 257 258 257 257 257 256 257 257 257 257 257 258 258 257 258 259 263 263 263 262 263
260 259 259 259 259 258 258 258 258 257 257 257 257 258 258 259 259 259 259 260 259 257 256 257 256 255 255 255 256 256 257 257 257 257 258 258 258 261 264 262 262 262 262
259 259 258 258 258 258 258 258 258 258 258 258 258 258 259 259 259 259 259 258 257 256 255 255 255 254 254 253 253 253 255 257 255 256 256 257 260 264 263 262 261 261 261
259 258 258 258 258 258 257 257 258 258 257 258 258 259 259 259 259 259 258 257 256 255 254 255 254 253 253 253 253 255 255 259 258 260 262 264 264 263 259 257 258 259 259

GFSGL_sfc_thetae_042.txt.gz
Theta_e
284 284 283 283 283 283 282 281 281 280 280 279 279 279 278 278 277 277 277 277 276 276 276 276 276 277 275 275 275 275 275 274 272 274 276 277 277 277 278 279 280 279 280
284 283 283 283 282 281 281 281 280 279 279 278 278 278 278 277 277 276 276 276 276 276 276 276 275 278 275 274 274 273 273 273 272 271 274 274 274 276 276 276 278 279 279
283 283 282 281 281 281 280 280 280 279 278 278 277 277 277 277 276 276 276 276 276 276 276 276 275 275 274 274 273 272 273 274 273 272 272 274 274 274 274 275 276 276 279
283 282 281 281 281 280 280 279 279 278 277 277 277 276 276 276 276 276 276 276 276 276 277 276 275 275 274 273 273 273 274 273 272 272 271 272 272 274 274 273 273 275 275
283 282 282 281 281 281 280 279 278 278 277 277 276 275 275 275 276 275 276 275 275 275 275 276 275 275 277 277 275 274 273 272 271 271 271 271 271 272 272 274 273 274 274
282 282 281 282 281 280 279 278 277 277 276 275 275 274 273 275 278 277 277 275 276 275 274 275 274 275 275 277 278 278 277 273 271 270 271 272 272 273 274 273 273 272 270
281 280 281 282 281 279 278 277 276 275 275 274 273 273 273 273 278 278 277 276 275 274 274 275 274 275 274 274 275 277 277 278 279 276 273 273 273 274 274 273 273 273 273
282 281 281 281 279 277 277 276 275 274 273 273 272 273 272 273 278 278 277 275 274 274 274 274 274 273 274 274 274 274 275 276 276 277 276 276 276 277 277 277 276 276 277
281 281 281 280 278 277 276 274 274 273 272 271 272 270 270 270 277 277 276 273 273 273 275 274 274 273 276 278 276 273 273 273 276 277 278 279 279 278 277 274 272 271 270
281 282 281 280 279 277 276 273 272 271 273 273 272 270 269 267 275 277 276 273 267 272 273 275 277 276 278 279 276 272 270 270 271 272 270 271 273 273 275 274 273 270 271
279 279 279 279 279 277 273 271 272 269 272 269 269 268 268 268 268 275 277 274 271 270 271 272 274 277 278 279 278 272 270 274 268 265 266 267 268 269 270 272 273 271 268
278 277 276 275 275 274 272 268 269 269 266 265 264 265 268 269 271 273 276 277 276 271 270 273 273 277 278 277 276 275 275 272 263 263 264 264 266 267 269 269 271 271 272
275 273 269 270 271 271 270 268 266 266 267 266 267 266 267 270 269 275 276 276 277 275 274 274 277 277 276 273 272 273 270 264 262 259 263 265 267 268 268 268 269 270 270
270 270 269 270 268 268 269 268 268 266 266 266 267 267 265 266 267 269 270 270 273 274 274 271 271 274 273 271 267 268 267 266 265 264 264 266 266 266 266 267 266 267 266
271 269 269 268 267 266 267 268 268 266 268 263 264 264 263 264 267 271 270 266 267 270 271 265 261 261 261 262 262 263 264 264 263 264 264 263 264 265 264 266 265 265 264
269 269 268 267 265 266 265 264 274 274 275 276 277 269 263 272 274 276 277 277 278 278 267 257 257 259 261 261 260 261 263 263 263 263 262 263 263 263 263 264 265 264 264
266 267 267 267 266 264 263 263 262 267 276 276 277 277 277 277 277 278 278 278 278 277 260 256 260 260 259 260 259 260 262 262 261 262 262 262 262 262 262 262 263 264 263
263 265 265 263 263 262 261 262 261 260 258 260 268 271 272 273 274 274 275 275 271 271 255 258 259 259 257 257 258 260 261 259 259 259 259 259 260 260 261 261 262 262 262
263 262 262 262 260 261 260 259 258 258 257 256 256 263 265 270 271 272 273 270 268 262 259 257 258 257 259 257 254 257 255 256 255 255 256 257 259 260 260 261 261 262 263
259 261 260 260 259 258 258 257 257 256 256 256 255 257 255 253 251 252 255 260 256 259 256 256 256 256 256 256 251 255 253 252 252 250 253 254 258 259 260 260 260 261 262
257 255 258 256 254 254 254 254 256 255 256 253 254 257 266 262 261 255 256 258 258 255 258 258 257 257 256 253 251 253 251 254 251 249 250 255 257 258 258 259 260 262 263
256 254 252 251 253 254 253 255 254 253 252 252 254 255 264 259 257 259 260 261 259 259 260 258 256 256 256 253 253 251 251 251 250 249 251 254 256 256 257 258 260 262 262
254 253 252 252 253 255 254 251 251 251 251 250 251 253 251 251 253 256 258 257 258 259 259 257 257 257 256 254 253 252 253 253 252 248 252 254 255 255 256 257 261 260 261
252 253 255 254 253 252 252 251 251 251 250 250 248 249 253 253 251 254 257 259 259 258 258 258 257 256 256 252 250 250 251 252 249 253 250 254 255 255 256 258 262 260 260
254 255 255 253 250 251 250 249 250 248 248 251 251 252 252 253 254 255 258 259 258 257 257 257 256 256 254 252 252 249 250 255 254 253 250 252 254 254 255 261 259 257 256
256 254 253 252 251 249 248 249 249 249 250 251 252 252 252 254 256 258 257 258 257 257 256 256 255 254 252 252 251 252 253 257 255 254 254 254 256 259 262 260 254 253 254

GFSGL_sfc_thetae_045.txt.gz
Theta_e
284 283 283 283 283 282 282 281 280 280 279 279 279 278 278 277 277 276 276 276 276 276 276 276 276 276 275 274 274 274 274 273 271 273 274 275 275 275 276 276 277 276 277
283 283 282 282 282 281 281 280 279 279 279 278 278 278 277 277 277 276 276 276 275 276 276 276 275 277 274 274 273 273 272 272 271 271 273 273 273 274 274 274 276 277 276
283 282 281 281 281 280 280 279 279 278 278 277 277 277 277 276 276 276 276 276 276 276 276 275 275 275 274 273 273 272 272 274 272 272 271 273 273 274 273 274 275 275 277
282 282 281 280 280 280 279 279 278 278 277 277 276 276 276 276 276 276 276 276 276 276 276 276 275 274 274 273 273 273 274 273 273 272 271 272 273 274 274 273 273 275 275
282 282 281 281 280 279 279 279 278 278 277 276 276 276 275 275 276 275 275 275 275 275 275 276 275 275 277 277 275 274 273 272 272 271 271 272 272 273 272 274 273 274 275
282 282 282 281 281 280 280 279 278 277 277 276 275 274 274 276 279 280 277 275 276 275 274 275 275 274 275 278 278 278 278 273 267 269 272 273 273 273 274 274 273 272 271
282 282 282 282 281 280 280 279 277 277 275 274 274 274 273 274 280 280 280 276 275 274 274 274 275 275 274 274 275 277 277 278 279 277 273 273 272 273 273 273 273 273 272
282 282 282 282 281 279 278 278 277 276 274 274 273 273 273 273 279 280 280 276 274 274 274 274 274 274 274 274 273 273 274 275 276 276 274 274 274 275 273 273 272 271 272
282 281 281 282 281 279 278 277 276 275 273 273 272 271 271 271 279 280 279 274 274 273 274 274 274 273 276 278 275 273 272 273 276 277 277 277 276 276 275 271 267 267 267
282 282 282 282 281 279 279 276 273 274 274 273 273 271 271 269 277 279 279 274 269 272 272 274 276 276 278 279 276 271 268 270 272 269 268 270 271 271 273 271 269 266 266
281 281 280 280 280 279 277 274 271 272 272 270 271 271 269 270 269 278 279 275 272 269 270 271 273 277 278 278 279 274 269 274 265 262 264 266 267 268 269 270 270 268 266
278 278 277 277 277 275 274 269 270 271 271 270 268 267 268 269 272 275 278 279 278 270 269 272 273 277 278 278 278 277 277 274 260 259 261 263 265 266 268 268 269 269 270
275 274 273 271 273 272 271 270 269 270 270 269 268 268 267 269 269 275 277 278 278 276 274 274 277 278 279 277 274 275 272 264 260 257 261 264 266 267 267 267 268 268 268
272 269 269 271 269 268 272 271 270 269 268 267 266 266 263 266 268 268 270 270 274 275 275 272 274 276 275 274 268 269 268 265 264 263 264 265 266 265 264 266 264 265 264
270 269 269 268 268 267 267 266 268 265 268 262 261 262 261 262 266 271 268 264 264 269 269 261 262 265 264 265 263 263 264 264 262 263 263 263 263 263 263 264 264 263 262
270 269 268 267 265 266 265 264 273 273 275 276 276 268 265 272 275 276 277 277 278 278 273 270 265 266 265 265 262 262 263 263 263 262 258 260 261 261 261 262 263 262 261
268 267 266 266 265 264 263 263 262 266 276 278 278 278 278 278 278 278 279 279 279 278 274 274 265 264 264 264 262 262 262 262 261 258 259 259 260 259 259 260 261 261 261
262 266 266 265 265 263 262 261 261 260 260 262 269 270 272 273 274 275 275 275 270 270 266 261 263 262 262 262 262 260 261 259 257 256 256 254 254 257 258 258 259 259 260
264 263 262 261 261 261 261 260 259 259 260 258 255 262 263 268 269 270 270 257 256 259 261 261 261 261 261 260 259 258 257 256 253 250 249 249 252 253 257 257 259 259 259
260 261 260 259 258 258 259 258 259 258 255 253 253 254 253 252 251 251 250 249 252 255 257 258 259 260 259 258 258 257 255 254 250 248 249 249 251 252 257 257 258 257 258
257 257 258 256 256 255 256 257 255 252 253 251 252 255 266 257 255 252 252 251 253 256 258 253 257 258 258 258 257 256 255 255 251 248 247 247 249 251 254 257 256 257 258
255 254 254 254 254 256 252 253 252 252 251 251 253 254 264 253 251 250 250 251 254 253 254 256 256 255 258 258 257 256 255 254 250 245 248 249 248 251 252 255 255 256 259
255 254 254 253 252 252 251 249 250 250 250 249 250 252 249 249 250 251 252 252 252 253 252 256 256 256 258 258 258 256 255 254 251 247 248 248 248 250 248 253 254 255 259
255 256 253 250 251 251 251 252 254 252 249 249 247 248 251 250 250 250 251 252 252 251 250 253 256 257 258 258 256 253 252 251 246 247 247 249 251 251 251 254 255 256 258
251 251 252 252 254 254 253 250 249 247 247 249 250 249 250 250 251 251 251 252 253 252 251 251 254 256 256 255 255 253 249 254 252 249 245 245 249 250 252 254 255 258 255
254 256 255 254 252 251 247 248 249 249 249 250 250 249 250 250 251 251 252 252 252 251 250 250 252 253 253 254 253 252 252 256 253 252 250 248 250 252 253 255 258 259 257

GFSGL_sfc_thetae_048.txt.gz
Theta_e
284 284 283 283 283 282 281 280 280 279 279 279 279 278 278 277 277 277 276 276 276 276 276 276 276 276 274 274 274 274 274 273 271 273 273 274 274 274 275 275 276 276 276
284 283 283 282 282 281 280 280 279 279 279 279 278 278 277 277 277 276 276 276 275 276 276 275 275 277 274 274 273 273 272 272 271 270 273 273 273 274 274 274 276 277 276
282 282 281 281 281 280 280 279 279 279 278 278 278 277 277 277 276 276 276 276 276 276 276 275 275 275 274 273 273 272 272 274 272 271 271 273 273 274 274 275 275 276 277
282 281 281 281 281 281 280 279 279 279 278 277 277 277 277 276 277 276 276 276 276 276 276 276 275 274 274 273 273 273 273 272 272 271 271 272 273 274 275 273 273 275 275
282 281 281 281 281 280 280 279 279 278 278 278 277 276 277 276 277 276 276 275 275 275 275 276 275 275 277 277 275 273 273 271 272 271 271 272 272 273 272 273 272 273 274
282 281 281 281 280 280 280 279 279 278 277 277 277 276 275 276 280 281 277 275 275 275 274 274 275 274 276 279 279 280 278 270 260 267 272 273 272 272 272 272 272 270 268
282 282 281 281 281 281 280 279 278 278 277 276 276 276 275 274 282 282 282 276 275 274 274 274 275 275 274 273 276 278 278 278 279 277 274 272 272 272 273 271 271 270 269
282 282 282 281 281 280 280 279 278 278 277 276 276 275 274 275 281 283 282 276 275 275 274 274 274 274 274 273 273 272 273 274 275 276 275 274 274 275 274 272 270 268 269
282 282 282 282 281 280 279 279 279 278 276 276 276 274 273 273 281 282 281 275 275 274 274 274 273 273 275 278 275 271 273 274 278 279 279 278 277 277 274 270 264 264 264
282 282 283 283 282 280 281 280 279 278 277 275 275 273 272 271 279 282 281 275 270 273 273 274 276 275 277 278 275 273 270 271 272 267 268 270 271 270 272 270 268 263 264
284 284 282 282 282 282 281 279 275 276 274 272 272 271 270 270 271 280 282 276 274 270 271 271 273 277 278 279 280 276 274 273 267 262 262 265 267 267 268 269 269 267 265
281 280 280 281 281 281 279 273 272 273 272 270 269 268 270 269 273 277 280 281 279 270 270 272 272 277 278 279 279 279 280 277 260 257 258 263 264 265 267 268 268 268 269
279 278 277 277 276 276 275 271 269 270 272 271 271 271 267 269 270 277 278 279 280 277 276 275 277 278 279 279 280 279 274 266 260 257 259 263 265 267 267 266 267 267 267
275 274 272 274 271 270 272 272 272 271 271 270 268 268 264 266 268 268 269 270 275 276 276 272 274 278 278 276 271 273 270 267 266 262 263 265 266 265 263 265 263 263 262
271 270 270 270 270 268 268 268 269 265 269 263 264 265 263 263 266 271 269 266 265 269 269 260 261 265 267 268 265 265 267 266 264 263 261 262 263 263 262 263 262 261 260
270 270 269 270 266 267 266 264 274 273 276 277 275 268 263 272 275 276 277 278 279 279 275 270 268 267 267 268 268 266 265 264 264 263 261 261 261 260 260 260 260 259 259
268 267 266 266 266 265 263 265 264 267 277 277 278 279 278 274 277 278 278 278 278 278 272 269 269 267 266 267 267 265 264 264 264 262 261 260 260 258 257 257 258 259 258
262 266 266 264 264 263 263 262 262 263 263 261 269 271 273 273 273 274 275 273 259 259 257 254 257 261 263 265 265 264 263 261 261 260 259 257 255 252 255 255 256 256 257
263 262 262 262 262 263 262 261 260 259 256 256 257 264 263 268 268 269 269 253 251 250 250 251 252 255 259 259 260 260 258 258 257 257 255 253 253 248 250 254 256 257 257
260 262 261 261 260 260 261 260 258 258 256 258 257 256 255 255 252 251 250 249 247 247 248 248 251 253 256 256 255 255 255 255 257 256 254 253 252 248 252 253 255 255 256
259 259 259 258 258 257 257 257 257 255 254 252 254 257 264 254 253 251 249 248 247 249 251 250 251 252 254 255 255 255 255 256 257 256 254 252 250 245 248 254 255 254 255
256 255 255 254 255 255 254 256 254 253 251 252 253 255 263 255 250 249 247 247 249 249 251 252 252 250 251 252 255 256 256 256 257 256 251 252 246 244 246 250 252 253 254
255 254 253 251 254 255 254 251 249 249 251 253 255 255 252 250 248 247 248 248 248 250 251 248 251 252 251 251 254 257 256 256 257 254 252 249 243 245 244 247 250 252 253
254 255 256 255 255 255 252 249 252 253 252 250 248 247 250 249 248 248 249 249 249 250 250 249 251 252 251 250 251 252 255 255 253 252 250 246 247 246 245 246 249 252 254
253 254 253 253 251 251 251 249 250 248 248 249 249 249 248 247 248 248 249 249 250 250 251 251 251 251 252 252 251 250 251 256 255 250 245 244 246 244 243 245 250 252 253
254 254 253 252 251 251 250 250 249 248 248 249 249 247 247 248 249 249 249 249 250 251 251 251 250 251 251 251 250 252 253 257 253 251 248 247 246 246 246 248 249 253 255

GFSGL_sfc_thetae_051.txt.gz
Theta_e
285 285 283 282 282 282 281 280 279 279 279 279 279 279 279 278 277 277 277 277 276 276 276 276 276 276 274 274 274 274 274 273 271 272 273 273 273 274 275 276 276 276 277
284 283 282 282 281 281 280 279 279 279 279 279 279 279 278 278 278 277 276 276 276 276 276 275 275 276 274 274 273 273 273 272 271 270 272 272 273 274 274 274 276 278 277
283 283 281 281 281 280 280 279 280 279 279 279 279 278 278 278 278 277 277 277 276 276 276 275 275 275 274 273 272 272 272 273 272 271 271 273 273 274 274 275 275 275 276
282 282 281 281 281 281 280 280 279 279 279 279 278 278 278 278 278 277 277 276 276 276 276 276 275 274 274 273 273 272 273 272 272 271 271 272 273 274 274 273 272 274 274
282 282 282 282 282 281 280 280 280 279 279 279 278 278 278 277 278 277 277 276 275 275 275 276 275 275 278 276 274 273 273 271 271 271 271 272 272 273 272 272 271 273 272
282 282 282 282 281 281 280 279 279 279 278 278 277 277 276 277 281 282 278 276 275 275 274 274 275 275 277 280 281 281 278 270 263 263 272 272 273 273 272 272 272 270 267
282 282 282 282 281 281 280 279 279 278 278 277 277 277 276 277 282 284 283 276 275 275 274 275 275 275 274 274 277 279 279 280 280 276 274 274 273 273 273 272 271 269 268
282 281 281 281 281 280 280 279 279 278 277 277 277 277 277 276 282 284 284 277 275 275 274 274 274 274 274 273 273 272 273 273 274 275 275 275 275 275 276 274 270 267 268
281 282 282 282 281 280 280 279 279 278 277 278 278 277 277 277 282 283 283 277 276 275 275 274 274 273 276 278 275 271 272 273 277 280 281 281 280 278 277 271 263 260 263
282 282 282 282 282 280 280 280 280 279 279 278 278 278 277 277 281 283 283 277 273 274 274 274 277 275 277 279 275 270 270 272 273 271 272 272 273 271 273 270 268 262 263
283 283 282 282 282 282 281 281 280 279 278 277 277 276 275 274 274 282 283 276 275 271 273 273 274 278 279 280 280 275 273 275 273 272 268 267 267 268 268 269 269 267 264
283 282 282 283 283 283 283 281 280 279 277 276 274 272 272 272 274 279 282 283 280 272 272 273 273 278 279 280 280 280 281 280 268 262 261 263 265 265 267 268 269 268 268
283 283 283 283 283 282 281 278 276 276 275 273 273 273 271 270 270 279 279 282 282 279 276 275 278 279 280 280 281 281 279 270 266 264 265 264 265 267 267 267 267 267 266
281 279 277 278 275 276 277 276 275 274 274 274 272 272 265 267 268 269 270 270 275 276 276 270 274 278 279 278 273 274 274 270 268 267 266 266 266 264 263 264 263 263 261
275 273 274 274 274 272 272 273 273 269 273 267 266 267 265 264 267 272 269 263 260 267 269 260 262 264 267 266 266 266 268 266 266 266 265 263 263 263 262 262 261 259 258
272 272 272 272 271 270 269 267 275 274 278 277 276 270 264 273 275 276 277 278 278 279 274 269 267 267 267 267 268 268 266 266 267 266 264 262 261 260 260 260 260 257 257
272 270 268 268 268 267 266 268 267 269 277 278 278 278 276 273 277 278 278 278 277 272 264 258 258 260 263 264 265 266 266 266 266 265 263 261 259 257 256 256 258 258 256
268 269 269 267 267 266 266 265 266 267 266 262 272 274 276 275 274 274 274 267 257 258 254 253 254 255 256 256 258 261 261 262 262 261 260 258 257 255 251 255 256 253 253
266 264 263 262 261 263 262 262 261 261 261 258 257 263 262 270 270 270 267 253 251 251 251 251 250 249 251 252 255 255 256 258 257 256 255 256 255 253 249 254 255 255 255
261 262 261 261 260 260 261 260 259 259 258 257 255 255 253 255 252 250 249 248 247 247 246 246 247 246 247 248 251 249 250 250 253 255 255 256 255 254 254 253 252 252 250
259 259 259 258 258 257 257 258 258 257 256 253 255 258 262 252 250 249 249 247 247 246 246 245 247 245 246 247 247 247 247 251 251 256 255 254 253 252 253 253 249 248 253
256 255 256 255 255 256 255 256 256 256 255 256 253 254 265 253 249 248 247 246 246 245 246 245 246 247 248 248 249 250 251 251 250 256 254 254 254 252 250 248 246 248 251
256 255 254 252 254 254 253 251 252 252 250 250 252 253 250 248 248 247 247 246 245 246 246 244 245 248 248 247 249 252 254 252 252 253 254 253 252 251 246 243 244 243 247
254 254 254 252 252 252 252 249 250 252 252 251 249 248 251 249 247 248 246 246 245 245 245 245 247 248 249 249 247 249 251 252 248 250 252 253 252 247 242 242 244 245 249
252 253 252 252 252 253 254 253 253 250 250 253 250 249 248 246 246 245 245 245 245 245 248 249 249 249 250 250 250 248 248 254 252 251 248 249 247 242 242 242 243 245 248
252 252 251 251 252 250 252 253 252 253 253 253 251 248 247 247 247 247 247 246 248 249 249 250 249 249 249 250 250 251 252 256 254 252 249 246 245 245 243 243 243 247 249

GFSGL_sfc_thetae_054.txt.gz
Theta_e
288 287 287 285 285 284 283 282 280 280 279 279 279 279 279 278 278 278 278 278 277 277 277 277 276 276 275 274 274 274 273 273 271 272 273 273 273 274 275 275 276 276 277
286 285 286 284 284 283 282 281 279 279 279 279 279 279 279 279 278 278 278 277 277 276 276 276 275 276 274 274 273 273 273 273 272 270 271 272 272 273 274 274 276 277 276
285 284 283 283 283 283 281 279 279 279 279 279 279 279 279 279 278 278 278 278 277 277 277 276 275 274 273 273 272 272 272 274 272 271 270 272 273 274 274 275 275 275 276
284 283 283 283 283 282 281 280 279 279 279 279 279 279 279 279 279 279 278 277 277 278 277 276 275 274 274 273 273 272 273 271 271 271 271 271 272 274 274 272 272 274 274
284 283 283 283 283 282 280 280 280 279 279 279 279 279 279 278 278 278 278 277 277 276 276 276 276 276 278 276 274 273 272 271 271 270 271 271 272 272 272 273 271 272 273
283 283 283 281 281 280 280 280 279 279 279 279 278 278 277 278 282 283 279 277 277 276 275 275 275 276 278 281 281 281 276 270 262 264 271 271 272 273 273 272 271 271 268
283 282 281 281 281 281 281 280 279 279 279 278 278 277 277 278 283 284 283 277 277 275 275 275 275 275 275 274 278 281 281 282 281 274 273 273 273 273 273 272 272 271 269
282 282 281 281 281 281 280 279 279 279 278 278 277 278 278 278 284 285 285 277 276 276 275 275 275 275 275 274 273 273 273 273 274 275 275 274 274 275 275 275 271 266 268
282 281 281 282 281 280 280 279 279 278 278 278 278 278 278 278 283 284 284 280 278 276 276 275 275 275 277 280 276 271 272 273 277 280 281 281 282 283 279 272 262 256 263
281 281 282 282 281 280 281 279 279 279 279 278 278 279 278 279 282 284 284 280 278 277 276 276 278 276 278 280 276 271 270 272 272 271 273 275 276 272 275 272 269 262 262
281 281 281 282 281 282 281 281 279 279 278 278 278 278 279 279 279 284 286 280 279 277 276 274 275 280 281 282 282 275 273 275 274 276 272 270 269 269 269 269 269 268 264
280 280 280 281 282 282 281 280 280 280 279 278 278 277 277 277 278 281 285 285 282 276 275 275 274 279 280 281 280 281 282 281 278 265 265 266 266 267 268 268 269 269 268
281 281 282 282 282 282 282 281 280 281 280 279 277 277 276 273 274 281 281 283 284 281 277 276 278 279 280 280 281 281 280 275 271 263 264 267 268 268 268 267 267 266 266
282 282 282 282 282 283 283 282 282 280 278 277 275 276 275 271 271 272 273 276 278 278 276 270 274 277 279 278 272 274 274 273 271 271 270 269 267 266 265 265 262 262 259
279 277 279 279 280 278 277 278 278 276 279 277 276 276 270 269 271 273 272 268 266 268 263 259 261 263 264 266 267 267 266 266 266 268 268 267 266 265 264 263 262 257 255
274 275 275 275 274 274 272 271 277 277 280 279 278 273 267 274 277 278 278 277 276 277 263 260 262 263 264 264 263 263 264 264 264 263 266 264 264 263 262 261 259 255 257
274 273 273 272 272 271 271 272 271 275 280 280 279 278 276 276 278 279 279 279 277 272 262 258 258 259 258 259 259 259 260 261 261 263 263 262 262 261 259 257 256 258 257
271 270 270 269 270 269 270 270 270 271 270 270 278 278 279 279 279 278 278 270 257 257 251 251 251 251 253 254 254 255 256 256 257 257 258 257 256 258 254 251 256 256 256
269 267 265 264 264 265 265 265 264 265 265 261 262 266 266 275 275 273 267 254 251 250 247 248 247 248 249 248 249 250 250 250 251 250 250 252 252 252 247 253 256 257 257
262 263 263 263 262 262 262 261 260 260 260 260 258 256 253 256 252 249 248 247 246 247 246 246 246 244 244 245 246 246 246 246 247 247 248 249 250 252 253 254 255 255 254
259 259 260 259 259 257 257 259 259 258 258 256 254 256 261 254 252 249 248 247 247 246 246 245 244 244 243 243 243 244 244 247 246 246 247 248 249 249 253 255 255 254 251
256 255 255 254 255 256 255 256 256 256 255 255 253 255 268 254 251 250 247 248 246 245 245 245 245 245 246 246 246 245 245 247 245 245 247 248 248 249 252 253 252 251 245
256 255 254 252 254 255 253 251 253 253 251 251 252 254 251 248 248 248 248 247 248 248 248 244 245 246 246 245 246 249 249 250 250 247 249 247 249 251 251 250 248 241 242
255 254 254 252 252 252 251 249 252 254 255 253 251 250 252 249 247 249 248 247 247 247 246 245 246 247 246 246 245 245 247 249 245 248 249 247 246 248 247 242 243 243 245
252 253 253 252 251 252 253 252 252 251 250 252 253 251 251 252 251 247 246 245 245 245 247 247 247 247 248 249 248 246 246 253 250 249 246 245 246 245 242 242 242 242 244
251 252 250 249 249 249 249 251 251 252 252 253 253 254 252 252 252 251 248 245 247 248 248 248 248 248 249 249 249 251 251 255 252 251 249 248 246 245 243 243 242 243 245

GFSGL_sfc_thetae_057.txt.gz
Theta_e
293 292 290 289 289 288 287 285 284 283 282 281 282 281 281 281 281 281 281 281 281 280 280 280 279 280 279 279 279 278 277 278 276 278 278 278 277 278 278 279 279 279 280
292 291 290 289 287 286 285 284 283 282 282 281 281 281 281 281 281 281 280 280 280 279 279 279 278 278 278 278 277 277 277 277 277 275 276 276 276 278 278 278 278 279 279
289 289 288 287 286 286 284 283 282 282 281 281 281 281 281 280 280 281 280 280 280 279 279 278 278 278 277 277 276 276 276 276 276 275 274 276 277 277 277 278 278 278 278
288 287 287 286 286 286 284 283 282 281 280 281 281 281 281 280 280 280 280 280 279 279 279 279 278 278 278 277 276 276 276 275 275 274 274 275 275 277 277 276 276 278 276
287 286 286 285 286 285 283 282 281 281 281 281 280 280 280 280 280 280 279 279 278 278 278 278 278 278 279 279 277 276 276 275 275 274 274 274 275 275 275 276 275 276 276
287 286 286 284 284 283 282 281 280 280 280 280 279 279 279 279 283 283 280 279 278 278 277 277 278 279 280 282 282 280 278 275 273 274 275 274 275 275 276 275 274 273 272
286 286 284 283 283 283 282 281 280 279 279 279 279 279 279 279 284 285 283 279 279 277 277 277 277 277 278 278 281 283 283 284 282 277 276 276 276 276 276 275 274 274 273
285 284 283 283 282 282 281 280 280 280 279 279 279 279 279 279 285 285 284 279 278 278 277 277 277 277 277 276 275 275 276 276 277 278 278 277 277 277 277 277 276 273 272
284 283 283 283 281 281 280 280 280 279 279 279 279 279 279 279 285 286 285 281 278 278 277 277 277 276 278 281 276 274 275 276 278 280 281 282 282 283 283 276 272 269 270
283 283 283 282 281 280 281 280 280 280 280 279 279 279 279 279 285 286 286 283 280 279 278 277 278 278 279 281 279 277 275 276 275 275 276 277 279 278 279 277 273 269 268
281 281 281 282 281 281 281 281 280 279 279 279 278 278 279 280 282 287 287 282 281 280 280 278 278 281 282 282 282 279 277 278 277 278 276 275 275 274 273 273 273 271 268
280 279 279 280 281 281 280 280 280 280 279 278 278 278 279 279 281 285 287 287 284 281 279 279 278 280 282 283 282 282 282 282 281 276 272 272 272 272 272 272 271 271 271
278 278 279 281 281 281 281 280 280 280 279 278 278 278 278 278 279 284 285 287 287 284 280 279 279 281 282 282 282 282 281 279 276 273 271 271 272 272 271 270 270 270 269
279 280 281 281 281 282 282 281 281 280 280 279 279 280 280 277 277 277 280 282 283 284 282 280 281 280 279 278 275 274 273 273 272 272 271 271 270 269 268 269 267 266 264
282 281 281 282 282 281 281 282 281 282 283 282 281 282 280 275 276 278 277 276 276 276 268 269 270 270 270 270 270 270 270 270 269 269 269 268 268 268 267 267 265 263 261
278 279 279 280 279 277 277 275 280 280 283 284 282 280 275 278 280 281 280 279 279 279 268 267 267 268 269 267 266 266 267 266 267 267 266 266 265 265 265 264 263 261 260
277 275 275 275 275 275 274 275 274 277 281 281 281 281 279 278 280 281 281 280 279 279 268 266 266 265 264 264 264 263 263 264 263 264 263 263 263 263 262 261 260 260 259
273 273 273 273 273 273 273 273 274 275 275 276 279 278 278 280 280 280 281 275 266 264 261 262 262 261 261 261 261 260 261 260 261 261 260 260 259 260 259 258 258 257 257
272 270 269 269 269 269 269 270 270 270 270 268 268 272 272 280 279 276 272 264 262 260 257 258 258 257 257 257 257 256 256 258 258 257 257 256 257 257 256 256 257 257 257
266 266 266 266 266 266 266 266 265 266 266 265 264 264 262 266 262 259 256 256 258 257 256 257 254 254 255 255 255 254 255 255 255 255 255 255 256 256 256 254 255 256 256
262 262 262 263 262 261 262 263 263 263 263 261 261 259 263 260 259 257 256 256 257 256 255 254 253 253 252 252 252 253 253 255 253 253 253 254 254 254 254 256 256 255 255
259 258 257 257 258 259 257 258 259 259 258 258 258 259 270 258 257 257 257 255 254 253 253 253 253 253 253 252 253 253 252 253 253 252 253 252 253 254 254 254 254 254 253
259 258 256 254 256 256 255 254 256 256 256 256 256 257 256 256 256 256 255 253 252 253 252 251 252 252 251 249 251 253 253 253 254 253 253 253 252 253 253 253 253 251 250
256 256 256 254 254 254 254 253 254 253 254 253 254 255 257 255 254 255 254 254 253 253 252 252 251 251 252 250 250 249 250 252 251 251 252 252 252 251 252 251 250 249 249
253 253 253 252 251 252 252 252 253 251 251 253 252 253 254 254 254 254 254 253 253 253 254 252 251 251 252 251 251 249 248 253 253 250 249 250 250 249 249 249 249 249 248
252 252 249 250 249 248 248 250 249 250 249 251 251 251 253 254 254 254 254 252 252 253 253 253 252 251 251 251 251 252 251 255 252 251 251 250 250 249 248 247 247 247 248

GFSGL_sfc_thetae_060.txt.gz
Theta_e
302 303 302 302 299 298 296 297 294 291 287 285 284 285 284 284 288 288 287 287 286 285 285 285 284 283 282 281 282 282 282 283 282 282 282 283 282 282 283 284 283 283 283
301 301 300 300 298 296 295 295 292 289 286 284 284 283 284 284 286 287 285 285 285 284 284 283 282 281 281 281 281 281 282 282 282 280 281 281 281 282 282 282 281 282 282
300 299 299 298 296 294 293 293 290 288 285 283 283 282 283 283 285 286 285 285 285 284 283 282 281 281 280 280 280 281 281 279 280 279 279 280 280 281 281 282 282 283 282
298 297 297 297 295 293 292 290 288 286 284 283 282 283 283 283 284 284 284 284 284 283 283 282 281 280 280 280 280 281 280 280 279 278 278 278 280 280 280 279 280 282 281
296 296 296 296 295 292 289 287 285 285 283 282 282 282 282 282 283 283 283 283 282 282 281 281 281 281 282 282 280 281 279 279 279 278 278 278 278 279 278 280 278 279 280
295 294 295 294 291 289 287 286 283 283 283 282 281 281 281 281 284 285 283 282 282 281 280 279 280 280 281 282 283 282 281 280 279 279 279 278 279 279 280 278 278 277 276
292 292 291 290 288 287 286 284 282 282 282 281 281 281 280 281 285 285 284 281 281 281 280 279 279 279 281 280 283 283 283 282 282 280 278 279 279 280 280 278 277 278 277
290 289 289 287 287 286 285 283 282 282 281 281 280 281 281 281 286 286 283 281 281 280 280 280 280 280 279 278 278 279 280 281 282 283 283 282 282 280 279 279 279 278 278
288 288 288 287 286 285 284 283 282 281 281 281 281 280 280 280 286 286 283 281 281 280 280 280 281 280 280 282 279 278 278 279 280 281 282 283 283 283 283 281 278 276 275
287 288 288 287 285 284 284 284 284 282 281 280 280 281 281 281 286 286 283 282 281 280 279 279 281 280 282 282 281 280 278 279 279 279 278 279 281 281 282 281 279 276 275
286 286 285 285 284 285 284 284 283 281 280 279 279 279 280 282 284 286 286 284 285 283 282 281 281 283 284 284 283 281 281 281 280 280 280 279 279 278 278 278 278 276 273
284 284 284 284 284 284 283 282 282 281 279 279 279 279 280 280 284 286 287 287 287 285 283 283 282 283 284 285 284 284 284 284 283 282 280 278 277 276 276 276 275 274 274
282 281 282 283 283 283 282 281 281 281 280 279 279 279 279 279 281 286 287 288 288 284 284 283 283 283 283 283 284 284 282 282 281 278 277 276 276 275 274 273 273 272 271
280 281 282 282 282 283 283 283 282 282 281 280 280 280 280 279 280 282 284 286 286 286 286 284 283 282 282 282 280 279 278 277 276 276 275 275 274 273 271 271 269 269 267
282 281 282 282 283 282 283 283 282 283 284 282 283 283 282 281 281 282 283 283 284 285 280 280 280 279 277 276 276 275 275 274 274 274 272 272 271 270 269 269 268 266 264
281 282 282 282 282 282 281 279 284 284 285 286 286 285 284 285 284 284 284 284 284 283 276 277 276 276 276 275 274 273 272 270 271 270 269 269 268 267 267 267 266 265 263
282 281 281 280 280 279 279 279 278 281 284 284 284 284 283 282 282 283 284 283 283 282 276 276 277 275 275 273 272 271 270 269 267 267 267 266 266 265 264 264 264 263 263
280 279 281 280 281 280 280 280 281 280 279 279 280 280 280 280 281 282 282 281 277 277 275 274 273 272 271 270 268 267 267 266 265 265 265 264 263 263 263 262 262 261 261
279 278 278 278 278 278 278 278 279 279 279 276 277 276 278 281 281 282 280 275 274 272 269 270 270 268 267 266 265 264 264 264 264 263 263 262 262 261 261 261 261 259 259
272 272 275 275 274 275 275 275 275 275 275 274 276 275 273 274 274 270 268 268 270 270 267 267 265 264 264 263 263 262 262 260 261 261 261 261 261 261 260 260 259 259 260
271 270 270 272 273 273 273 273 273 273 273 273 272 269 268 274 270 269 267 266 267 266 264 264 262 262 261 261 261 261 260 262 261 260 260 260 260 259 259 260 260 259 258
268 268 269 268 269 269 269 270 270 271 270 269 267 268 271 268 267 266 265 264 263 263 263 262 261 261 260 260 260 260 260 259 260 259 259 258 258 259 258 258 258 258 258
267 266 266 265 265 263 266 266 267 268 267 267 266 266 266 265 264 264 263 262 260 260 259 259 260 259 259 258 259 260 260 259 260 260 258 258 258 258 258 258 258 256 256
265 266 265 264 265 265 265 264 263 262 264 264 264 264 264 263 263 262 261 261 260 259 259 258 258 258 259 258 258 257 257 258 259 258 257 258 257 257 257 257 256 255 254
263 263 263 263 263 263 263 262 262 262 262 262 262 262 262 261 260 260 260 259 258 259 258 257 257 257 257 256 257 257 257 257 257 256 256 256 256 256 255 255 255 255 254
260 260 260 260 260 260 260 261 260 260 260 261 260 260 260 260 260 260 259 258 258 257 258 258 258 257 257 257 257 257 256 257 255 254 256 255 255 255 255 253 253 253 253

GFSGL_sfc_thetae_063.txt.gz
Theta_e
306 306 306 307 308 308 307 305 303 300 295 292 290 287 287 288 288 289 288 288 288 287 287 286 285 285 283 283 283 283 283 283 283 281 282 283 282 282 282 283 284 283 283
305 305 305 306 305 304 304 302 299 296 292 291 289 288 287 286 286 287 286 286 286 285 285 284 283 282 282 282 282 282 282 282 282 281 282 281 281 283 282 281 281 282 282
304 303 303 303 303 302 302 300 297 293 290 290 288 287 285 284 285 286 285 285 285 285 284 283 281 282 281 281 281 281 281 280 281 280 280 280 280 281 280 281 281 282 283
303 302 301 302 301 301 301 298 294 291 289 287 286 285 284 284 284 284 284 284 284 284 283 283 281 281 281 280 280 281 281 280 280 279 278 279 279 280 280 278 279 281 280
301 300 300 301 301 300 298 296 292 290 288 286 285 284 283 283 283 283 283 283 283 282 282 282 282 282 284 282 281 281 281 280 280 279 278 278 278 279 278 279 278 279 279
300 299 300 298 296 295 293 290 288 287 285 284 283 283 282 282 287 287 284 282 282 281 280 281 281 282 283 284 284 284 282 281 280 280 279 278 279 279 280 279 278 277 275
297 295 293 293 292 292 290 287 286 285 284 283 282 282 282 282 287 287 286 282 281 281 280 280 280 282 281 281 283 284 283 284 284 281 279 279 279 280 280 279 278 277 276
293 292 291 291 290 289 287 286 285 284 283 282 282 282 282 282 287 287 285 282 281 281 281 280 281 281 281 280 280 280 281 281 282 282 281 281 282 281 280 279 277 277 279
291 290 290 290 288 287 285 285 284 284 283 282 283 282 282 281 287 287 283 282 281 281 281 281 283 282 283 283 279 279 279 279 282 284 284 284 284 284 283 281 279 278 276
289 289 289 288 287 286 286 285 285 284 283 282 281 282 282 281 287 286 283 282 280 280 281 280 282 283 285 285 281 279 277 278 279 278 279 280 281 281 282 280 279 276 275
287 287 287 287 286 286 285 285 284 283 281 280 280 281 281 283 285 286 284 282 281 281 280 279 280 284 285 286 285 281 280 281 281 279 278 278 279 278 278 278 278 275 272
285 284 284 284 285 285 284 283 283 281 280 279 278 278 280 282 284 286 285 284 284 282 282 283 282 284 285 287 286 285 285 283 281 280 280 280 277 277 277 276 275 274 274
282 281 283 283 284 284 283 282 281 281 279 278 278 278 278 280 283 286 287 286 286 284 285 285 285 286 286 286 287 286 283 283 281 280 279 277 277 275 274 273 273 272 272
281 281 282 282 282 283 283 283 282 281 280 279 279 279 279 279 280 283 285 286 285 286 285 285 285 284 284 284 281 282 281 280 279 277 276 275 274 272 271 270 268 268 265
281 281 283 282 283 282 282 283 282 283 283 281 281 281 279 278 279 282 284 284 285 286 285 284 283 281 280 279 278 277 277 274 274 274 272 271 271 270 269 268 267 264 262
280 281 281 283 283 282 282 282 285 285 285 286 286 285 284 285 284 284 284 285 286 286 280 279 279 279 278 277 276 274 274 272 272 271 269 269 268 267 266 266 265 262 260
283 282 283 282 282 281 281 281 280 283 286 286 286 286 286 285 286 286 286 286 287 286 279 280 279 278 277 277 275 274 272 270 267 268 267 267 266 264 263 262 263 262 260
283 282 283 282 282 281 282 282 282 280 279 278 281 282 283 282 284 285 285 286 282 283 279 277 276 277 275 273 271 269 268 266 266 266 265 264 263 263 262 261 260 258 257
281 280 281 282 281 281 281 280 281 281 280 277 276 277 279 282 282 283 283 279 278 275 274 274 274 273 271 269 268 267 267 266 265 263 262 262 262 261 258 258 259 258 257
274 275 278 278 278 278 278 278 278 278 277 276 277 276 274 275 275 271 272 273 273 273 270 269 268 267 266 265 265 264 263 261 260 260 261 261 261 260 258 255 256 256 256
273 272 274 275 275 276 276 275 275 275 275 275 273 272 273 276 274 271 268 268 268 267 266 266 263 263 263 263 263 262 262 262 262 261 261 260 259 258 256 258 256 255 254
271 271 271 271 272 271 271 272 273 272 272 271 268 271 272 270 269 267 266 265 263 263 263 263 262 262 261 261 261 261 260 260 261 259 259 258 258 256 254 256 255 255 254
270 269 269 268 268 268 268 269 269 269 269 269 268 267 268 267 266 265 264 262 261 260 259 259 259 257 258 257 258 259 260 260 260 260 259 257 256 255 254 254 254 252 252
267 267 266 265 265 266 266 266 265 262 265 265 266 266 265 264 263 262 261 260 259 258 258 256 256 256 256 255 256 257 258 258 258 257 256 256 255 254 253 252 252 251 251
264 263 263 263 263 264 264 263 263 263 263 263 262 262 261 261 260 260 259 258 256 257 256 255 255 255 255 254 255 255 257 259 257 257 255 254 253 253 251 250 250 250 250
262 262 262 262 262 261 261 261 261 261 260 260 260 260 259 259 259 259 258 256 255 255 255 256 256 255 254 255 254 256 256 259 256 257 255 255 254 254 253 251 249 249 249

GFSGL_sfc_thetae_066.txt.gz
Theta_e
301 301 301 301 302 304 304 302 302 299 296 295 295 293 292 292 293 295 293 290 291 288 287 286 284 283 282 281 281 281 281 282 280 278 280 281 281 280 280 280 280 280 281
300 301 300 301 301 301 301 301 298 296 291 290 289 290 289 291 291 292 289 290 288 286 285 284 283 282 281 281 281 280 281 281 281 278 279 279 279 280 280 279 280 281 279
300 299 299 299 299 299 298 298 295 292 288 287 287 286 287 288 288 289 289 288 287 286 285 283 282 281 280 280 280 280 280 280 280 280 278 279 279 279 278 279 279 279 281
299 298 297 297 299 299 298 296 293 290 287 286 286 287 287 286 286 287 287 286 285 285 284 283 282 281 280 280 280 280 279 279 279 278 278 278 278 279 278 277 277 279 279
298 297 298 296 297 297 294 292 289 287 287 286 285 285 285 285 285 285 285 285 284 283 282 281 282 282 284 282 281 280 280 279 278 278 277 277 277 277 277 278 277 277 278
297 297 298 294 292 291 290 289 287 286 285 284 284 284 283 284 288 289 286 284 283 282 281 281 282 283 284 285 285 284 282 280 279 278 278 277 278 278 279 278 277 276 273
292 289 289 289 288 289 288 287 285 284 282 282 283 283 282 283 288 289 287 283 282 282 281 281 281 282 282 283 285 285 284 285 283 281 279 279 278 279 279 278 278 276 275
288 286 285 286 286 285 285 284 283 282 282 281 282 282 283 282 287 289 286 282 282 281 281 281 281 280 281 282 282 281 281 282 282 282 280 280 280 281 280 278 276 274 276
288 287 285 285 284 283 283 282 280 280 280 282 283 283 282 282 287 288 286 282 281 280 281 281 282 281 284 285 281 280 280 280 284 285 285 285 285 285 283 277 275 274 272
286 286 286 284 283 282 282 281 279 278 280 281 282 283 282 282 287 288 285 282 280 279 280 282 284 284 286 286 280 279 277 278 279 279 279 281 283 281 283 279 275 270 271
283 282 282 282 280 280 279 278 278 278 281 280 280 281 281 282 285 288 286 281 280 279 279 279 283 287 287 287 284 280 280 281 281 279 277 277 277 277 277 277 277 274 268
280 280 279 277 280 279 278 275 281 281 279 279 279 278 280 282 285 287 286 284 284 280 280 281 281 287 287 287 286 285 286 284 280 278 277 276 277 276 276 275 274 274 273
276 276 276 277 277 277 277 277 279 280 279 278 277 277 279 281 284 287 286 286 286 282 282 283 284 286 287 287 287 287 285 283 279 278 278 277 276 275 274 272 272 271 271
274 274 274 276 277 276 278 278 277 275 277 278 278 277 278 279 281 283 284 284 284 284 285 285 285 286 287 285 283 285 284 282 281 279 276 275 274 272 269 269 266 265 261
278 277 275 275 275 275 275 276 277 277 279 278 279 279 278 277 280 284 285 284 284 285 284 284 283 282 280 280 279 278 277 276 275 274 272 271 271 269 267 265 264 260 258
278 280 280 280 279 278 278 279 285 284 285 285 285 282 281 282 283 285 286 287 287 287 283 282 281 280 279 278 276 275 274 273 273 271 269 268 267 266 265 263 262 258 257
281 280 280 279 279 279 276 277 279 283 286 286 286 286 285 285 284 285 285 286 287 287 282 280 280 278 278 276 275 274 271 270 267 267 266 264 264 263 262 260 260 260 255
281 281 280 279 279 276 275 278 279 278 276 276 282 283 284 286 286 286 286 285 283 285 276 275 275 276 274 273 272 269 267 264 263 263 262 262 262 262 258 259 261 258 255
278 278 279 278 278 278 276 275 278 278 276 274 274 277 278 282 284 285 286 281 277 273 273 273 274 271 266 265 263 263 263 261 260 260 261 263 261 260 258 259 258 257 256
274 276 277 277 277 277 276 277 277 276 275 275 273 271 271 272 267 265 270 274 274 271 270 270 266 263 261 260 260 260 260 259 262 262 261 260 260 260 258 256 256 256 253
273 273 273 273 273 273 273 272 272 273 272 272 270 273 276 272 268 265 265 266 265 262 259 258 256 255 255 257 257 257 261 260 258 257 257 257 257 255 256 257 255 254 253
270 269 269 268 268 269 269 270 270 270 269 267 266 271 273 268 265 264 262 261 257 256 255 256 254 254 256 260 260 260 258 257 256 256 255 255 255 254 253 253 253 253 253
268 267 267 267 267 267 266 265 266 266 266 266 266 266 265 263 263 262 258 255 254 254 253 254 254 255 255 254 253 254 255 255 254 254 254 253 252 253 253 253 253 252 251
265 265 264 264 263 263 263 262 263 262 262 261 261 261 260 258 257 256 255 253 254 253 253 252 251 251 250 249 248 248 249 250 251 255 255 254 253 254 253 251 252 253 253
263 262 262 261 261 261 261 260 260 259 258 257 254 255 254 254 254 253 252 251 251 251 251 250 249 250 249 249 250 250 252 259 251 254 252 251 251 252 253 251 251 252 252
261 260 260 259 259 259 258 259 257 256 254 254 253 252 251 251 251 251 251 250 250 250 249 249 250 251 252 253 253 254 255 260 257 256 251 252 251 252 251 253 252 252 251

GFSGL_sfc_thetae_069.txt.gz
Theta_e
299 300 300 300 301 301 302 302 301 299 298 296 295 296 298 299 300 301 301 299 297 297 295 292 289 287 286 284 284 283 283 283 280 279 280 282 282 281 281 282 281 281 281
298 299 299 299 299 300 301 301 299 299 296 295 294 293 294 296 296 298 296 295 295 292 290 288 287 285 284 284 284 283 283 282 281 278 279 279 279 280 280 280 280 281 280
298 298 298 298 298 299 300 298 297 295 293 291 291 291 291 292 293 295 295 293 293 292 289 287 286 284 283 282 282 281 281 281 281 280 278 279 279 279 279 279 279 280 280
297 297 297 298 298 299 298 296 295 293 291 290 289 288 288 289 291 292 292 291 290 290 288 287 285 284 283 282 281 281 281 280 280 279 278 278 278 279 279 278 277 279 279
296 296 297 297 296 295 293 292 291 289 289 287 286 285 284 285 288 288 289 288 288 286 285 284 283 283 284 284 282 281 281 280 279 278 277 277 277 278 277 278 277 278 278
295 295 297 293 291 291 290 290 289 287 286 285 285 285 283 286 289 290 288 287 286 284 283 282 282 282 284 285 286 285 283 280 279 278 278 278 278 278 279 278 278 277 275
290 289 289 289 288 289 289 288 287 286 284 285 283 283 283 284 289 290 289 285 285 284 283 282 281 282 283 284 286 286 285 286 284 281 279 279 279 279 279 278 278 277 276
287 286 286 286 286 285 285 286 285 283 283 283 282 281 282 284 288 290 289 284 284 283 283 282 282 282 283 283 283 282 282 283 283 283 282 281 281 281 281 280 279 277 276
286 286 286 284 285 283 283 283 280 279 279 279 279 279 280 283 287 289 288 283 282 282 282 282 282 282 285 286 282 281 281 281 285 285 284 284 284 284 283 278 273 271 272
285 285 285 285 284 284 283 279 278 277 279 280 279 278 280 283 286 288 288 282 280 280 281 282 283 283 286 286 282 282 280 281 280 280 281 284 285 285 286 280 277 271 270
283 283 282 282 280 279 277 278 277 276 278 279 281 281 282 282 284 288 289 282 281 279 280 281 282 286 286 287 285 282 282 281 281 279 279 279 279 278 278 278 278 274 269
279 280 280 277 279 278 275 276 280 280 280 279 279 279 279 281 284 287 288 284 283 280 279 281 283 287 288 289 285 285 286 283 280 280 278 277 277 276 277 275 275 274 274
277 279 276 273 275 274 275 281 280 280 279 278 278 278 278 280 282 287 288 285 285 282 282 282 285 288 289 288 288 287 285 282 279 278 277 277 278 278 276 273 272 272 271
276 276 274 274 273 272 278 278 279 279 278 277 277 277 278 279 279 284 284 284 285 282 283 283 284 286 287 286 284 286 284 284 280 279 278 277 275 273 272 271 268 267 263
277 275 272 273 272 273 275 275 275 274 278 278 278 277 277 276 278 283 284 283 283 283 282 283 282 283 283 283 281 282 281 280 280 278 276 273 272 271 270 269 267 261 259
275 278 277 279 278 277 277 279 283 283 284 283 283 280 279 281 283 285 286 285 285 286 283 281 281 282 281 280 279 277 277 277 277 275 274 273 271 270 268 266 262 260 259
274 280 279 278 278 278 277 278 278 282 285 285 286 284 283 283 284 285 287 287 287 287 282 281 281 281 280 278 278 277 275 275 274 273 272 270 268 268 265 263 264 262 255
281 280 279 279 279 278 278 278 278 276 276 276 282 284 286 286 285 285 286 286 283 285 281 281 281 279 278 277 276 273 270 270 269 268 267 267 265 264 262 263 262 255 253
278 278 278 278 277 277 277 277 277 276 274 274 274 277 277 285 285 286 286 282 279 278 275 273 273 272 272 272 271 269 267 266 264 263 259 261 262 263 261 261 261 259 255
275 277 277 277 277 277 276 276 276 275 275 273 272 272 273 273 271 271 273 276 274 273 273 272 271 268 263 262 262 263 263 262 260 259 261 264 263 262 259 257 257 255 254
273 272 273 272 272 273 273 273 273 273 271 270 270 274 277 268 267 266 266 266 266 265 263 263 262 262 259 258 257 257 257 261 262 262 261 261 258 254 255 259 257 256 254
270 269 269 269 269 269 269 269 269 268 267 267 267 269 272 266 265 263 262 260 258 257 255 255 254 254 255 257 259 260 259 260 259 258 256 255 254 253 254 254 255 255 253
268 267 267 266 266 266 265 265 265 265 264 264 264 263 263 262 261 259 256 255 255 254 252 252 253 253 254 255 256 257 258 256 256 254 254 253 252 253 253 254 253 251 251
265 265 264 264 264 263 263 262 262 262 261 260 259 259 260 258 256 255 253 252 252 250 250 249 250 250 249 248 247 246 247 248 248 253 254 254 254 255 254 251 253 253 252
263 262 262 262 262 261 261 260 260 259 258 259 258 257 255 255 253 251 250 249 248 249 250 248 248 248 248 248 247 247 247 257 249 252 254 255 254 253 254 253 253 251 251
261 261 260 260 259 259 259 258 258 258 258 257 257 254 253 252 251 249 248 248 249 249 248 248 247 248 249 250 250 252 254 259 256 256 252 254 254 254 253 252 253 251 252

GFSGL_sfc_thetae_072.txt.gz
Theta_e
298 298 298 299 300 301 302 303 303 301 299 299 298 300 301 302 303 303 304 303 300 300 298 297 295 296 292 291 290 289 285 284 282 280 281 282 283 282 282 283 282 282 282
298 298 298 299 299 299 301 302 299 300 297 298 296 296 297 300 300 300 301 301 298 298 296 296 295 295 292 290 289 286 285 283 282 279 280 280 281 282 282 282 281 281 281
297 297 297 297 297 298 298 298 296 297 294 293 293 294 293 296 297 297 299 299 296 298 297 294 295 292 289 287 286 285 285 283 282 281 278 279 279 281 279 280 280 280 281
296 296 295 296 297 297 296 296 295 294 294 292 292 293 293 292 292 295 295 296 295 295 294 293 293 288 289 285 284 284 283 283 281 281 278 278 278 279 280 278 278 280 279
294 294 295 296 295 294 293 292 291 291 293 291 290 290 290 289 290 289 291 293 292 292 291 290 290 288 288 286 285 283 284 284 281 279 278 277 277 278 278 278 278 279 279
291 290 292 291 290 290 289 289 289 288 288 287 286 288 286 288 291 292 291 289 289 289 287 286 286 284 286 287 288 287 287 283 281 280 278 278 278 279 279 279 278 277 276
286 287 287 286 286 287 288 287 287 287 286 285 285 284 285 285 290 291 291 288 288 288 287 284 283 284 284 285 287 287 287 287 286 282 280 280 279 279 280 279 279 278 277
284 284 284 285 285 285 284 285 285 285 284 284 284 283 284 283 289 290 290 287 285 286 285 284 283 282 284 284 284 283 283 284 284 283 284 283 282 281 282 282 280 279 278
285 284 283 283 284 284 284 283 282 280 278 279 280 281 280 281 288 289 289 286 284 283 283 283 283 282 285 286 283 282 281 282 285 286 285 285 286 285 283 280 276 275 273
284 284 283 282 281 282 283 283 281 277 280 279 279 282 282 282 286 288 288 285 283 281 282 282 283 283 286 287 283 281 280 281 282 283 283 284 284 285 285 281 278 275 274
282 281 281 281 280 279 278 277 275 275 277 280 281 281 282 282 283 287 288 284 282 280 280 280 282 286 287 287 285 282 283 283 284 282 281 281 282 282 282 281 280 278 273
279 279 279 278 280 281 273 273 275 280 280 280 280 279 280 280 283 285 288 287 284 280 280 281 282 286 287 288 285 286 288 284 282 279 279 278 278 278 278 278 278 276 275
276 277 277 276 278 276 276 279 280 280 279 278 278 278 278 279 281 285 287 287 284 281 281 282 284 286 287 288 287 287 284 281 280 278 277 277 278 278 277 275 274 273 271
273 274 274 275 275 274 279 279 280 279 278 278 278 278 278 279 280 282 284 284 283 282 283 283 284 285 286 286 284 285 284 281 279 279 278 278 277 276 274 273 270 268 266
273 273 274 272 271 274 274 274 274 275 278 276 277 278 277 277 279 283 284 282 282 281 280 281 282 282 283 282 282 283 283 282 280 280 278 275 275 274 272 271 269 266 265
277 279 279 273 274 277 278 279 283 283 283 283 283 278 275 281 283 285 286 285 284 284 279 278 279 279 279 280 279 278 279 279 280 278 277 275 273 272 271 269 266 265 264
277 276 278 277 278 277 277 277 275 281 285 286 285 284 283 282 283 285 286 286 286 285 278 280 280 280 279 279 279 278 277 277 275 276 275 274 273 272 269 267 266 264 263
273 279 277 277 279 278 278 278 278 277 276 276 280 282 286 285 284 285 286 286 283 284 278 278 279 280 278 278 277 276 274 273 272 271 271 271 269 268 265 266 265 263 263
274 274 277 277 278 278 277 277 276 275 274 274 275 278 277 283 284 285 286 282 279 278 278 277 278 277 276 275 274 273 272 270 268 267 265 265 265 265 263 265 265 263 260
273 276 277 277 276 276 276 276 275 274 272 272 273 273 273 274 272 272 273 274 273 273 273 272 271 270 268 265 262 262 261 261 260 262 261 263 263 265 263 262 262 259 258
270 272 273 272 272 273 273 273 272 271 270 269 271 275 275 269 267 267 266 265 266 267 267 266 264 263 261 259 258 259 260 261 260 260 260 261 260 257 259 261 257 255 253
270 270 270 269 269 269 269 269 269 268 268 267 266 267 271 265 264 263 262 260 259 259 258 255 254 254 255 255 256 257 257 257 257 258 258 257 256 253 253 252 253 252 250
268 268 267 266 267 267 266 266 266 266 265 264 264 264 263 262 262 261 259 258 258 257 256 255 255 253 252 252 253 255 256 255 256 253 252 251 250 250 249 250 250 250 251
265 265 265 265 264 264 264 263 263 263 262 261 260 260 260 259 258 258 258 257 257 255 254 254 252 250 249 247 244 244 246 247 245 248 249 248 248 249 251 251 254 255 256
263 263 262 262 262 261 261 261 260 259 259 259 258 258 257 258 257 255 254 254 253 253 253 251 248 248 248 248 247 246 246 253 247 247 246 249 250 252 253 254 254 253 254
261 261 260 260 260 259 258 258 257 257 257 257 257 256 256 256 255 255 252 252 252 251 249 248 248 248 248 248 248 250 251 257 253 253 248 251 253 251 252 251 251 251 253

GFSGL_sfc_thetae_075.txt.gz
Theta_e
297 297 297 298 298 299 300 301 300 300 298 298 298 299 300 300 302 304 305 305 304 304 303 300 299 299 298 293 292 291 290 292 291 282 283 283 283 283 283 285 285 284 284
296 297 297 297 297 297 298 299 298 298 297 297 296 296 299 301 302 302 302 302 302 300 300 299 298 298 296 294 292 290 290 291 291 281 280 281 282 283 283 283 283 283 282
294 294 295 295 296 296 296 296 296 296 295 294 294 295 296 298 299 300 301 300 300 301 300 298 298 297 295 295 293 291 290 288 288 283 279 281 281 282 281 282 281 281 282
292 292 293 293 294 295 295 294 294 294 293 293 292 294 294 294 295 298 298 297 298 298 298 298 297 296 295 294 290 289 286 284 285 284 281 280 280 280 281 279 278 280 279
290 290 290 291 291 291 290 290 289 289 291 291 290 290 291 291 293 293 294 294 294 295 294 294 294 294 292 293 289 287 285 285 284 284 280 279 278 278 278 279 279 279 279
287 287 288 287 286 286 286 287 287 287 287 287 287 288 288 290 293 294 293 291 291 291 291 290 290 287 289 291 291 290 287 286 284 283 281 280 279 279 280 279 278 278 276
285 285 285 285 285 285 285 285 285 285 286 285 285 285 286 287 292 293 292 289 288 289 289 289 286 285 285 287 290 290 289 290 290 285 281 280 279 280 280 279 280 280 279
285 284 283 283 283 284 284 284 284 283 283 284 284 283 284 284 290 291 291 288 286 286 287 287 286 284 284 285 285 285 285 286 287 285 283 284 283 282 282 283 281 280 279
284 284 283 282 282 282 282 283 283 282 281 281 281 279 280 281 288 289 289 286 285 285 285 285 285 283 285 287 284 284 283 283 287 287 286 287 287 286 284 281 279 278 275
283 283 282 281 280 280 281 281 279 276 280 279 280 279 278 282 286 287 288 285 285 283 283 283 283 284 285 287 284 283 281 281 282 283 284 286 286 285 286 284 280 277 275
280 280 279 279 278 279 279 276 275 276 277 275 277 278 277 278 283 286 287 285 285 283 281 281 282 286 286 288 287 283 282 283 284 282 282 282 282 283 283 282 281 280 276
278 277 277 277 277 279 275 274 273 274 274 280 279 278 278 278 281 284 286 287 286 281 280 281 282 285 287 288 286 286 286 284 282 281 280 280 280 281 281 280 280 279 279
276 275 276 276 276 276 272 274 278 279 280 280 278 277 277 277 279 283 285 287 287 281 282 282 283 285 287 287 287 287 285 282 280 279 279 279 280 280 278 276 275 274 273
277 276 276 276 276 274 275 275 276 279 279 279 279 278 275 276 280 281 283 285 284 282 282 281 283 284 285 286 284 285 282 282 281 280 279 279 278 277 275 274 272 271 270
276 277 277 279 277 274 274 273 273 273 275 271 274 277 277 278 279 283 284 282 280 280 278 278 279 282 282 282 283 283 282 280 280 279 278 276 276 275 274 273 271 269 269
269 275 278 279 279 274 273 274 282 284 285 285 285 281 275 280 283 284 286 285 284 284 276 275 274 279 281 281 280 281 281 281 280 280 278 276 275 274 272 271 269 269 268
267 271 275 278 278 276 272 273 275 277 285 285 285 285 284 283 283 284 286 286 285 284 276 276 276 277 278 278 278 278 278 278 277 277 275 275 274 273 271 269 268 267 266
266 269 272 276 277 275 274 275 276 274 275 276 279 282 286 284 285 286 286 286 283 282 278 278 278 278 278 277 277 276 275 273 273 274 273 273 272 270 268 268 267 265 265
266 270 274 277 275 276 276 276 276 275 274 274 275 277 276 282 282 281 282 279 277 276 277 276 276 276 276 276 275 274 273 271 270 270 269 267 267 266 265 266 266 265 264
268 271 275 274 272 274 275 275 274 273 272 273 273 272 272 273 271 269 269 271 271 270 270 270 269 268 268 268 268 267 267 266 265 265 264 263 264 265 264 263 263 263 261
269 270 273 272 272 273 274 273 272 271 270 269 269 274 274 268 266 265 264 263 264 264 265 264 264 263 262 262 262 261 260 260 259 260 261 261 261 260 261 264 263 261 259
269 269 270 270 270 270 270 270 270 269 268 267 266 268 270 266 264 263 262 260 260 260 259 260 259 258 258 258 258 259 259 258 257 257 257 257 256 258 258 258 258 255 253
268 267 267 267 267 267 267 267 266 266 265 265 265 264 263 263 262 260 259 258 258 257 257 257 257 256 255 254 254 255 256 255 255 253 254 252 252 252 252 252 251 251 251
265 265 265 264 265 264 264 263 263 263 262 262 261 260 260 259 258 257 256 256 256 254 254 253 252 252 251 249 246 246 247 247 246 248 249 250 248 247 246 246 249 250 253
262 262 262 262 262 262 261 261 260 260 260 259 258 258 257 257 257 256 256 256 256 256 255 254 253 251 250 250 249 248 248 252 247 247 244 246 246 245 246 247 250 253 255
260 260 260 260 260 260 259 259 258 257 257 257 256 256 255 255 255 255 253 253 253 253 253 252 249 249 249 249 249 251 252 257 252 250 246 246 246 246 247 249 251 250 251

GFSGL_sfc_thetae_078.txt.gz
Theta_e
295 295 295 295 296 296 297 298 298 298 298 298 297 297 299 299 300 304 306 307 306 306 306 303 302 303 302 300 297 296 294 294 292 296 285 285 285 285 285 286 286 286 287
293 294 294 294 295 295 295 296 296 296 296 296 296 295 296 298 298 299 301 303 303 302 303 303 303 301 300 301 297 294 294 294 293 292 283 282 283 284 284 284 284 285 284
291 291 292 292 292 293 293 293 293 294 293 293 293 293 294 296 299 301 301 301 301 302 302 300 301 298 297 297 297 293 293 292 292 291 283 282 282 283 282 283 283 283 284
289 288 288 288 289 290 290 290 290 290 290 290 291 291 292 292 295 298 299 299 299 300 300 300 299 297 297 296 295 294 292 290 289 289 283 281 281 282 282 280 280 282 281
287 287 287 287 287 286 286 285 286 286 288 288 287 288 288 289 292 293 294 295 295 296 296 296 296 295 293 296 294 294 290 288 286 286 285 281 280 279 279 281 280 279 280
286 286 286 284 284 284 284 284 284 284 285 285 285 285 286 289 292 294 294 292 291 291 292 292 291 289 291 293 295 295 291 288 286 286 285 282 282 281 281 279 279 277 276
284 284 284 283 283 283 283 283 284 284 283 284 283 284 285 285 290 292 292 290 290 290 290 289 287 287 287 289 291 293 293 292 293 288 286 284 282 281 280 279 279 279 279
283 283 282 282 282 282 281 281 282 283 282 282 283 282 282 283 289 290 290 288 288 288 288 288 288 287 286 286 286 286 287 288 289 289 287 285 284 283 282 282 281 281 279
283 283 282 281 280 280 280 280 281 281 281 281 281 280 279 280 286 288 288 285 286 286 286 286 286 286 286 289 285 285 285 285 288 290 287 287 287 286 284 282 279 278 275
282 282 281 280 278 278 279 279 278 278 280 279 279 278 277 277 283 287 287 285 285 285 284 284 284 286 287 287 286 284 283 282 283 283 284 285 286 285 286 283 281 279 276
279 279 279 278 277 277 277 275 277 277 276 275 278 277 276 276 277 285 287 285 284 284 284 282 282 285 287 287 288 284 283 283 285 283 283 283 283 283 283 282 283 281 277
277 277 276 276 276 278 274 275 273 274 280 281 280 278 276 276 280 283 285 286 287 284 282 281 282 284 286 287 286 287 287 284 283 281 280 280 281 281 281 280 281 280 280
277 278 279 278 276 276 273 274 274 273 279 280 279 277 276 276 275 283 284 285 286 282 282 282 284 285 285 286 287 287 284 282 281 280 279 279 280 280 279 276 275 275 274
270 273 276 277 278 279 274 275 273 272 273 275 275 274 274 274 275 278 282 284 284 282 282 281 283 284 285 285 284 285 282 281 281 280 279 278 278 278 276 275 272 272 270
268 270 271 276 278 280 280 275 275 274 274 273 271 275 277 272 273 283 284 279 279 280 276 275 276 280 281 282 282 281 281 281 280 279 278 277 277 276 274 274 272 271 270
266 269 271 272 274 278 279 278 280 283 285 285 286 285 281 281 283 284 285 285 284 283 277 277 277 278 280 280 280 280 280 280 280 279 278 277 276 275 273 273 271 271 270
263 266 268 270 271 274 277 277 276 277 284 283 283 284 285 284 284 285 285 285 285 281 276 278 277 278 278 278 279 279 278 278 278 279 278 277 276 275 273 271 270 270 268
261 264 265 267 271 274 277 278 276 273 272 273 278 281 285 285 286 284 286 284 281 279 275 276 277 277 278 278 278 277 275 275 275 275 275 275 274 272 270 269 269 267 267
262 264 266 268 271 274 277 276 275 274 274 274 274 277 276 281 280 279 279 274 274 272 272 271 272 272 273 273 273 272 272 271 271 270 269 268 268 267 265 267 267 266 265
263 265 268 270 272 274 274 274 274 273 272 272 273 272 272 272 269 267 267 267 268 267 267 266 266 266 266 267 267 267 267 266 265 265 264 264 264 265 264 263 264 263 262
265 268 270 270 271 273 273 273 272 271 270 269 269 274 273 267 265 264 263 262 262 262 263 263 262 262 262 263 263 263 262 261 261 261 261 261 261 260 262 265 263 262 260
266 268 268 268 269 269 270 270 269 268 267 266 265 267 269 264 263 262 261 260 260 260 260 260 259 258 258 258 259 260 260 259 258 258 258 259 259 260 260 260 259 257 256
265 266 266 266 267 267 266 266 266 265 264 263 263 263 262 261 260 259 258 258 257 257 257 257 257 256 255 255 255 255 257 255 253 252 254 253 253 253 252 252 251 250 250
264 264 264 264 264 264 263 263 263 262 262 261 260 260 260 259 258 257 256 255 255 253 254 255 256 254 253 253 251 249 249 247 245 247 248 248 247 246 246 245 247 247 248
262 262 262 262 261 261 261 261 261 260 260 260 259 259 258 257 256 254 254 254 255 255 255 255 253 251 250 248 247 246 247 250 245 245 243 245 245 243 243 245 246 248 250
260 260 260 260 260 260 259 259 259 258 258 257 256 255 253 253 254 252 251 251 250 250 250 249 248 247 247 247 246 250 252 257 251 249 245 246 245 244 244 245 247 249 251

GFSGL_sfc_thetae_081.txt.gz
Theta_e
294 294 294 295 296 296 297 297 298 299 299 299 300 300 301 302 303 305 307 308 308 309 308 305 305 306 304 304 302 300 299 298 296 300 293 290 287 286 287 288 289 290 291
292 292 292 292 292 292 293 294 295 295 296 296 297 297 298 299 300 300 301 303 303 303 304 304 304 304 302 304 302 300 298 299 296 294 297 285 286 286 287 286 286 288 288
290 290 291 290 290 290 290 290 290 291 291 292 293 294 295 296 297 298 300 301 301 301 301 301 301 301 300 301 300 300 296 296 295 293 294 285 284 284 284 284 285 285 286
289 289 288 288 288 288 288 288 288 288 289 289 290 291 292 293 293 295 297 298 298 299 299 299 299 299 299 299 297 297 295 293 293 292 292 287 283 282 284 281 281 283 283
287 287 287 287 287 286 286 286 286 286 287 288 288 288 289 289 290 292 292 293 293 293 295 296 297 297 294 297 296 295 294 291 292 290 289 285 282 280 280 281 281 281 282
285 285 285 284 284 284 284 284 284 285 285 285 286 286 286 288 290 291 292 291 291 290 290 292 292 289 292 293 295 296 296 291 289 290 288 287 286 283 282 281 280 278 277
284 284 283 283 283 283 283 283 283 283 284 284 284 285 285 286 288 290 290 289 289 290 290 289 289 288 288 290 292 293 293 294 295 291 288 288 287 284 282 281 281 280 279
284 284 283 283 282 282 282 281 282 282 282 282 283 283 283 284 287 288 288 288 288 288 289 289 288 288 288 287 288 287 287 288 289 291 291 289 288 285 284 283 282 282 280
283 283 283 282 281 280 279 280 280 281 281 281 282 281 281 282 285 287 287 286 285 286 287 288 287 287 288 289 287 286 286 286 288 291 292 290 289 288 286 284 281 279 277
282 282 281 280 279 278 279 279 280 279 279 280 280 281 279 280 283 285 286 285 284 284 285 285 285 286 287 288 286 285 284 285 284 284 285 287 288 286 287 284 282 280 277
279 278 278 278 277 277 277 278 277 277 277 277 279 280 279 280 280 284 286 285 284 284 284 284 285 286 286 287 288 285 285 285 285 284 284 284 284 284 284 284 284 283 279
275 275 276 278 279 279 275 276 275 274 275 277 279 281 280 279 280 283 285 286 286 285 285 284 283 285 285 286 286 288 288 285 284 284 282 282 282 282 282 283 283 282 282
271 271 272 274 276 279 279 278 277 277 278 278 279 279 278 279 278 281 283 285 286 285 283 283 285 285 285 284 285 287 285 284 282 281 281 281 281 281 279 277 276 276 275
267 268 270 271 273 274 279 280 279 277 275 277 277 278 277 278 277 278 280 282 283 283 282 281 282 284 284 285 285 284 283 283 282 281 280 279 280 279 277 277 274 274 273
266 268 269 270 271 272 274 277 279 280 278 277 279 279 279 280 278 282 284 282 281 282 279 278 279 281 282 282 282 282 282 282 281 280 280 279 278 278 276 276 274 274 272
263 266 267 267 269 270 272 273 280 282 283 285 286 284 284 284 285 284 285 285 284 284 277 276 277 279 280 281 281 280 281 281 281 280 279 279 278 277 275 274 274 274 272
260 263 264 266 267 268 269 271 273 278 282 285 284 283 285 285 285 285 286 285 285 281 277 278 277 278 279 279 280 280 279 279 281 280 279 279 278 277 275 274 273 273 272
259 261 262 264 265 267 269 271 274 276 274 274 278 281 282 284 285 285 286 284 279 278 276 275 275 276 276 277 277 277 277 277 277 277 278 278 277 276 274 273 272 271 271
260 262 263 264 266 267 270 272 275 275 274 273 274 277 276 279 278 277 277 273 272 270 270 269 269 270 271 271 272 272 272 271 272 272 272 272 272 272 271 271 271 269 269
261 262 264 266 268 269 272 274 274 273 272 272 272 272 272 271 268 266 266 266 266 266 266 265 265 266 266 267 268 268 268 268 267 267 267 268 268 269 268 268 268 267 267
261 263 265 267 268 270 271 273 272 271 269 268 267 272 272 266 264 263 262 262 262 263 263 263 262 263 263 264 265 265 265 264 264 264 264 264 265 265 266 267 265 264 264
263 263 265 265 267 267 268 269 268 267 266 266 265 266 268 264 263 262 261 260 260 260 261 261 259 259 259 259 261 263 262 261 261 261 262 262 262 262 262 262 262 261 261
261 263 264 264 265 266 266 265 265 265 264 263 263 263 262 261 261 260 259 259 258 258 258 258 258 257 257 257 257 258 259 258 257 256 259 259 258 259 258 259 258 257 258
260 262 262 263 264 263 263 263 263 262 262 261 261 261 260 259 258 257 257 257 257 256 256 256 256 256 254 252 253 252 251 251 251 252 253 255 255 253 255 254 255 254 256
259 260 261 261 261 261 262 261 261 261 260 260 259 259 257 257 257 256 255 256 255 255 255 254 253 251 250 248 249 249 249 251 250 249 250 252 252 251 251 253 253 254 254
257 259 259 260 259 259 259 260 259 259 258 258 257 256 256 256 255 255 254 252 252 252 250 250 249 248 249 250 250 251 252 257 253 250 251 253 252 252 251 252 251 254 254

GFSGL_sfc_thetae_084.txt.gz
Theta_e
299 299 299 299 299 299 299 299 298 299 299 300 301 302 303 304 305 306 307 308 308 308 309 308 307 308 307 307 306 304 303 302 298 302 305 301 293 290 289 290 291 291 293
296 297 297 297 297 297 296 296 296 296 296 296 297 298 299 300 301 301 302 303 304 303 304 304 304 305 305 305 305 303 302 302 299 297 300 301 289 289 290 287 288 289 290
294 294 294 294 294 294 293 293 293 293 294 295 294 294 295 296 297 298 299 300 301 302 302 300 300 300 299 300 301 301 302 300 300 297 297 300 289 286 286 286 286 286 287
293 293 293 293 292 292 292 292 292 292 292 293 293 293 294 294 294 295 296 297 298 298 299 299 298 297 297 298 298 297 297 297 297 295 295 295 289 284 286 284 282 285 284
292 292 291 291 291 291 290 290 290 290 290 290 290 291 292 292 292 292 292 293 293 293 294 294 295 294 292 295 296 296 296 294 294 293 292 293 289 281 281 284 284 283 283
290 290 289 289 288 289 288 287 288 288 288 289 289 289 289 290 290 290 290 291 290 290 290 291 292 290 291 293 294 294 295 293 290 291 292 290 290 289 286 284 282 280 279
289 289 287 287 287 287 286 286 286 287 287 286 287 287 287 289 288 289 289 289 289 289 289 289 289 290 288 290 291 292 292 293 294 292 289 290 290 290 286 283 282 281 282
288 287 287 286 285 285 285 285 285 286 285 286 286 286 286 286 287 288 288 288 289 289 290 288 288 288 289 289 289 288 288 289 289 289 289 289 290 290 287 286 283 284 284
286 285 284 284 283 283 282 283 284 284 284 285 285 285 284 285 286 287 287 287 287 287 288 289 289 289 289 289 287 286 286 287 289 290 290 291 292 292 288 285 283 281 279
283 282 282 282 281 280 281 281 283 283 282 283 283 284 284 284 286 286 286 286 284 285 287 287 286 288 288 288 286 285 284 285 286 286 286 287 288 288 289 285 284 281 280
280 280 279 280 280 281 282 282 281 280 280 281 281 283 284 285 284 285 285 285 284 284 284 284 286 287 287 287 287 285 285 286 286 285 285 285 285 285 285 285 285 284 280
277 276 275 275 277 279 279 280 281 281 279 279 280 282 284 285 284 284 285 285 285 283 283 285 286 286 286 287 286 287 287 287 285 285 284 284 284 284 283 284 284 283 283
272 271 272 273 274 276 277 277 279 281 280 279 279 279 280 283 284 284 284 284 285 284 285 284 285 285 285 285 285 286 285 285 285 284 283 282 282 281 280 278 277 277 276
268 269 271 272 273 274 276 277 278 279 280 279 278 279 281 283 284 285 284 285 285 284 284 284 284 284 285 284 284 285 285 285 284 283 281 281 282 280 279 279 277 277 274
267 268 270 271 272 272 273 275 276 278 279 279 280 281 281 282 285 285 285 285 285 284 283 284 284 284 283 284 284 284 284 284 283 282 281 281 280 278 277 278 277 277 275
265 268 269 268 270 271 272 273 276 278 280 282 284 284 285 284 285 286 285 286 285 284 282 282 282 282 282 282 282 282 283 282 282 282 282 281 280 279 277 277 277 277 275
263 265 267 267 268 269 270 271 271 275 279 281 282 285 284 285 286 285 286 286 284 283 281 281 280 280 281 281 281 281 280 281 283 282 282 281 280 279 279 277 276 276 274
262 263 265 267 268 268 269 270 271 272 274 278 281 281 281 280 281 283 286 283 279 277 276 275 275 276 276 277 277 278 278 279 279 279 279 279 279 278 277 277 276 275 274
263 265 266 267 267 268 269 271 272 274 277 277 277 278 277 278 276 276 276 274 273 271 272 271 271 272 273 274 274 274 274 273 274 275 275 275 275 276 274 274 274 272 272
264 264 264 266 267 269 271 272 274 276 274 273 273 272 273 273 270 268 268 268 269 268 269 268 268 269 269 270 271 271 271 271 271 271 271 271 272 272 272 272 272 271 271
264 265 265 267 269 269 270 272 274 273 271 270 269 272 271 268 267 266 265 265 265 265 266 266 265 265 266 267 268 269 268 268 267 268 268 268 269 269 269 270 269 268 268
265 265 266 267 268 269 269 270 270 270 269 268 267 267 269 266 265 265 264 263 263 263 263 263 263 262 261 262 263 266 265 265 265 266 266 265 267 267 267 267 267 266 266
264 265 266 267 267 267 268 267 267 267 266 266 265 265 264 264 263 262 262 261 261 261 261 262 262 261 261 260 261 261 262 261 261 261 263 264 264 264 264 265 264 263 264
264 264 264 265 265 266 266 265 265 264 264 264 263 263 262 262 262 261 261 261 261 261 260 260 259 258 258 259 260 260 259 259 258 259 259 261 262 261 262 261 262 260 261
262 263 263 263 263 263 264 263 263 263 263 262 262 262 261 261 261 260 260 259 259 259 259 258 258 258 257 256 256 256 256 254 256 254 258 259 259 258 258 259 259 260 259
261 261 262 262 262 262 262 262 262 262 261 261 260 260 260 260 260 259 259 257 257 257 257 257 257 255 255 256 257 257 255 259 259 254 258 259 259 259 258 258 257 259 259

GFSGL_sfc_thetae_087.txt.gz
Theta_e
300 300 300 300 300 300 299 299 298 299 299 298 298 299 300 300 302 302 303 304 304 305 306 306 305 306 306 306 307 307 305 304 300 302 305 306 296 294 293 293 294 293 294
298 298 297 297 297 297 296 296 297 296 297 297 297 297 297 297 298 298 298 300 300 300 302 303 302 302 302 302 302 303 303 303 301 298 301 302 301 296 295 292 290 290 291
296 296 295 295 294 294 294 294 294 294 294 295 295 295 295 296 295 296 296 296 297 298 298 299 299 299 297 297 298 298 299 300 300 298 297 300 300 289 288 287 287 287 288
294 294 294 293 293 292 292 292 292 292 292 293 293 293 293 293 294 294 294 293 294 295 296 295 295 295 294 294 294 294 295 295 295 295 296 296 297 290 286 287 285 286 287
293 292 292 292 292 291 291 291 290 290 290 291 290 290 291 291 292 291 290 290 290 291 291 292 292 291 289 291 292 292 292 292 292 292 292 293 294 290 284 287 285 288 286
291 290 290 290 289 289 289 288 288 288 289 288 288 288 288 290 291 291 290 288 288 288 288 289 290 288 290 291 291 292 292 290 288 289 289 289 290 291 291 287 286 284 282
290 289 288 288 287 287 286 286 286 286 287 286 287 287 287 288 290 290 289 287 287 287 288 288 288 288 288 288 289 290 290 291 292 290 287 288 288 289 289 288 285 285 284
288 288 286 285 284 284 284 284 285 285 285 285 285 286 286 286 288 288 288 286 286 287 287 287 287 287 288 287 287 286 287 287 288 288 288 288 288 288 287 287 287 285 283
285 285 284 283 282 282 281 282 283 283 283 283 283 283 284 284 287 287 287 285 285 285 286 286 286 286 287 288 286 286 286 286 289 290 291 291 291 290 290 287 284 282 281
282 281 281 281 279 279 280 280 282 282 281 282 281 282 282 283 286 287 287 285 283 283 284 285 285 286 288 288 285 285 283 284 285 285 286 287 287 286 288 286 285 282 280
280 279 278 278 277 277 278 279 279 280 281 281 282 282 282 283 284 286 287 284 283 282 282 283 285 287 287 287 287 285 285 286 286 285 284 285 285 285 284 284 285 284 280
277 275 274 274 275 276 275 276 277 278 278 280 281 282 283 283 284 285 286 286 286 283 283 284 285 286 286 286 285 286 287 286 284 284 284 284 283 282 280 280 279 278 279
271 270 271 272 273 274 275 275 276 278 278 278 280 280 280 282 283 286 287 286 285 284 285 285 285 285 286 285 285 286 284 284 284 282 282 280 280 281 280 279 278 277 275
268 269 271 271 273 274 276 275 276 276 276 277 277 278 279 280 282 284 285 285 284 285 285 284 284 285 286 285 284 284 284 284 282 281 281 281 281 280 278 279 277 276 274
267 269 271 273 273 272 274 274 274 275 276 275 276 277 278 279 282 285 285 285 285 285 284 283 283 283 283 283 283 282 282 283 281 282 281 280 279 278 277 278 278 277 274
266 269 270 269 271 271 272 272 276 277 279 280 281 281 281 284 285 285 286 286 286 285 283 282 281 281 280 280 280 280 281 281 282 282 281 281 280 278 277 277 277 277 274
264 265 267 268 269 270 270 271 270 274 277 279 281 282 283 282 282 283 285 285 283 283 280 279 278 278 278 278 278 278 278 279 280 281 280 280 279 279 278 277 276 276 274
262 264 265 268 269 269 270 270 270 270 271 274 280 280 280 280 279 279 282 283 277 276 275 274 274 274 274 275 274 274 275 274 275 276 276 276 277 277 276 276 275 274 273
264 266 267 267 268 269 269 271 272 273 273 276 276 276 275 277 277 275 276 274 273 271 271 271 271 271 271 272 272 273 272 272 272 272 272 272 272 274 272 273 272 270 272
264 265 265 266 268 269 271 271 272 274 275 273 272 271 271 272 270 268 268 269 269 268 268 268 268 268 268 269 270 269 270 269 269 269 268 269 270 270 270 268 267 269 268
265 266 266 266 269 270 270 271 272 272 272 270 269 270 273 268 267 266 265 265 265 265 265 265 265 264 264 264 266 267 267 267 266 266 266 266 266 265 265 265 264 263 263
265 266 267 267 268 269 269 269 270 270 269 268 268 268 270 267 266 265 264 263 263 263 263 264 263 262 261 261 261 262 263 261 261 261 261 260 261 260 261 261 260 260 260
265 266 266 267 268 267 268 268 267 267 267 267 266 266 265 264 264 264 263 263 263 262 262 262 262 261 261 259 259 258 257 256 255 254 256 257 257 256 257 257 256 256 256
265 265 265 266 266 265 266 266 266 264 265 265 265 264 264 263 263 263 262 262 262 262 261 260 259 258 257 256 257 256 254 254 253 253 252 253 255 255 255 254 255 253 255
263 264 264 264 264 264 264 264 264 263 263 263 263 263 263 263 262 262 262 261 260 260 260 259 258 257 255 253 252 252 253 253 250 251 251 252 252 251 251 252 252 253 253
262 262 262 262 262 262 262 262 263 262 262 262 262 262 261 261 261 261 261 259 259 258 258 257 257 254 254 253 253 254 254 258 256 254 251 253 252 252 251 251 250 252 253

GFSGL_sfc_thetae_090.txt.gz
Theta_e
295 294 294 294 294 293 293 292 292 293 293 293 293 293 294 294 294 294 294 295 295 296 297 297 298 299 300 300 301 301 301 301 298 300 303 304 302 300 298 295 296 296 297
293 293 292 292 292 291 291 291 291 291 291 292 291 292 292 292 292 292 292 292 292 292 293 294 295 297 296 297 297 297 297 298 297 294 297 298 298 299 300 297 294 293 293
292 291 291 290 289 289 289 290 290 289 289 290 290 289 289 290 290 291 291 291 290 290 291 291 292 292 290 291 292 293 293 294 294 292 292 295 296 297 296 290 290 290 289
290 290 289 288 288 288 289 288 288 288 288 288 288 288 288 289 289 290 290 289 288 289 289 290 290 289 288 288 289 289 289 289 289 289 290 291 293 294 286 288 290 289 289
289 288 287 288 288 287 286 286 285 285 286 287 286 285 286 287 288 288 287 286 286 286 286 287 288 288 288 290 289 288 287 287 287 288 288 288 289 289 289 291 287 289 289
287 286 286 285 284 284 283 283 283 283 283 283 283 283 283 287 289 290 289 286 285 284 284 285 286 285 287 289 290 290 289 287 286 286 286 286 287 288 289 288 288 287 285
285 284 284 283 283 282 282 282 281 281 282 281 281 282 282 283 287 288 289 285 284 284 284 284 285 286 286 286 287 288 288 288 289 287 285 286 285 287 286 285 285 285 285
283 283 282 282 281 281 280 280 280 280 280 280 280 280 281 282 286 286 287 285 285 284 284 284 284 285 285 285 285 285 286 286 286 286 286 287 287 287 286 286 285 285 286
282 281 280 280 277 278 275 277 278 279 279 278 280 277 277 279 284 285 285 284 284 283 284 284 284 284 286 287 286 285 284 285 287 288 289 289 289 290 289 285 283 282 282
280 280 279 278 273 273 275 275 276 275 278 279 278 278 277 276 284 285 285 284 282 283 283 284 285 285 287 288 285 284 282 283 284 285 285 286 286 285 286 285 284 281 278
278 277 275 275 272 272 272 273 272 273 275 274 276 277 276 277 279 285 286 284 284 283 282 282 284 286 286 287 287 284 283 286 285 284 284 284 283 280 279 279 279 280 279
274 272 270 267 269 272 265 267 268 269 271 273 274 276 276 277 283 284 285 286 287 284 282 284 284 285 286 287 286 287 286 284 283 281 279 278 278 277 277 277 276 276 276
265 263 263 265 268 268 265 267 269 267 270 272 273 274 276 278 279 283 284 286 287 284 285 285 286 286 287 286 286 285 283 282 276 274 277 276 277 278 279 277 277 277 276
261 263 265 265 266 265 270 270 265 266 270 271 272 274 275 277 278 279 282 282 283 285 284 282 283 286 286 285 283 283 282 282 281 276 276 277 278 278 277 277 276 275 274
262 265 264 265 263 266 268 267 270 270 271 273 275 276 276 276 277 283 284 282 285 285 281 277 279 281 280 280 281 281 281 281 281 279 277 277 278 277 276 276 276 274 272
262 265 264 264 264 267 267 268 273 276 278 279 280 280 280 283 284 282 283 284 286 285 277 275 277 278 277 277 277 277 277 277 277 279 279 279 277 276 276 275 274 272 269
257 261 261 264 263 263 264 265 266 270 275 277 279 281 281 281 281 280 281 283 282 279 271 272 273 274 274 274 273 273 272 273 275 275 275 274 276 276 274 273 273 271 270
254 260 258 259 260 260 261 264 265 266 268 270 276 278 278 277 279 278 278 280 270 271 266 267 270 270 271 271 271 271 271 271 271 271 270 270 271 272 270 269 269 270 266
256 257 257 258 259 261 263 265 268 267 269 270 264 271 270 275 276 274 273 268 265 265 264 267 267 267 268 268 269 268 268 267 267 267 267 267 267 266 264 266 266 266 265
254 258 259 257 258 261 264 267 266 267 271 266 261 261 263 262 259 259 262 263 262 264 264 261 263 264 263 264 265 266 265 265 264 265 265 264 264 261 263 260 260 259 258
254 256 259 258 259 262 262 264 265 268 269 261 260 261 274 258 257 259 259 261 261 262 262 263 263 261 261 260 260 261 259 258 257 257 259 258 258 256 256 258 256 255 254
254 256 256 256 259 261 261 260 262 265 262 259 260 261 270 260 258 258 260 260 261 261 262 261 260 259 259 259 257 258 257 252 251 252 252 253 252 252 253 253 252 254 253
256 256 256 256 258 259 258 259 259 258 258 257 257 258 257 256 257 257 260 260 261 261 261 260 260 258 259 257 258 257 253 251 251 248 248 249 248 248 249 250 250 250 250
255 256 256 256 256 256 256 256 257 258 257 255 254 255 257 256 256 257 260 260 261 261 261 260 259 258 257 256 255 253 252 251 247 247 246 247 248 247 248 247 249 249 250
254 254 255 255 254 254 254 255 255 254 255 256 255 256 256 256 259 260 260 260 260 260 260 260 259 258 257 256 255 253 252 255 249 248 244 246 247 246 246 246 247 248 249
253 253 253 254 254 253 253 253 253 254 254 254 256 259 260 260 261 261 261 260 260 259 259 259 258 258 257 256 255 256 256 259 254 253 247 247 247 247 246 247 247 247 248

GFSGL_sfc_thetae_093.txt.gz
Theta_e
293 292 291 291 291 291 290 290 290 290 290 290 290 290 290 290 290 290 290 291 290 290 290 290 291 292 293 294 295 295 295 294 292 293 296 297 296 297 297 298 297 298 298
291 290 290 290 289 288 288 288 288 288 288 288 288 288 288 288 289 288 288 289 288 287 288 288 289 291 289 290 290 290 291 291 291 288 291 292 292 294 294 294 296 296 296
290 289 288 287 287 287 287 287 287 286 286 287 287 286 286 287 287 287 288 288 287 287 287 287 287 287 286 286 287 288 288 289 288 287 287 289 290 291 291 292 292 293 292
288 287 286 286 286 286 286 285 285 285 285 285 286 286 286 286 286 286 287 287 286 286 286 286 286 285 284 285 286 286 287 286 286 285 285 286 288 289 290 288 288 290 291
286 286 286 285 285 284 283 283 283 283 284 284 284 283 283 284 286 285 285 285 284 285 284 284 284 285 286 287 286 286 286 285 285 284 284 285 285 286 286 288 287 288 288
285 284 284 283 282 282 282 282 282 282 281 281 281 281 281 283 286 287 286 284 285 284 283 284 284 285 286 287 287 288 287 285 284 284 284 283 284 285 286 285 285 283 282
283 282 282 282 281 281 280 280 280 280 280 280 280 280 280 280 285 286 286 284 284 284 283 283 283 284 284 284 286 287 287 288 289 286 284 283 283 285 285 284 284 284 283
282 281 281 280 279 279 278 278 278 278 278 278 278 278 278 280 284 286 286 284 284 284 284 284 283 283 284 284 285 285 285 285 285 286 285 285 285 286 286 284 283 283 284
281 280 279 279 276 276 273 275 276 276 275 274 278 274 274 277 283 285 285 283 283 283 284 284 284 283 285 287 285 283 284 284 286 288 288 288 289 289 286 283 280 280 280
280 279 278 277 274 272 274 273 274 272 276 276 275 274 274 273 281 285 285 283 282 283 284 284 284 285 286 287 284 284 282 282 282 283 284 285 283 280 281 277 276 276 275
278 277 275 274 272 271 270 271 268 267 271 267 270 270 272 274 276 283 284 283 281 283 283 282 284 286 287 287 288 284 284 283 283 282 277 275 274 275 276 275 275 274 273
274 273 271 268 270 270 263 263 264 262 263 266 266 268 272 274 279 281 283 284 285 283 281 283 284 286 287 288 286 286 285 284 276 273 269 271 272 273 275 276 276 275 276
270 267 266 265 266 266 262 263 264 262 262 265 268 268 270 274 275 281 282 283 285 283 284 285 286 286 286 284 285 285 282 282 278 270 274 273 276 277 278 277 277 276 275
266 266 265 264 264 263 268 268 262 262 262 265 266 269 272 273 275 276 278 281 282 283 285 282 282 284 284 283 280 281 280 280 279 275 273 275 276 273 274 275 272 273 270
265 266 265 264 262 264 266 265 267 268 267 268 271 274 274 274 276 283 282 280 281 282 284 269 270 271 273 276 277 275 275 275 275 277 277 275 272 274 274 273 272 269 268
265 266 265 264 263 264 264 264 271 274 276 277 279 279 279 281 282 281 281 281 282 284 278 268 267 270 271 273 272 271 272 272 272 274 274 273 274 274 271 270 268 265 263
263 263 262 264 262 261 261 261 260 267 273 275 278 280 279 279 279 280 280 280 281 276 267 265 266 270 270 271 270 269 268 269 270 270 270 269 270 269 268 267 268 265 262
257 260 258 258 257 257 258 259 258 259 260 264 273 276 276 276 278 278 277 275 267 266 263 263 264 266 267 268 269 268 267 267 268 267 266 265 265 263 262 264 264 261 259
256 255 256 255 256 258 258 258 259 260 261 263 262 268 266 273 273 272 271 258 257 258 259 261 262 263 264 265 266 266 265 265 264 263 260 258 259 258 257 258 260 260 259
253 257 256 255 256 257 258 259 260 260 262 263 259 259 258 259 256 254 254 255 256 256 257 258 258 258 261 261 262 262 261 260 260 259 259 255 255 254 256 254 254 255 253
256 255 259 257 256 257 258 259 260 260 259 259 258 259 273 259 255 253 254 256 260 260 259 256 256 257 260 259 258 259 258 257 256 257 254 250 249 251 250 253 252 251 250
257 257 255 257 257 257 257 259 257 257 257 257 257 258 270 258 255 256 258 259 261 261 261 260 260 259 259 259 258 258 257 256 255 255 252 248 248 248 249 249 249 250 249
256 256 256 255 256 258 257 254 255 255 254 254 255 256 255 254 255 256 258 260 261 262 262 261 261 260 260 259 259 259 257 256 256 250 248 247 246 247 246 247 247 248 248
257 258 258 256 255 254 253 253 253 255 254 253 252 252 254 254 253 255 257 260 260 258 260 261 261 260 260 259 258 257 256 255 254 251 248 248 247 245 245 245 246 247 248
256 256 256 254 253 253 253 253 255 253 252 253 253 252 253 253 254 254 257 260 260 260 261 261 260 260 260 259 258 257 256 258 255 251 245 245 246 244 244 244 245 246 247
253 253 253 253 255 256 256 257 256 254 254 253 253 253 253 254 255 255 257 260 259 260 260 260 260 259 259 259 258 258 258 260 258 255 251 249 248 245 243 245 244 245 247

GFSGL_sfc_thetae_096.txt.gz
Theta_e
292 291 290 289 289 289 288 287 287 288 288 287 287 287 287 287 287 287 287 288 287 286 287 286 287 287 287 288 288 289 289 288 286 287 289 290 290 290 291 292 293 293 295
290 290 289 289 288 287 286 286 286 286 286 286 286 285 286 286 286 285 285 286 285 285 285 285 285 287 285 286 286 285 286 287 286 283 286 287 287 289 289 289 291 292 292
289 288 287 286 286 285 285 285 285 285 284 285 285 284 284 284 284 285 286 286 285 285 285 284 284 284 283 284 284 284 285 286 286 284 284 286 286 287 286 287 288 289 290
287 286 285 285 284 284 284 283 283 283 283 283 283 283 283 283 284 285 285 284 284 285 285 285 284 283 283 284 284 284 285 284 284 284 283 284 285 286 286 285 285 287 286
286 285 284 284 284 283 282 282 281 281 281 281 281 281 281 282 284 283 283 283 284 284 284 284 284 284 285 286 284 284 284 284 284 283 282 283 283 283 282 284 283 284 285
284 284 284 283 281 281 280 280 280 280 280 280 280 280 280 282 285 286 285 283 284 283 283 283 284 284 285 286 286 287 287 284 284 283 282 281 281 282 283 283 282 282 278
283 282 282 281 280 280 280 279 279 279 279 279 279 279 279 279 284 285 285 283 283 283 283 283 283 283 284 284 285 287 287 287 287 285 282 282 282 284 284 283 281 280 279
282 281 280 280 279 278 278 277 277 278 277 277 278 278 277 279 283 285 285 283 283 283 283 283 283 283 284 284 285 284 284 285 284 284 284 284 285 284 282 280 279 277 279
281 280 280 279 277 276 275 275 276 275 275 275 277 274 273 275 282 284 284 281 282 281 282 283 282 283 285 287 284 283 283 283 285 286 287 286 284 283 282 275 273 273 274
280 280 279 277 275 274 275 274 275 273 275 275 274 273 272 269 280 283 283 279 273 281 283 284 283 285 286 288 285 283 281 282 281 277 277 277 279 277 280 274 273 270 271
279 277 276 275 274 274 273 273 270 268 270 266 269 269 268 271 274 282 283 280 280 282 282 282 283 285 287 287 287 280 283 284 281 270 271 273 273 274 274 273 273 273 271
276 274 273 272 275 273 270 268 266 265 265 263 263 266 270 272 277 280 283 284 284 281 281 282 283 286 286 285 284 285 285 283 272 267 267 269 275 273 276 275 274 272 273
273 271 270 271 272 271 268 266 266 262 263 264 266 264 267 272 273 280 281 283 283 281 282 285 286 285 284 282 283 283 280 279 278 277 273 270 272 274 273 272 270 269 270
272 271 270 270 269 267 270 269 263 262 261 263 263 265 266 270 273 274 279 281 281 281 281 283 282 281 281 280 276 275 274 272 273 276 275 271 271 271 270 271 267 271 266
271 270 270 268 268 266 267 265 267 267 266 262 268 271 274 267 272 281 281 280 280 281 282 279 268 267 268 269 269 268 269 269 270 271 268 269 269 270 270 268 267 263 262
270 270 268 267 266 266 265 264 271 273 275 277 278 278 278 280 280 280 281 281 281 282 277 268 263 264 267 268 267 267 266 267 268 267 265 266 267 269 268 266 264 261 260
270 268 266 266 265 264 263 262 261 266 272 275 277 278 278 277 278 279 279 279 279 274 262 259 261 262 263 266 266 265 264 264 263 264 262 264 265 265 264 262 263 262 260
265 265 264 263 263 261 261 259 258 258 259 261 270 274 275 275 276 276 275 270 265 265 261 260 260 263 264 265 265 263 262 262 261 260 259 257 259 258 258 257 258 256 257
262 261 261 260 259 260 259 258 258 259 260 259 260 267 264 272 272 271 269 254 255 257 258 259 259 260 261 262 263 264 263 262 261 257 255 254 255 254 253 254 257 257 256
260 261 259 259 258 257 259 259 260 260 260 259 259 259 257 257 255 252 252 252 253 254 255 255 255 255 256 257 257 259 261 261 259 259 258 257 256 256 257 252 251 253 252
259 258 259 258 258 258 259 260 261 259 259 258 258 260 270 259 254 252 252 252 252 253 253 253 254 254 255 255 258 258 259 259 258 258 258 256 254 252 250 253 251 250 248
259 260 260 259 259 259 258 260 259 259 259 259 259 259 270 258 255 254 253 252 252 252 253 253 253 255 258 257 259 260 260 260 258 258 257 256 255 254 249 249 248 249 248
260 258 258 256 257 258 258 257 257 258 258 257 257 258 255 254 253 253 254 252 252 253 253 253 255 258 259 260 260 260 259 260 259 257 256 254 254 254 247 248 248 246 247
259 259 259 258 257 257 259 258 257 258 258 257 256 256 257 254 254 256 254 253 254 254 255 257 259 259 259 258 259 259 259 258 257 257 255 254 253 252 249 247 247 245 247
260 260 260 259 259 259 257 255 256 257 257 258 258 257 256 255 255 253 253 255 255 256 259 259 260 260 259 259 259 258 259 260 259 257 254 253 253 252 251 250 245 245 246
260 259 259 256 255 255 257 258 259 260 260 259 258 257 256 256 257 254 253 254 256 257 257 256 258 258 258 259 258 259 259 261 259 258 255 254 253 252 250 248 245 245 246

GFSGL_sfc_thetae_099.txt.gz
Theta_e
293 293 293 291 289 288 288 287 287 287 286 286 285 285 285 285 285 285 286 286 285 284 284 284 284 285 284 284 285 285 285 285 282 284 286 287 287 286 287 288 289 288 289
289 289 288 288 287 286 285 285 286 285 285 285 284 284 284 284 284 284 284 284 283 283 283 283 283 284 283 284 284 284 284 285 283 281 284 284 284 286 287 286 287 288 288
288 287 286 286 285 284 284 284 285 285 284 284 283 282 282 283 283 284 284 283 283 283 284 283 283 283 283 283 284 283 284 284 284 282 282 284 285 286 284 285 284 285 286
287 286 284 284 284 284 283 284 283 283 282 281 281 281 282 282 283 283 283 282 282 283 284 284 284 284 283 283 283 283 284 283 283 283 283 283 283 283 284 282 282 285 283
285 284 284 284 283 283 282 282 282 281 281 281 280 280 281 281 284 283 282 282 282 282 284 284 284 284 285 285 284 283 284 283 283 281 281 281 281 281 281 283 282 281 281
284 284 284 283 282 282 281 281 281 280 279 280 279 279 279 281 285 286 284 282 282 282 282 283 284 283 284 286 286 287 287 284 282 282 282 280 281 282 282 280 279 277 276
284 283 282 282 281 281 280 279 279 278 279 278 278 279 278 279 285 285 285 282 281 281 281 282 282 282 283 283 285 287 286 287 287 283 281 281 281 282 280 278 277 275 274
283 282 281 281 280 278 278 278 277 277 277 277 277 278 278 279 283 284 285 282 281 281 281 281 281 281 282 284 285 284 284 283 283 284 283 283 282 281 281 277 274 272 275
282 282 281 279 278 277 275 276 276 276 276 276 277 274 273 275 282 283 283 280 281 281 281 283 281 282 285 287 285 284 279 280 286 285 285 284 284 283 283 273 272 269 270
282 281 280 278 276 275 276 275 275 274 276 276 276 273 272 270 279 282 283 280 273 279 280 283 283 284 285 287 284 281 281 279 282 274 274 276 278 277 280 275 271 265 266
281 279 277 276 275 276 275 274 273 273 274 272 272 272 270 272 274 281 283 280 280 278 281 281 282 285 286 286 286 282 283 282 276 267 269 271 272 272 274 273 275 270 267
279 277 275 274 275 274 272 272 272 272 271 270 269 269 272 272 276 280 283 283 283 281 280 281 283 286 285 285 283 285 283 280 279 276 275 274 274 271 274 273 270 269 270
277 274 272 273 274 273 272 271 271 270 271 270 271 269 269 272 272 279 280 283 282 281 281 281 284 285 284 283 282 281 273 270 274 277 276 275 271 272 271 270 268 267 267
275 272 272 273 273 272 273 272 271 269 269 270 268 268 268 269 270 271 274 280 281 281 281 277 282 281 280 277 272 273 272 270 268 268 268 269 269 269 267 267 265 267 262
274 273 273 273 272 271 272 272 271 270 270 268 267 268 266 265 269 278 277 277 279 280 280 280 276 271 266 267 266 266 266 266 265 266 264 265 266 267 267 265 264 261 260
273 272 272 272 271 271 270 269 274 275 277 278 279 274 272 279 279 279 280 281 281 281 278 274 272 264 265 265 264 264 264 264 264 264 261 262 264 265 267 266 263 259 259
275 273 272 271 270 269 268 268 267 270 275 277 278 279 279 277 277 279 279 279 279 275 265 262 261 262 262 263 262 262 262 262 261 261 260 261 261 261 263 264 264 263 261
275 273 272 271 269 268 267 266 265 265 264 262 271 275 276 276 276 275 275 269 259 259 255 256 256 257 258 259 259 260 260 259 260 260 260 260 260 260 261 261 262 259 258
271 270 270 268 266 265 264 263 262 260 259 258 258 267 264 274 274 272 269 255 255 254 253 253 253 254 255 255 255 255 255 255 257 256 259 259 261 261 260 259 261 261 259
268 266 265 264 262 261 262 262 261 261 261 261 260 261 257 258 257 255 252 252 252 252 253 253 252 251 252 252 252 252 253 255 258 257 259 260 260 260 261 260 259 258 257
265 261 262 259 261 261 261 262 263 261 261 261 261 261 267 262 260 257 257 254 255 256 255 252 251 251 250 250 250 251 254 258 257 257 257 257 258 258 258 259 258 256 254
264 260 259 260 259 260 260 261 261 261 261 261 260 259 272 262 258 257 257 258 256 254 253 252 252 252 252 252 252 253 254 256 255 257 256 257 257 257 256 257 256 255 255
263 261 260 259 261 261 260 259 260 261 261 259 259 260 257 257 258 257 257 255 254 254 254 253 253 253 253 254 255 256 256 256 255 253 253 253 254 255 254 254 254 253 252
263 263 263 263 261 261 262 261 260 260 259 258 257 257 258 258 257 259 258 256 254 252 252 254 254 255 254 254 254 254 255 255 253 254 253 253 252 253 253 252 252 253 254
262 263 264 264 263 262 262 262 260 260 259 259 259 258 258 258 258 259 258 255 255 254 255 255 255 256 256 256 255 254 254 260 255 253 252 252 254 253 253 253 251 251 250
261 262 262 263 262 262 262 261 261 260 258 259 258 258 260 260 260 259 258 254 254 255 255 255 256 256 256 256 256 257 257 261 258 257 253 252 254 254 253 251 250 249 250

GFSGL_sfc_thetae_102.txt.gz
Theta_e
296 296 296 294 293 292 290 288 287 286 285 285 285 285 285 284 284 284 284 284 283 283 283 283 283 284 284 284 285 285 284 284 280 282 284 285 284 285 286 286 286 286 286
294 294 292 291 290 289 287 286 285 284 284 284 284 284 284 284 283 283 283 283 282 282 283 283 283 284 283 284 284 284 284 284 282 280 282 283 284 285 284 283 285 286 285
292 291 289 288 287 286 284 284 284 284 283 282 283 282 282 283 283 283 283 283 282 282 282 281 282 281 280 281 281 283 283 283 282 281 282 284 284 284 283 283 283 282 284
289 289 287 286 285 284 284 283 283 283 282 281 282 282 283 282 283 283 282 282 282 282 283 283 282 281 280 281 282 283 282 280 283 283 281 282 282 283 282 280 279 281 280
286 286 284 283 283 283 282 282 282 281 281 281 281 281 281 282 283 282 282 281 281 281 282 282 282 282 285 285 283 283 281 281 283 282 282 280 280 281 280 280 279 278 279
284 283 283 283 282 282 282 282 281 281 280 280 280 280 280 282 287 287 283 281 282 281 281 281 282 281 283 285 286 287 287 284 283 282 280 279 280 281 280 279 277 275 272
284 283 283 282 282 282 281 280 280 279 279 279 279 279 279 281 286 286 285 282 281 281 281 281 282 282 281 281 285 287 286 287 287 284 280 280 281 280 280 278 276 273 273
284 283 282 282 281 280 279 279 278 278 278 278 278 278 278 281 285 285 285 282 281 281 281 281 281 281 282 282 284 284 284 282 283 284 279 280 279 282 281 279 273 270 272
283 283 282 281 280 279 278 277 277 277 276 276 277 275 276 278 283 284 283 281 282 281 281 282 283 283 284 286 284 283 281 280 284 285 283 283 283 283 283 274 271 263 266
283 283 282 281 279 278 278 276 276 275 276 277 276 275 275 276 280 283 283 281 274 279 280 283 283 284 285 286 283 282 280 278 274 271 272 275 277 276 280 274 275 263 262
284 282 279 279 278 277 276 274 274 274 275 273 274 274 275 275 276 282 283 281 280 279 278 281 281 285 285 285 285 282 282 282 279 274 271 269 271 271 273 272 270 274 263
281 280 278 277 277 276 275 273 273 273 273 272 273 274 274 274 276 281 283 284 283 280 280 281 278 284 286 285 283 284 282 276 279 278 277 276 275 269 272 271 268 267 270
280 279 276 276 275 275 274 273 272 272 273 273 274 274 273 274 275 280 282 283 283 280 281 281 282 284 284 282 282 280 270 266 265 265 271 272 269 270 269 268 266 265 266
280 277 275 275 274 274 275 274 273 273 273 274 273 273 272 273 273 274 276 276 279 279 281 280 278 282 280 277 271 272 270 267 267 265 265 265 266 266 265 265 263 265 263
278 275 275 275 274 273 274 274 274 274 275 274 274 273 272 272 274 277 277 273 271 277 278 275 272 276 274 268 264 264 264 264 263 263 261 261 263 264 265 264 263 262 262
275 275 274 274 274 273 273 272 277 276 277 278 278 275 274 278 280 282 281 281 282 282 278 275 272 273 271 264 263 263 263 262 262 261 259 260 261 262 264 267 264 262 264
277 276 275 274 274 273 272 272 271 274 278 279 280 281 281 279 281 280 280 281 280 279 267 267 271 267 263 263 262 262 261 261 259 259 259 259 260 259 260 264 265 265 265
278 276 275 275 275 274 273 273 273 270 270 270 278 279 281 281 279 279 279 272 268 262 255 259 261 258 258 259 259 259 258 258 258 257 257 256 255 256 260 262 262 260 261
276 275 276 275 273 273 272 270 269 269 269 264 262 271 274 279 278 277 276 261 260 257 255 255 254 256 256 255 255 254 253 254 254 253 253 254 256 257 256 257 259 261 261
275 274 273 272 269 268 269 268 266 266 265 266 265 269 262 262 262 261 255 253 253 255 255 255 254 252 252 253 251 250 251 251 251 251 252 253 254 254 256 255 255 256 257
270 268 269 267 267 267 268 266 266 265 265 265 266 265 268 264 264 262 259 256 257 256 257 256 253 252 251 249 248 249 249 252 251 251 251 252 254 254 253 257 253 252 251
269 267 266 265 266 264 266 264 262 263 263 264 263 262 274 269 263 261 259 258 257 256 256 255 254 253 253 252 252 252 251 252 251 251 252 252 252 253 253 254 254 252 250
265 264 264 262 264 264 263 264 263 263 263 263 262 262 261 263 261 260 260 258 256 255 255 254 255 252 252 252 253 254 254 254 256 253 254 251 252 252 251 251 252 251 250
262 263 263 264 264 264 265 264 264 264 264 263 262 262 263 262 258 260 260 258 256 255 255 257 256 255 254 252 252 252 253 254 253 255 256 254 253 253 254 253 251 251 253
261 262 263 264 263 263 264 264 264 264 264 264 263 262 262 261 260 260 260 259 255 256 258 258 257 257 256 255 254 252 254 259 256 256 254 255 254 254 253 254 254 253 253
258 258 258 258 259 260 263 263 263 263 264 263 263 263 263 262 262 261 260 259 257 258 259 258 257 257 255 255 255 257 257 260 258 259 256 255 255 255 254 254 253 253 253

GFSGL_sfc_thetae_105.txt.gz
Theta_e
304 303 301 299 300 299 297 293 291 290 289 288 288 287 287 287 288 287 287 287 286 286 286 285 285 285 285 286 286 286 285 285 282 284 286 287 287 287 288 288 289 287 288
298 299 298 296 295 293 292 290 289 288 287 287 286 286 286 286 286 286 286 286 285 284 284 285 284 285 284 285 285 285 285 285 283 280 283 285 286 287 287 286 285 286 286
295 295 294 292 292 291 289 288 287 286 286 285 285 285 285 285 285 286 286 285 285 285 284 284 284 284 283 284 284 284 285 285 284 282 283 286 286 286 286 285 285 285 285
293 292 291 290 290 289 287 286 286 285 284 284 284 284 285 285 285 285 284 284 284 285 285 285 284 284 283 284 284 284 284 284 284 284 284 283 284 285 285 282 281 283 282
291 290 289 287 287 286 285 285 284 284 283 283 283 283 284 284 285 284 284 284 284 284 284 284 284 284 284 285 285 285 285 284 284 284 283 282 282 282 280 281 280 281 282
288 288 286 285 285 285 284 284 283 282 282 282 282 282 282 284 287 286 284 283 283 283 283 283 284 283 284 285 286 287 288 285 283 283 282 280 281 281 280 280 279 277 276
286 285 285 284 284 284 283 282 281 281 281 281 281 281 282 284 288 287 285 283 283 283 283 283 283 284 283 283 285 286 286 286 286 285 282 281 281 281 281 279 278 276 277
285 284 284 284 283 282 281 281 280 280 280 280 280 280 281 282 287 287 285 283 283 283 283 283 283 283 284 284 284 285 285 283 284 285 284 283 283 283 282 281 278 275 276
284 284 283 283 282 281 280 279 279 279 279 279 279 279 280 281 286 286 285 283 282 282 282 283 284 283 284 285 285 284 283 284 284 284 284 284 284 283 282 279 277 274 274
284 284 283 283 282 281 280 279 279 279 279 279 278 278 278 279 285 286 284 282 281 281 282 283 283 284 285 286 285 284 282 283 282 279 277 279 279 279 279 277 277 274 272
285 283 282 281 281 281 279 278 277 277 277 277 277 276 276 277 280 285 285 282 281 281 281 282 282 284 285 285 285 284 283 284 281 279 277 277 278 278 278 277 276 276 273
283 282 281 281 280 279 278 276 277 277 276 275 275 275 276 277 278 283 285 285 284 282 281 282 282 283 285 286 285 284 284 279 277 279 279 279 278 276 276 275 274 274 275
282 282 281 279 279 278 277 276 275 276 275 274 275 275 275 276 277 281 284 285 285 282 282 282 282 283 285 285 283 283 273 273 274 274 275 275 275 274 273 274 273 272 271
283 281 279 278 277 277 277 276 276 275 276 275 275 276 277 276 276 277 279 282 283 283 282 282 281 282 282 280 277 276 274 273 273 273 272 272 271 272 272 272 272 271 272
282 279 278 278 277 276 276 276 276 277 278 277 278 278 276 276 277 279 278 278 279 279 278 279 278 278 278 276 273 270 270 270 270 270 269 269 269 269 270 271 269 269 270
278 277 277 276 276 276 275 275 279 278 280 281 280 279 278 279 281 282 282 282 282 282 280 278 278 276 276 277 274 270 269 267 269 268 267 267 268 268 268 270 269 268 269
278 277 277 276 276 275 275 275 274 277 280 281 281 281 280 279 281 282 283 283 283 283 279 278 277 276 275 272 270 269 269 268 265 266 266 266 265 266 266 267 267 267 267
276 276 277 277 276 276 276 276 276 275 275 276 281 281 282 282 281 282 283 282 276 274 270 274 272 271 269 269 267 267 266 265 265 265 264 263 262 263 265 265 265 263 264
277 277 277 277 277 277 276 276 276 276 276 274 271 277 281 282 283 283 282 278 272 271 268 266 265 266 265 265 265 263 263 263 262 261 261 260 261 261 262 263 263 261 262
275 276 276 276 275 274 274 274 273 272 272 271 271 274 270 273 277 277 277 267 266 266 265 265 263 262 262 261 260 260 260 259 259 259 260 260 260 260 261 260 260 261 261
270 270 272 272 273 273 273 272 272 271 270 270 270 270 272 271 273 272 268 264 264 264 264 262 261 260 258 258 257 258 258 260 259 258 259 259 258 259 259 260 259 258 259
268 268 268 269 268 269 269 270 270 269 270 270 269 267 275 271 267 267 266 266 265 264 263 262 260 259 258 257 257 258 258 258 258 258 258 257 258 258 258 258 258 259 258
263 263 263 264 266 267 267 266 267 268 268 268 268 267 266 270 270 268 267 266 264 262 260 258 259 258 256 256 258 259 259 258 258 259 258 257 257 258 257 258 258 257 257
258 259 260 260 260 261 262 265 266 267 267 267 267 266 266 267 267 266 266 264 263 261 260 258 259 260 258 258 258 258 258 259 257 257 258 258 258 257 257 256 256 256 257
256 257 258 259 260 261 262 263 263 264 265 265 265 266 266 266 265 265 264 264 263 261 261 260 260 260 259 259 259 257 257 259 257 257 258 257 257 256 255 256 257 256 256
253 254 255 255 256 256 259 260 261 262 264 264 265 265 265 265 265 265 264 263 262 262 262 262 261 261 260 261 260 260 258 259 258 258 257 257 255 255 255 255 255 256 256

GFSGL_sfc_thetae_108.txt.gz
Theta_e
310 319 320 317 315 311 308 304 301 299 295 294 295 294 293 293 293 292 292 291 291 290 290 290 289 290 289 290 290 290 289 289 286 289 289 290 290 289 290 291 290 289 289
309 312 314 310 303 303 300 298 296 294 294 292 293 292 292 292 292 291 289 290 289 289 289 289 288 288 288 289 289 288 288 288 287 283 287 288 288 289 289 288 288 288 288
305 307 305 303 302 302 296 293 293 291 291 289 291 290 290 290 290 290 289 289 289 289 288 288 287 287 287 288 288 287 288 287 286 285 286 289 288 288 288 288 287 288 288
302 302 302 300 300 296 296 290 290 289 289 288 290 290 289 289 289 289 288 288 288 288 288 288 287 287 287 287 287 287 287 287 285 286 287 286 286 287 286 284 284 286 285
299 299 298 296 295 292 289 290 288 289 287 288 288 288 288 288 288 287 288 288 287 287 287 287 287 286 286 287 287 287 287 286 286 286 285 285 285 284 282 283 282 283 286
297 296 294 290 289 289 288 286 286 285 286 286 286 286 287 286 287 288 287 287 286 285 285 286 286 284 285 286 286 287 288 286 283 284 284 283 283 283 283 282 281 280 280
294 291 289 289 288 286 285 284 284 284 284 284 285 285 286 286 288 287 287 286 285 285 285 285 284 285 285 286 286 286 287 287 286 286 284 284 283 283 282 281 281 280 280
290 289 288 287 287 285 283 283 283 283 283 284 284 284 286 286 288 288 286 285 285 285 285 285 285 285 285 285 285 286 286 285 285 286 286 285 285 285 283 282 281 279 281
288 288 287 287 286 284 283 282 282 282 283 283 283 283 284 285 288 288 285 284 284 283 284 285 285 285 285 286 285 285 285 285 285 284 284 285 285 284 283 282 281 279 279
289 287 287 287 286 284 284 283 283 284 283 282 282 283 284 285 288 288 286 284 283 283 283 284 283 284 285 286 286 285 283 285 286 284 282 282 282 282 280 280 280 278 278
288 287 285 285 285 285 284 283 283 282 281 282 281 281 282 284 286 287 287 284 284 282 283 283 284 285 286 286 286 285 285 286 284 282 280 280 281 282 282 281 280 279 278
287 285 285 285 284 284 283 282 282 281 281 280 280 279 280 280 282 286 287 285 285 283 283 284 284 285 285 286 286 286 285 284 282 281 280 280 281 282 282 280 279 278 279
285 285 284 284 284 284 283 281 281 281 281 279 279 279 278 279 280 283 286 287 286 284 284 284 284 284 284 285 286 285 282 280 280 279 279 281 282 280 277 278 278 277 275
285 284 284 283 283 283 283 282 282 280 280 279 279 280 280 279 279 280 282 285 285 285 284 283 283 283 284 284 282 283 280 279 278 278 279 279 278 277 277 277 276 277 275
285 283 283 283 282 281 282 281 281 282 282 280 281 281 280 279 279 281 282 282 284 284 283 282 281 281 280 281 280 279 277 276 274 276 275 276 275 275 275 276 274 274 273
283 281 282 282 280 280 280 279 282 282 282 284 284 283 283 282 284 283 283 283 283 284 281 279 279 279 279 279 279 278 276 274 275 275 274 274 273 274 274 274 273 272 272
283 281 281 280 280 279 279 279 278 279 281 283 283 283 283 282 283 284 284 283 284 283 280 279 279 280 279 279 280 279 276 275 274 273 273 272 272 272 270 272 272 271 271
281 280 281 280 280 280 279 279 279 278 277 278 282 282 283 284 283 283 284 284 282 283 281 280 280 280 279 279 278 276 275 273 270 271 271 271 270 270 270 270 270 269 269
281 281 280 280 280 280 280 279 279 279 279 279 278 280 283 284 283 283 284 282 281 280 280 276 277 277 276 275 275 274 273 272 271 270 269 268 267 267 267 268 268 265 265
279 278 279 280 279 279 279 278 278 278 278 280 277 279 277 279 280 281 281 282 281 278 277 274 274 273 272 272 272 271 269 268 268 267 267 267 267 266 266 266 266 266 266
276 277 276 278 278 278 278 277 278 278 278 278 278 277 277 277 278 280 281 280 275 275 274 273 272 270 269 269 268 268 267 268 267 266 266 266 265 264 265 266 266 264 264
273 274 274 274 275 274 275 275 275 275 275 274 275 274 277 277 275 277 278 276 274 274 273 272 270 269 267 267 266 266 266 266 266 265 265 264 264 264 264 264 263 263 263
270 270 271 271 271 270 271 272 272 273 273 273 274 273 271 275 275 274 273 273 272 271 270 268 268 267 266 265 266 266 266 265 266 265 264 263 262 263 262 263 262 261 262
267 268 268 269 268 269 269 270 270 269 270 271 272 272 271 271 272 274 272 272 271 270 269 266 266 266 266 264 264 264 265 266 265 264 264 263 263 262 262 261 261 261 261
265 265 266 266 266 267 267 268 268 269 269 269 269 270 270 270 270 271 271 270 269 269 267 266 265 265 265 264 264 263 263 264 263 262 262 262 262 262 261 260 260 260 260
263 263 263 264 264 265 265 266 266 267 267 268 268 268 269 269 269 269 269 268 267 267 267 266 265 264 264 264 264 264 263 263 262 261 261 261 261 261 260 259 259 259 259

GFSGL_sfc_thetae_111.txt.gz
Theta_e
317 323 325 324 324 326 322 319 315 307 302 300 299 299 298 297 296 295 294 293 292 291 292 291 291 291 290 290 291 290 289 289 287 289 289 290 290 289 290 290 290 289 289
313 316 322 321 316 317 312 307 304 302 300 298 297 295 295 294 294 293 291 292 291 290 290 290 289 289 289 290 290 289 289 288 287 285 287 288 288 289 288 288 288 289 288
310 311 315 315 308 308 304 301 298 296 295 294 293 293 292 293 292 292 291 291 290 290 290 289 288 288 287 288 288 288 288 287 286 285 285 288 287 287 286 286 286 286 288
307 308 309 309 308 307 303 298 295 295 292 292 292 291 291 291 291 290 290 289 289 289 290 289 288 288 287 287 287 287 287 286 285 285 285 286 285 285 285 283 282 284 284
304 305 305 305 304 302 298 295 293 293 292 291 290 289 290 289 289 289 289 288 288 287 288 288 288 287 288 289 287 287 287 286 285 285 285 285 284 283 281 282 281 282 283
302 302 303 299 295 293 290 289 289 288 288 286 287 287 287 287 290 290 289 287 287 286 286 286 286 284 286 286 287 287 288 286 284 284 284 283 282 282 282 281 281 279 277
298 295 293 292 290 290 289 287 286 286 285 286 285 286 286 286 290 290 289 287 286 286 285 285 284 284 285 285 286 287 287 288 288 286 283 283 282 282 282 281 281 280 279
294 291 290 289 288 286 285 285 285 284 284 284 284 285 286 285 289 289 287 286 286 285 285 285 284 284 285 285 285 284 285 285 285 285 285 285 284 283 283 282 281 280 280
292 290 289 289 287 285 284 283 283 283 284 284 284 285 285 285 289 288 286 285 284 284 285 285 285 285 286 286 284 284 284 284 286 286 285 285 286 285 284 280 277 279 276
291 290 289 288 287 286 286 285 284 284 284 283 284 284 285 286 289 288 286 284 283 283 283 284 284 285 286 286 284 284 282 283 283 282 283 282 282 282 283 279 277 276 277
290 288 287 286 286 287 286 284 284 284 283 283 283 283 284 285 287 289 287 284 284 283 283 282 284 286 286 286 287 285 284 285 284 282 282 280 280 281 281 280 278 277 275
287 286 285 285 285 285 285 284 284 283 282 282 282 281 281 282 285 288 289 286 286 284 283 284 284 285 286 286 286 287 287 285 283 282 280 279 280 281 282 282 277 276 277
285 284 285 285 285 285 285 283 282 283 282 281 281 280 279 280 282 287 288 288 286 284 284 285 285 285 286 286 286 287 285 283 282 280 278 279 281 281 276 274 274 274 273
285 284 284 284 284 284 284 284 284 282 282 282 280 280 280 279 280 282 284 286 286 285 285 284 284 284 284 284 283 284 284 282 281 279 278 280 279 275 274 275 273 274 271
285 283 284 284 284 283 283 283 282 283 284 282 282 282 281 279 280 281 282 284 285 285 284 283 282 281 281 281 282 282 281 279 276 276 276 276 275 274 273 273 272 270 269
283 283 283 283 282 282 282 281 284 285 284 286 285 284 284 284 284 284 284 285 286 286 283 281 280 280 279 279 279 280 279 277 276 276 276 275 274 273 273 272 271 269 268
283 282 283 281 281 281 281 280 279 281 283 284 285 285 285 284 285 285 284 285 286 286 282 280 280 279 279 279 279 279 279 277 276 275 274 274 273 272 269 269 269 269 267
280 279 281 282 282 281 281 280 280 280 278 278 283 283 284 284 284 285 286 286 283 283 281 280 280 280 280 280 279 279 280 278 275 273 273 272 271 270 267 267 267 265 265
279 281 281 281 281 280 280 280 280 280 279 280 280 281 283 284 284 285 286 283 281 281 281 281 281 281 281 280 279 278 277 276 273 271 272 270 269 267 265 265 266 264 263
279 276 276 280 280 280 280 279 279 279 279 279 280 280 281 281 281 282 282 282 282 282 282 282 280 278 277 277 276 275 275 274 272 271 270 270 268 268 266 264 263 263 260
276 277 272 278 278 279 279 278 278 278 278 279 280 280 281 280 281 281 281 281 281 281 281 279 276 276 274 274 273 273 272 271 270 269 269 268 267 266 266 266 264 261 260
273 274 274 274 274 275 275 275 276 276 276 276 277 277 280 279 278 279 280 281 282 281 279 277 276 275 273 271 271 270 270 269 270 269 268 267 266 266 265 265 265 264 261
270 271 272 272 272 270 272 272 272 273 273 273 274 273 272 274 275 277 277 278 277 275 275 273 273 272 271 270 270 270 269 268 269 268 267 265 265 264 264 264 263 263 262
268 268 268 269 269 268 269 269 270 268 269 269 271 271 272 271 272 273 275 275 274 273 273 272 271 271 270 268 268 268 269 269 269 268 267 265 264 264 264 263 263 262 262
266 265 265 266 265 266 266 267 268 268 268 269 269 269 269 269 269 269 270 271 269 270 270 270 268 268 268 267 266 266 266 268 266 266 265 265 264 263 263 263 262 262 261
263 263 263 264 264 264 264 264 265 266 266 266 267 268 268 268 268 268 268 268 268 267 268 267 266 265 266 266 266 266 265 266 265 263 263 263 262 262 262 261 261 261 260

GFSGL_sfc_thetae_114.txt.gz
Theta_e
315 319 320 322 323 321 325 323 321 310 307 304 303 302 300 298 297 294 292 292 291 290 289 288 288 288 287 288 288 288 287 286 284 285 286 286 286 285 286 286 286 285 285
307 310 313 316 315 317 319 315 308 306 303 303 301 300 299 296 295 293 292 291 289 288 288 288 287 289 287 287 287 286 286 286 286 284 284 284 284 284 284 283 286 287 284
305 305 308 311 313 314 310 306 304 302 301 300 299 298 296 294 293 294 291 290 289 288 288 287 287 287 285 286 286 286 286 287 285 283 282 284 283 282 281 282 282 281 285
303 303 303 304 306 306 304 301 299 298 296 295 295 295 295 292 293 291 290 289 288 288 288 287 287 286 285 285 285 285 286 284 283 282 281 280 279 282 280 279 278 278 279
300 300 300 300 301 300 297 297 294 294 294 293 292 291 291 290 290 289 289 288 287 286 287 287 286 286 287 288 286 285 285 284 283 282 281 279 280 280 280 279 278 277 276
298 297 299 297 294 291 289 289 289 289 290 289 288 288 289 290 292 291 289 287 286 285 285 284 285 285 288 290 290 289 288 285 283 281 281 281 282 281 279 278 280 276 272
293 291 291 289 288 288 287 287 287 286 286 286 286 286 286 286 291 291 289 287 286 285 284 284 284 284 284 285 287 288 288 289 288 284 281 282 281 282 280 278 280 279 278
289 289 287 287 286 285 285 285 285 285 285 285 285 286 286 286 291 291 288 286 285 284 284 284 283 283 283 283 284 284 284 285 285 285 284 283 283 282 281 281 281 279 276
288 288 287 287 284 284 285 284 284 284 283 284 285 285 285 285 291 290 287 284 284 283 284 284 284 283 285 287 284 283 283 284 287 288 287 287 286 287 285 281 272 269 266
287 287 286 286 284 283 283 284 283 284 284 283 284 285 285 285 290 290 286 284 282 282 283 284 284 285 286 287 284 283 282 282 282 281 281 283 283 282 285 280 275 268 266
286 285 283 282 281 282 281 280 281 283 283 283 283 284 285 286 287 289 288 283 283 282 282 282 283 287 287 288 287 284 283 283 284 282 281 279 280 280 280 278 277 274 267
282 281 280 279 281 281 280 279 282 283 283 282 282 282 283 284 287 289 289 286 286 283 282 283 283 286 287 287 286 287 287 285 282 280 278 279 279 279 280 281 280 276 273
279 277 277 278 280 280 280 278 281 283 282 281 281 281 280 281 284 288 289 288 286 284 284 284 285 286 287 287 287 287 284 285 282 280 279 279 280 280 279 277 276 270 269
277 277 277 277 277 278 279 279 278 279 279 281 281 281 280 280 281 284 286 287 286 285 285 284 285 285 286 285 283 285 285 284 282 281 280 279 278 276 276 275 271 270 266
277 276 276 277 275 276 277 276 277 277 279 277 278 281 281 278 280 283 284 284 285 285 284 282 282 282 281 281 281 282 282 281 281 281 279 278 278 275 273 271 270 267 265
277 276 276 275 274 275 275 275 283 284 285 286 286 282 279 284 284 284 285 286 287 287 283 281 280 280 280 280 280 280 281 280 279 277 277 276 275 274 273 270 269 269 267
274 275 274 275 274 274 273 273 272 276 284 283 284 285 286 284 286 285 285 285 286 286 283 282 281 281 280 280 280 279 279 280 279 277 276 276 274 273 272 272 271 268 266
271 273 271 271 272 271 271 271 271 271 271 272 279 283 284 285 286 285 286 285 282 284 283 282 281 281 281 280 279 279 279 279 277 276 275 275 274 273 271 270 269 266 266
270 270 269 269 269 270 270 270 269 269 269 269 272 278 278 284 285 285 286 283 282 282 283 282 282 281 281 281 280 280 279 279 277 275 274 273 273 271 271 270 270 269 265
267 270 269 267 268 268 268 272 275 271 272 271 272 271 271 276 280 280 282 282 282 282 281 282 282 282 282 281 280 279 278 277 275 273 273 272 272 271 270 269 269 267 266
264 266 267 266 267 264 264 265 269 274 275 276 277 277 282 277 277 278 280 281 281 282 282 282 282 281 279 278 277 276 276 276 275 274 272 272 270 269 269 269 268 268 266
262 261 261 261 262 262 261 262 262 262 262 264 266 266 278 275 272 276 278 280 280 282 282 282 282 280 278 276 275 274 274 273 272 272 271 270 269 268 267 267 267 266 265
259 259 259 260 260 261 261 260 260 260 260 261 263 265 264 262 263 265 267 273 272 272 273 274 275 274 273 273 273 273 272 272 272 272 270 269 268 267 267 266 266 265 264
257 257 257 257 258 257 257 258 258 259 259 259 259 261 262 263 264 264 264 264 267 268 267 267 269 271 272 269 269 270 271 271 271 271 270 268 267 266 265 265 264 264 264
256 255 255 255 255 255 256 255 256 256 256 258 258 259 258 260 261 261 262 262 263 264 262 262 262 262 263 266 265 265 267 269 269 268 268 267 266 265 265 264 264 263 263
254 255 255 254 254 253 254 255 255 256 256 258 258 259 260 260 261 261 262 262 262 262 262 261 262 263 264 264 265 265 266 267 267 266 266 265 264 264 264 263 263 263 262

GFSGL_sfc_thetae_117.txt.gz
Theta_e
317 322 323 323 324 325 325 324 325 322 317 316 314 311 309 307 304 301 297 294 294 292 290 289 288 288 287 287 287 287 286 286 284 284 286 287 286 285 285 285 286 284 284
308 311 313 316 315 320 323 325 320 317 313 313 310 308 307 304 301 300 296 296 295 291 290 289 287 288 286 287 286 286 286 286 285 283 284 285 285 284 283 283 285 286 283
302 303 304 306 309 311 314 311 309 307 306 304 304 304 302 301 298 297 298 295 292 293 290 289 288 287 285 286 285 285 286 286 285 282 282 285 285 284 281 281 282 282 284
301 301 300 301 305 307 307 307 304 303 302 301 301 301 300 297 297 295 295 293 291 290 290 289 288 287 286 285 285 285 285 283 283 282 282 283 283 282 279 279 278 279 280
299 299 299 298 300 300 299 298 298 297 297 297 295 295 295 294 295 293 292 291 290 288 288 288 287 286 287 288 286 285 285 283 282 282 282 282 282 281 280 280 279 279 279
297 296 297 296 294 293 291 291 293 292 292 291 291 290 291 293 293 293 291 289 288 287 287 286 286 285 288 289 289 289 287 284 283 282 282 283 283 282 280 279 279 277 276
292 291 291 290 290 289 288 287 287 288 288 288 288 287 288 289 292 292 290 288 288 287 286 285 284 284 285 286 289 290 288 289 288 285 283 283 282 282 281 278 279 279 278
289 289 288 288 287 286 285 285 285 287 287 286 286 286 287 286 292 292 289 287 287 286 286 286 285 284 284 285 285 285 285 286 286 286 285 284 284 283 282 281 280 279 279
287 287 287 286 283 284 281 282 286 285 284 284 285 285 285 285 291 291 288 285 285 284 284 285 284 283 285 287 284 283 283 284 287 288 288 287 287 287 284 281 278 276 274
286 287 286 285 281 281 281 283 284 284 284 283 284 285 285 285 291 291 287 286 285 283 283 284 284 284 286 287 283 282 281 282 283 283 284 286 286 284 287 283 278 273 272
284 283 281 281 280 280 279 278 278 282 283 283 283 284 285 285 287 290 289 285 285 283 283 283 283 287 287 287 287 283 283 284 285 283 282 281 280 280 280 280 280 278 273
280 280 278 276 279 278 275 275 277 283 283 283 283 282 282 283 286 290 290 287 286 284 283 283 283 287 287 288 287 286 287 285 283 283 281 280 279 279 280 280 280 278 279
278 277 275 276 277 276 274 273 275 276 278 281 281 281 280 281 283 288 289 289 287 284 284 284 285 286 287 287 288 288 285 285 283 281 280 281 280 281 280 280 280 280 278
276 276 275 274 274 274 276 276 274 274 274 276 277 280 280 280 281 283 286 287 286 286 285 284 285 285 286 286 284 286 285 285 284 282 282 282 280 278 278 278 277 276 274
276 275 275 274 272 273 275 274 275 274 276 273 273 274 274 274 281 284 286 286 286 286 283 282 283 283 282 283 283 283 284 284 283 283 282 280 279 278 277 276 275 273 272
275 275 274 273 272 273 272 273 282 283 285 285 286 280 275 283 285 285 285 287 288 288 283 282 281 281 281 281 281 281 282 282 282 282 282 280 279 277 277 275 274 273 272
273 272 271 272 272 270 270 270 271 276 282 284 284 284 285 286 285 286 286 286 286 287 283 282 281 281 281 281 281 281 280 281 282 281 280 279 278 277 276 275 274 273 272
268 269 269 267 267 267 267 267 266 266 267 269 277 282 283 285 285 286 286 285 283 283 283 282 282 282 282 281 281 281 281 281 280 279 278 278 277 276 274 274 273 273 271
269 267 266 266 266 266 266 266 266 266 266 267 266 275 274 282 283 284 285 282 281 281 281 282 282 283 282 281 281 281 281 280 279 278 277 277 276 275 274 273 273 272 272
265 268 265 264 265 265 266 266 267 268 269 270 268 270 274 276 276 278 280 281 281 281 282 282 283 283 282 282 282 281 281 280 279 278 277 276 275 274 273 272 272 271 270
259 260 262 262 261 259 259 260 261 260 261 261 263 266 278 274 274 274 273 274 279 280 281 281 281 282 282 282 282 281 280 280 278 275 275 274 274 272 272 273 271 271 271
257 257 257 257 258 260 258 258 258 258 257 258 260 261 273 261 261 264 268 272 272 274 275 276 277 277 277 278 278 277 276 276 275 275 274 273 273 272 271 270 270 270 269
257 257 257 256 256 257 256 255 255 256 256 255 257 259 258 257 258 260 262 262 264 267 268 268 269 268 269 271 272 273 273 273 273 274 272 272 271 270 270 269 268 268 267
254 255 255 254 253 253 253 254 254 256 255 255 255 257 258 258 258 259 259 259 260 261 262 263 263 263 264 263 264 266 268 269 268 269 271 271 269 268 268 267 267 267 266
254 254 254 253 251 252 252 252 253 251 252 253 254 255 255 257 258 259 260 260 259 259 259 260 262 261 261 261 261 262 264 268 267 267 266 268 267 265 266 266 265 265 265
253 253 252 252 252 251 251 252 252 252 252 254 254 254 255 257 258 257 258 256 255 256 256 257 257 258 259 259 260 264 265 267 266 266 265 266 264 263 264 264 264 264 264